<?xml version='1.0' encoding='UTF-8'?><gpx version="1.1" creator="JPX - https://github.com/jenetics/jpx" xmlns="http://www.topografix.com/GPX/1/1"><trk><trkseg><trkpt lat="41.802831" lon="13.2240387"><ele>707.0</ele><time>2026-05-01T10:57:12.064Z</time></trkpt><trkpt lat="41.8027639" lon="13.2240681"><ele>707.0</ele><time>2026-05-01T10:57:13.066Z</time></trkpt><trkpt lat="41.8026997" lon="13.2240929"><ele>707.0</ele><time>2026-05-01T10:57:14.068Z</time></trkpt><trkpt lat="41.8026329" lon="13.2241193"><ele>707.0</ele><time>2026-05-01T10:57:15.068Z</time></trkpt><trkpt lat="41.8025521" lon="13.2241412"><ele>707.0</ele><time>2026-05-01T10:57:16.06Z</time></trkpt><trkpt lat="41.8024731" lon="13.2241843"><ele>707.0</ele><time>2026-05-01T10:57:17.064Z</time></trkpt><trkpt lat="41.8023986" lon="13.2242442"><ele>706.5</ele><time>2026-05-01T10:57:18.065Z</time></trkpt><trkpt lat="41.8023259" lon="13.2243173"><ele>706.0</ele><time>2026-05-01T10:57:19.07Z</time></trkpt><trkpt lat="41.802261" lon="13.2244037"><ele>705.5</ele><time>2026-05-01T10:57:20.06Z</time></trkpt><trkpt lat="41.8022058" lon="13.2245004"><ele>705.0</ele><time>2026-05-01T10:57:21.058Z</time></trkpt><trkpt lat="41.8021645" lon="13.2246073"><ele>704.5</ele><time>2026-05-01T10:57:22.063Z</time></trkpt><trkpt lat="41.8021353" lon="13.2247141"><ele>704.0</ele><time>2026-05-01T10:57:23.065Z</time></trkpt><trkpt lat="41.8021083" lon="13.224818"><ele>705.1666666666666</ele><time>2026-05-01T10:57:24.058Z</time></trkpt><trkpt lat="41.802084" lon="13.2249191"><ele>706.3333333333333</ele><time>2026-05-01T10:57:25.067Z</time></trkpt><trkpt lat="41.8020581" lon="13.2250266"><ele>707.5</ele><time>2026-05-01T10:57:26.065Z</time></trkpt><trkpt lat="41.802028" lon="13.2251333"><ele>708.6666666666666</ele><time>2026-05-01T10:57:27.06Z</time></trkpt><trkpt lat="41.8019787" lon="13.2252356"><ele>709.8333333333334</ele><time>2026-05-01T10:57:28.066Z</time></trkpt><trkpt lat="41.8019227" lon="13.2253298"><ele>711.0</ele><time>2026-05-01T10:57:29.057Z</time></trkpt><trkpt lat="41.8018702" lon="13.2254188"><ele>708.1666666666666</ele><time>2026-05-01T10:57:30.057Z</time></trkpt><trkpt lat="41.801786" lon="13.2254791"><ele>705.3333333333334</ele><time>2026-05-01T10:57:31.06Z</time></trkpt><trkpt lat="41.8017076" lon="13.2255267"><ele>702.5</ele><time>2026-05-01T10:57:32.064Z</time></trkpt><trkpt lat="41.8016228" lon="13.225563"><ele>699.6666666666667</ele><time>2026-05-01T10:57:33.066Z</time></trkpt><trkpt lat="41.8015485" lon="13.2255774"><ele>696.8333333333334</ele><time>2026-05-01T10:57:34.067Z</time></trkpt><trkpt lat="41.8014748" lon="13.2255862"><ele>694.0</ele><time>2026-05-01T10:57:35.068Z</time></trkpt><trkpt lat="41.8013996" lon="13.2255813"><ele>694.0</ele><time>2026-05-01T10:57:36.061Z</time></trkpt><trkpt lat="41.8013237" lon="13.225563"><ele>694.0</ele><time>2026-05-01T10:57:37.067Z</time></trkpt><trkpt lat="41.8012495" lon="13.2255445"><ele>694.0</ele><time>2026-05-01T10:57:38.064Z</time></trkpt><trkpt lat="41.8011754" lon="13.225523"><ele>694.0</ele><time>2026-05-01T10:57:39.069Z</time></trkpt><trkpt lat="41.8010959" lon="13.2255018"><ele>694.0</ele><time>2026-05-01T10:57:40.069Z</time></trkpt><trkpt lat="41.8010208" lon="13.2254791"><ele>694.0</ele><time>2026-05-01T10:57:41.061Z</time></trkpt><trkpt lat="41.800945" lon="13.2254543"><ele>692.1666666666667</ele><time>2026-05-01T10:57:42.061Z</time></trkpt><trkpt lat="41.8008669" lon="13.2254314"><ele>690.3333333333334</ele><time>2026-05-01T10:57:43.068Z</time></trkpt><trkpt lat="41.8007823" lon="13.2254103"><ele>688.5</ele><time>2026-05-01T10:57:44.06Z</time></trkpt><trkpt lat="41.800698" lon="13.2253968"><ele>686.6666666666666</ele><time>2026-05-01T10:57:45.062Z</time></trkpt><trkpt lat="41.8006149" lon="13.2253892"><ele>684.8333333333333</ele><time>2026-05-01T10:57:46.061Z</time></trkpt><trkpt lat="41.8005357" lon="13.2253816"><ele>683.0</ele><time>2026-05-01T10:57:47.063Z</time></trkpt><trkpt lat="41.8004661" lon="13.225382"><ele>683.0</ele><time>2026-05-01T10:57:48.059Z</time></trkpt><trkpt lat="41.8004003" lon="13.2253815"><ele>683.0</ele><time>2026-05-01T10:57:49.067Z</time></trkpt><trkpt lat="41.8003106" lon="13.2253822"><ele>683.0</ele><time>2026-05-01T10:57:51.064Z</time></trkpt><trkpt lat="41.8002152" lon="13.2254038"><ele>683.0</ele><time>2026-05-01T11:00:14.056Z</time></trkpt><trkpt lat="41.8001475" lon="13.2254205"><ele>683.0</ele><time>2026-05-01T11:00:15.057Z</time></trkpt><trkpt lat="41.8000766" lon="13.2254263"><ele>683.0</ele><time>2026-05-01T11:00:16.057Z</time></trkpt><trkpt lat="41.8000046" lon="13.225435"><ele>682.8333333333333</ele><time>2026-05-01T11:00:17.057Z</time></trkpt><trkpt lat="41.7999339" lon="13.2254403"><ele>682.6666666666666</ele><time>2026-05-01T11:00:18.057Z</time></trkpt><trkpt lat="41.7998595" lon="13.2254506"><ele>682.5</ele><time>2026-05-01T11:00:19.057Z</time></trkpt><trkpt lat="41.7997778" lon="13.2254733"><ele>682.3333333333334</ele><time>2026-05-01T11:00:20.057Z</time></trkpt><trkpt lat="41.7996938" lon="13.2255047"><ele>682.1666666666667</ele><time>2026-05-01T11:00:21.057Z</time></trkpt><trkpt lat="41.7996049" lon="13.225548"><ele>682.0</ele><time>2026-05-01T11:00:22.057Z</time></trkpt><trkpt lat="41.7995202" lon="13.2255944"><ele>683.25</ele><time>2026-05-01T11:00:23.057Z</time></trkpt><trkpt lat="41.7994276" lon="13.2256844"><ele>684.5</ele><time>2026-05-01T11:00:24.057Z</time></trkpt><trkpt lat="41.7993356" lon="13.2257655"><ele>685.75</ele><time>2026-05-01T11:00:25.057Z</time></trkpt><trkpt lat="41.7992409" lon="13.2258638"><ele>687.0</ele><time>2026-05-01T11:00:26.056Z</time></trkpt><trkpt lat="41.7991388" lon="13.2259598"><ele>687.0</ele><time>2026-05-01T11:00:27.057Z</time></trkpt><trkpt lat="41.7990357" lon="13.2260491"><ele>687.0</ele><time>2026-05-01T11:00:28.057Z</time></trkpt><trkpt lat="41.7989309" lon="13.2261135"><ele>687.0</ele><time>2026-05-01T11:00:29.056Z</time></trkpt><trkpt lat="41.7988312" lon="13.2261733"><ele>687.0</ele><time>2026-05-01T11:00:30.057Z</time></trkpt><trkpt lat="41.7987237" lon="13.2261586"><ele>687.0</ele><time>2026-05-01T11:00:31.057Z</time></trkpt><trkpt lat="41.7986227" lon="13.2261485"><ele>687.0</ele><time>2026-05-01T11:00:32.057Z</time></trkpt><trkpt lat="41.7985175" lon="13.2261162"><ele>687.0</ele><time>2026-05-01T11:00:33.056Z</time></trkpt><trkpt lat="41.7984189" lon="13.2260746"><ele>687.0</ele><time>2026-05-01T11:00:34.057Z</time></trkpt><trkpt lat="41.7983213" lon="13.226029"><ele>687.0</ele><time>2026-05-01T11:00:35.057Z</time></trkpt><trkpt lat="41.7982206" lon="13.2259804"><ele>685.0</ele><time>2026-05-01T11:00:36.056Z</time></trkpt><trkpt lat="41.7981157" lon="13.2259293"><ele>683.0</ele><time>2026-05-01T11:00:37.057Z</time></trkpt><trkpt lat="41.7980023" lon="13.2258848"><ele>681.0</ele><time>2026-05-01T11:00:38.057Z</time></trkpt><trkpt lat="41.7978878" lon="13.2258435"><ele>679.0</ele><time>2026-05-01T11:00:39.056Z</time></trkpt><trkpt lat="41.7977638" lon="13.225813"><ele>679.25</ele><time>2026-05-01T11:00:40.056Z</time></trkpt><trkpt lat="41.7976443" lon="13.2257873"><ele>679.5</ele><time>2026-05-01T11:00:41.057Z</time></trkpt><trkpt lat="41.7975187" lon="13.2257676"><ele>679.75</ele><time>2026-05-01T11:00:42.057Z</time></trkpt><trkpt lat="41.7973949" lon="13.2257494"><ele>680.0</ele><time>2026-05-01T11:00:43.057Z</time></trkpt><trkpt lat="41.7972692" lon="13.2257302"><ele>680.0</ele><time>2026-05-01T11:00:44.056Z</time></trkpt><trkpt lat="41.7971442" lon="13.2257276"><ele>680.0</ele><time>2026-05-01T11:00:45.057Z</time></trkpt><trkpt lat="41.79702" lon="13.2257325"><ele>680.0</ele><time>2026-05-01T11:00:46.057Z</time></trkpt><trkpt lat="41.7968992" lon="13.2257548"><ele>680.0</ele><time>2026-05-01T11:00:47.057Z</time></trkpt><trkpt lat="41.7967823" lon="13.2257965"><ele>679.25</ele><time>2026-05-01T11:00:48.057Z</time></trkpt><trkpt lat="41.7966687" lon="13.2258459"><ele>678.5</ele><time>2026-05-01T11:00:49.057Z</time></trkpt><trkpt lat="41.7965655" lon="13.2259062"><ele>677.75</ele><time>2026-05-01T11:00:50.057Z</time></trkpt><trkpt lat="41.7964583" lon="13.2259809"><ele>677.0</ele><time>2026-05-01T11:00:51.056Z</time></trkpt><trkpt lat="41.7963505" lon="13.2260608"><ele>677.0</ele><time>2026-05-01T11:00:52.057Z</time></trkpt><trkpt lat="41.7962445" lon="13.2261499"><ele>677.0</ele><time>2026-05-01T11:00:53.056Z</time></trkpt><trkpt lat="41.7961468" lon="13.2262486"><ele>677.0</ele><time>2026-05-01T11:00:54.057Z</time></trkpt><trkpt lat="41.7960559" lon="13.226363"><ele>677.0</ele><time>2026-05-01T11:00:55.057Z</time></trkpt><trkpt lat="41.7959726" lon="13.2264837"><ele>674.5</ele><time>2026-05-01T11:00:56.057Z</time></trkpt><trkpt lat="41.795902" lon="13.2266137"><ele>672.0</ele><time>2026-05-01T11:00:57.057Z</time></trkpt><trkpt lat="41.7958464" lon="13.2267548"><ele>669.5</ele><time>2026-05-01T11:00:58.057Z</time></trkpt><trkpt lat="41.7958074" lon="13.2269087"><ele>667.0</ele><time>2026-05-01T11:00:59.057Z</time></trkpt><trkpt lat="41.7957793" lon="13.227063"><ele>667.0</ele><time>2026-05-01T11:01:00.057Z</time></trkpt><trkpt lat="41.7957568" lon="13.2272262"><ele>667.0</ele><time>2026-05-01T11:01:01.057Z</time></trkpt><trkpt lat="41.7957463" lon="13.227385"><ele>667.0</ele><time>2026-05-01T11:01:02.057Z</time></trkpt><trkpt lat="41.795745" lon="13.2275408"><ele>667.0</ele><time>2026-05-01T11:01:03.057Z</time></trkpt><trkpt lat="41.7957536" lon="13.2276973"><ele>667.25</ele><time>2026-05-01T11:01:04.057Z</time></trkpt><trkpt lat="41.7957625" lon="13.2278544"><ele>667.5</ele><time>2026-05-01T11:01:05.057Z</time></trkpt><trkpt lat="41.7957819" lon="13.228013"><ele>667.75</ele><time>2026-05-01T11:01:06.056Z</time></trkpt><trkpt lat="41.7958053" lon="13.2281677"><ele>668.0</ele><time>2026-05-01T11:01:07.057Z</time></trkpt><trkpt lat="41.7958221" lon="13.2283258"><ele>668.0</ele><time>2026-05-01T11:01:08.057Z</time></trkpt><trkpt lat="41.7958385" lon="13.2284859"><ele>668.0</ele><time>2026-05-01T11:01:09.057Z</time></trkpt><trkpt lat="41.7958543" lon="13.2286481"><ele>668.0</ele><time>2026-05-01T11:01:10.057Z</time></trkpt><trkpt lat="41.7958638" lon="13.2288033"><ele>668.0</ele><time>2026-05-01T11:01:11.056Z</time></trkpt><trkpt lat="41.7958536" lon="13.2289518"><ele>668.5999999999999</ele><time>2026-05-01T11:01:12.057Z</time></trkpt><trkpt lat="41.7958149" lon="13.2290886"><ele>669.1999999999999</ele><time>2026-05-01T11:01:13.057Z</time></trkpt><trkpt lat="41.7957473" lon="13.2291953"><ele>669.8</ele><time>2026-05-01T11:01:14.057Z</time></trkpt><trkpt lat="41.795661" lon="13.2292687"><ele>670.4</ele><time>2026-05-01T11:01:15.057Z</time></trkpt><trkpt lat="41.7955662" lon="13.2293002"><ele>671.0</ele><time>2026-05-01T11:01:16.057Z</time></trkpt><trkpt lat="41.795474" lon="13.2292781"><ele>671.0</ele><time>2026-05-01T11:01:17.057Z</time></trkpt><trkpt lat="41.7953973" lon="13.2292101"><ele>671.0</ele><time>2026-05-01T11:01:18.057Z</time></trkpt><trkpt lat="41.7953413" lon="13.2291066"><ele>671.0</ele><time>2026-05-01T11:01:19.057Z</time></trkpt><trkpt lat="41.795301" lon="13.228975"><ele>671.0</ele><time>2026-05-01T11:01:20.057Z</time></trkpt><trkpt lat="41.7952852" lon="13.2288237"><ele>671.0</ele><time>2026-05-01T11:01:21.056Z</time></trkpt><trkpt lat="41.7952937" lon="13.2286606"><ele>670.5</ele><time>2026-05-01T11:01:22.057Z</time></trkpt><trkpt lat="41.7953121" lon="13.228489"><ele>670.0</ele><time>2026-05-01T11:01:23.057Z</time></trkpt><trkpt lat="41.7953314" lon="13.2283089"><ele>669.5</ele><time>2026-05-01T11:01:24.057Z</time></trkpt><trkpt lat="41.7953385" lon="13.2281334"><ele>669.0</ele><time>2026-05-01T11:01:25.056Z</time></trkpt><trkpt lat="41.7953287" lon="13.2279624"><ele>669.0</ele><time>2026-05-01T11:01:26.057Z</time></trkpt><trkpt lat="41.7952997" lon="13.2277943"><ele>669.0</ele><time>2026-05-01T11:01:27.057Z</time></trkpt><trkpt lat="41.7952535" lon="13.2276339"><ele>669.0</ele><time>2026-05-01T11:01:28.057Z</time></trkpt><trkpt lat="41.7951897" lon="13.2274839"><ele>669.0</ele><time>2026-05-01T11:01:29.056Z</time></trkpt><trkpt lat="41.7951103" lon="13.2273532"><ele>666.4000000000001</ele><time>2026-05-01T11:01:30.057Z</time></trkpt><trkpt lat="41.7950261" lon="13.2272417"><ele>663.8</ele><time>2026-05-01T11:01:31.056Z</time></trkpt><trkpt lat="41.7949493" lon="13.227148"><ele>661.2</ele><time>2026-05-01T11:01:32.057Z</time></trkpt><trkpt lat="41.7948762" lon="13.2270497"><ele>658.5999999999999</ele><time>2026-05-01T11:01:33.057Z</time></trkpt><trkpt lat="41.7948107" lon="13.2269473"><ele>656.0</ele><time>2026-05-01T11:01:34.057Z</time></trkpt><trkpt lat="41.7947555" lon="13.2268335"><ele>656.0</ele><time>2026-05-01T11:01:35.057Z</time></trkpt><trkpt lat="41.7947232" lon="13.2267056"><ele>656.0</ele><time>2026-05-01T11:01:36.057Z</time></trkpt><trkpt lat="41.794715" lon="13.2265665"><ele>656.0</ele><time>2026-05-01T11:01:37.057Z</time></trkpt><trkpt lat="41.7947327" lon="13.2264263"><ele>656.0</ele><time>2026-05-01T11:01:38.057Z</time></trkpt><trkpt lat="41.794774" lon="13.2263002"><ele>656.0</ele><time>2026-05-01T11:01:39.057Z</time></trkpt><trkpt lat="41.7948385" lon="13.2261886"><ele>656.4</ele><time>2026-05-01T11:01:40.056Z</time></trkpt><trkpt lat="41.7949224" lon="13.2260929"><ele>656.8</ele><time>2026-05-01T11:01:41.057Z</time></trkpt><trkpt lat="41.7950117" lon="13.2260058"><ele>657.1999999999999</ele><time>2026-05-01T11:01:42.056Z</time></trkpt><trkpt lat="41.7951024" lon="13.2259203"><ele>657.5999999999999</ele><time>2026-05-01T11:01:43.057Z</time></trkpt><trkpt lat="41.795178" lon="13.2258463"><ele>658.0</ele><time>2026-05-01T11:01:44.056Z</time></trkpt><trkpt lat="41.7952466" lon="13.2257732"><ele>658.0</ele><time>2026-05-01T11:01:45.057Z</time></trkpt><trkpt lat="41.7953158" lon="13.2256958"><ele>658.0</ele><time>2026-05-01T11:01:46.057Z</time></trkpt><trkpt lat="41.795387" lon="13.2256241"><ele>658.0</ele><time>2026-05-01T11:01:47.057Z</time></trkpt><trkpt lat="41.7954592" lon="13.2255619"><ele>658.0</ele><time>2026-05-01T11:01:48.056Z</time></trkpt><trkpt lat="41.7955302" lon="13.2255032"><ele>658.0</ele><time>2026-05-01T11:01:49.057Z</time></trkpt><trkpt lat="41.7955996" lon="13.2254392"><ele>658.0</ele><time>2026-05-01T11:01:50.057Z</time></trkpt><trkpt lat="41.795672" lon="13.22538"><ele>657.3333333333334</ele><time>2026-05-01T11:01:51.057Z</time></trkpt><trkpt lat="41.7957447" lon="13.2253131"><ele>656.6666666666667</ele><time>2026-05-01T11:01:52.057Z</time></trkpt><trkpt lat="41.7958197" lon="13.2252464"><ele>656.0</ele><time>2026-05-01T11:01:53.057Z</time></trkpt><trkpt lat="41.7958949" lon="13.2251784"><ele>655.3333333333334</ele><time>2026-05-01T11:01:54.056Z</time></trkpt><trkpt lat="41.7959654" lon="13.2251068"><ele>654.6666666666666</ele><time>2026-05-01T11:01:55.056Z</time></trkpt><trkpt lat="41.7960393" lon="13.2250417"><ele>654.0</ele><time>2026-05-01T11:01:56.057Z</time></trkpt><trkpt lat="41.7961109" lon="13.2249749"><ele>654.0</ele><time>2026-05-01T11:01:57.057Z</time></trkpt><trkpt lat="41.7961885" lon="13.2249025"><ele>654.0</ele><time>2026-05-01T11:01:58.057Z</time></trkpt><trkpt lat="41.7962736" lon="13.2248166"><ele>654.0</ele><time>2026-05-01T11:01:59.057Z</time></trkpt><trkpt lat="41.7963718" lon="13.2247221"><ele>654.0</ele><time>2026-05-01T11:02:00.057Z</time></trkpt><trkpt lat="41.7964844" lon="13.2246214"><ele>651.25</ele><time>2026-05-01T11:02:01.056Z</time></trkpt><trkpt lat="41.7966054" lon="13.2245191"><ele>648.5</ele><time>2026-05-01T11:02:02.057Z</time></trkpt><trkpt lat="41.7967242" lon="13.2244219"><ele>645.75</ele><time>2026-05-01T11:02:03.056Z</time></trkpt><trkpt lat="41.7968391" lon="13.2243212"><ele>643.0</ele><time>2026-05-01T11:02:04.056Z</time></trkpt><trkpt lat="41.7969578" lon="13.2242158"><ele>643.0</ele><time>2026-05-01T11:02:05.056Z</time></trkpt><trkpt lat="41.7970826" lon="13.2241046"><ele>643.0</ele><time>2026-05-01T11:02:06.057Z</time></trkpt><trkpt lat="41.7972085" lon="13.2239903"><ele>643.0</ele><time>2026-05-01T11:02:07.057Z</time></trkpt><trkpt lat="41.7973345" lon="13.2238773"><ele>644.0</ele><time>2026-05-01T11:02:08.057Z</time></trkpt><trkpt lat="41.7974592" lon="13.2237664"><ele>645.0</ele><time>2026-05-01T11:02:09.057Z</time></trkpt><trkpt lat="41.7975815" lon="13.2236562"><ele>646.0</ele><time>2026-05-01T11:02:10.057Z</time></trkpt><trkpt lat="41.7977001" lon="13.2235454"><ele>647.0</ele><time>2026-05-01T11:02:11.056Z</time></trkpt><trkpt lat="41.7978109" lon="13.2234303"><ele>647.0</ele><time>2026-05-01T11:02:12.057Z</time></trkpt><trkpt lat="41.7979056" lon="13.2233026"><ele>647.0</ele><time>2026-05-01T11:02:13.057Z</time></trkpt><trkpt lat="41.7979802" lon="13.2231563"><ele>647.0</ele><time>2026-05-01T11:02:14.057Z</time></trkpt><trkpt lat="41.7980304" lon="13.2229929"><ele>647.0</ele><time>2026-05-01T11:02:15.057Z</time></trkpt><trkpt lat="41.7980633" lon="13.2228229"><ele>645.25</ele><time>2026-05-01T11:02:16.057Z</time></trkpt><trkpt lat="41.7980921" lon="13.2226515"><ele>643.5</ele><time>2026-05-01T11:02:17.057Z</time></trkpt><trkpt lat="41.798133" lon="13.2224887"><ele>641.75</ele><time>2026-05-01T11:02:18.057Z</time></trkpt><trkpt lat="41.7981832" lon="13.2223302"><ele>640.0</ele><time>2026-05-01T11:02:19.057Z</time></trkpt><trkpt lat="41.7982556" lon="13.222177"><ele>638.25</ele><time>2026-05-01T11:02:20.057Z</time></trkpt><trkpt lat="41.7983639" lon="13.2220422"><ele>636.5</ele><time>2026-05-01T11:02:21.057Z</time></trkpt><trkpt lat="41.7984952" lon="13.2219662"><ele>634.75</ele><time>2026-05-01T11:02:22.057Z</time></trkpt><trkpt lat="41.7986108" lon="13.2218747"><ele>633.0</ele><time>2026-05-01T11:02:23.056Z</time></trkpt><trkpt lat="41.7987112" lon="13.2217738"><ele>633.0</ele><time>2026-05-01T11:02:24.057Z</time></trkpt><trkpt lat="41.7988073" lon="13.2216784"><ele>633.0</ele><time>2026-05-01T11:02:25.057Z</time></trkpt><trkpt lat="41.7988982" lon="13.2215933"><ele>633.0</ele><time>2026-05-01T11:02:26.057Z</time></trkpt><trkpt lat="41.798973" lon="13.2215154"><ele>633.0</ele><time>2026-05-01T11:02:27.057Z</time></trkpt><trkpt lat="41.7990312" lon="13.2214346"><ele>633.0</ele><time>2026-05-01T11:02:28.057Z</time></trkpt><trkpt lat="41.7990786" lon="13.2213461"><ele>632.0</ele><time>2026-05-01T11:02:29.056Z</time></trkpt><trkpt lat="41.7991166" lon="13.2212427"><ele>631.0</ele><time>2026-05-01T11:02:30.056Z</time></trkpt><trkpt lat="41.7991401" lon="13.2211305"><ele>630.0</ele><time>2026-05-01T11:02:31.057Z</time></trkpt><trkpt lat="41.7991456" lon="13.2210158"><ele>629.0</ele><time>2026-05-01T11:02:32.057Z</time></trkpt><trkpt lat="41.7991332" lon="13.2208976"><ele>628.0</ele><time>2026-05-01T11:02:33.057Z</time></trkpt><trkpt lat="41.7991151" lon="13.2207778"><ele>627.0</ele><time>2026-05-01T11:02:34.057Z</time></trkpt><trkpt lat="41.799093" lon="13.2206705"><ele>626.2857142857143</ele><time>2026-05-01T11:02:35.057Z</time></trkpt><trkpt lat="41.7990564" lon="13.2205827"><ele>625.5714285714286</ele><time>2026-05-01T11:02:36.057Z</time></trkpt><trkpt lat="41.799009" lon="13.2205019"><ele>624.8571428571429</ele><time>2026-05-01T11:02:37.057Z</time></trkpt><trkpt lat="41.7989618" lon="13.2204404"><ele>624.1428571428571</ele><time>2026-05-01T11:02:38.057Z</time></trkpt><trkpt lat="41.7989042" lon="13.2203927"><ele>623.4285714285714</ele><time>2026-05-01T11:02:39.057Z</time></trkpt><trkpt lat="41.7988379" lon="13.2203404"><ele>622.7142857142857</ele><time>2026-05-01T11:02:40.056Z</time></trkpt><trkpt lat="41.7987571" lon="13.2202997"><ele>622.0</ele><time>2026-05-01T11:02:41.057Z</time></trkpt><trkpt lat="41.7986622" lon="13.2202811"><ele>622.0</ele><time>2026-05-01T11:02:42.057Z</time></trkpt><trkpt lat="41.7985577" lon="13.2202887"><ele>622.0</ele><time>2026-05-01T11:02:43.056Z</time></trkpt><trkpt lat="41.7984447" lon="13.2203152"><ele>622.0</ele><time>2026-05-01T11:02:44.057Z</time></trkpt><trkpt lat="41.7983385" lon="13.2203903"><ele>622.0</ele><time>2026-05-01T11:02:45.057Z</time></trkpt><trkpt lat="41.7982542" lon="13.2204905"><ele>621.75</ele><time>2026-05-01T11:02:46.057Z</time></trkpt><trkpt lat="41.7981702" lon="13.2206017"><ele>621.5</ele><time>2026-05-01T11:02:47.056Z</time></trkpt><trkpt lat="41.7980938" lon="13.2207305"><ele>621.25</ele><time>2026-05-01T11:02:48.057Z</time></trkpt><trkpt lat="41.7980092" lon="13.2208649"><ele>621.0</ele><time>2026-05-01T11:02:49.057Z</time></trkpt><trkpt lat="41.7979241" lon="13.221006"><ele>621.0</ele><time>2026-05-01T11:02:50.056Z</time></trkpt><trkpt lat="41.7978445" lon="13.2211481"><ele>621.0</ele><time>2026-05-01T11:02:51.057Z</time></trkpt><trkpt lat="41.7977615" lon="13.221287"><ele>621.0</ele><time>2026-05-01T11:02:52.057Z</time></trkpt><trkpt lat="41.7976748" lon="13.2214198"><ele>621.0</ele><time>2026-05-01T11:02:53.057Z</time></trkpt><trkpt lat="41.7975798" lon="13.2215405"><ele>620.75</ele><time>2026-05-01T11:02:54.057Z</time></trkpt><trkpt lat="41.7974728" lon="13.2216342"><ele>620.5</ele><time>2026-05-01T11:02:55.056Z</time></trkpt><trkpt lat="41.7973614" lon="13.2217118"><ele>620.25</ele><time>2026-05-01T11:02:56.057Z</time></trkpt><trkpt lat="41.7972508" lon="13.2217694"><ele>620.0</ele><time>2026-05-01T11:02:57.056Z</time></trkpt><trkpt lat="41.7971299" lon="13.2217951"><ele>620.0</ele><time>2026-05-01T11:02:58.057Z</time></trkpt><trkpt lat="41.7970016" lon="13.2217998"><ele>620.0</ele><time>2026-05-01T11:02:59.056Z</time></trkpt><trkpt lat="41.7968711" lon="13.2217845"><ele>620.0</ele><time>2026-05-01T11:03:00.056Z</time></trkpt><trkpt lat="41.7967435" lon="13.2217543"><ele>620.0</ele><time>2026-05-01T11:03:01.057Z</time></trkpt><trkpt lat="41.7966218" lon="13.2217142"><ele>618.75</ele><time>2026-05-01T11:03:02.056Z</time></trkpt><trkpt lat="41.796504" lon="13.2216655"><ele>617.5</ele><time>2026-05-01T11:03:03.056Z</time></trkpt><trkpt lat="41.7963903" lon="13.2216109"><ele>616.25</ele><time>2026-05-01T11:03:04.057Z</time></trkpt><trkpt lat="41.7962742" lon="13.2215509"><ele>615.0</ele><time>2026-05-01T11:03:05.057Z</time></trkpt><trkpt lat="41.7961562" lon="13.221495"><ele>614.75</ele><time>2026-05-01T11:03:06.057Z</time></trkpt><trkpt lat="41.7960347" lon="13.2214431"><ele>614.5</ele><time>2026-05-01T11:03:07.057Z</time></trkpt><trkpt lat="41.7959171" lon="13.2213944"><ele>614.25</ele><time>2026-05-01T11:03:08.056Z</time></trkpt><trkpt lat="41.7958015" lon="13.2213463"><ele>614.0</ele><time>2026-05-01T11:03:09.056Z</time></trkpt><trkpt lat="41.7956922" lon="13.2212959"><ele>616.1666666666666</ele><time>2026-05-01T11:03:10.057Z</time></trkpt><trkpt lat="41.7955927" lon="13.2212488"><ele>618.3333333333333</ele><time>2026-05-01T11:03:11.057Z</time></trkpt><trkpt lat="41.7955083" lon="13.2212089"><ele>620.5</ele><time>2026-05-01T11:03:12.057Z</time></trkpt><trkpt lat="41.7954317" lon="13.2211744"><ele>622.6666666666666</ele><time>2026-05-01T11:03:13.057Z</time></trkpt><trkpt lat="41.7953616" lon="13.2211522"><ele>624.8333333333334</ele><time>2026-05-01T11:03:14.056Z</time></trkpt><trkpt lat="41.7952869" lon="13.2211417"><ele>627.0</ele><time>2026-05-01T11:03:15.057Z</time></trkpt><trkpt lat="41.7952185" lon="13.2211409"><ele>626.4285714285714</ele><time>2026-05-01T11:03:16.056Z</time></trkpt><trkpt lat="41.7951491" lon="13.2211439"><ele>625.8571428571429</ele><time>2026-05-01T11:03:17.057Z</time></trkpt><trkpt lat="41.7950825" lon="13.221149"><ele>625.2857142857142</ele><time>2026-05-01T11:03:18.057Z</time></trkpt><trkpt lat="41.7950176" lon="13.2211533"><ele>624.7142857142858</ele><time>2026-05-01T11:03:19.057Z</time></trkpt><trkpt lat="41.7949468" lon="13.2211622"><ele>624.1428571428571</ele><time>2026-05-01T11:03:20.056Z</time></trkpt><trkpt lat="41.7948763" lon="13.2211664"><ele>623.5714285714286</ele><time>2026-05-01T11:03:21.057Z</time></trkpt><trkpt lat="41.7948061" lon="13.2211698"><ele>623.0</ele><time>2026-05-01T11:03:22.057Z</time></trkpt><trkpt lat="41.7947354" lon="13.2211749"><ele>623.0</ele><time>2026-05-01T11:03:23.057Z</time></trkpt><trkpt lat="41.794658" lon="13.2211731"><ele>623.0</ele><time>2026-05-01T11:03:24.057Z</time></trkpt><trkpt lat="41.7945814" lon="13.2211756"><ele>623.0</ele><time>2026-05-01T11:03:25.057Z</time></trkpt><trkpt lat="41.7945065" lon="13.2211832"><ele>623.0</ele><time>2026-05-01T11:03:26.056Z</time></trkpt><trkpt lat="41.7944313" lon="13.2211833"><ele>623.0</ele><time>2026-05-01T11:03:27.057Z</time></trkpt><trkpt lat="41.7943623" lon="13.221186"><ele>623.0</ele><time>2026-05-01T11:03:28.056Z</time></trkpt><trkpt lat="41.7942934" lon="13.2211853"><ele>623.0</ele><time>2026-05-01T11:03:29.057Z</time></trkpt><trkpt lat="41.7942297" lon="13.221189"><ele>622.2857142857143</ele><time>2026-05-01T11:03:30.057Z</time></trkpt><trkpt lat="41.7941646" lon="13.2211926"><ele>621.5714285714286</ele><time>2026-05-01T11:03:31.057Z</time></trkpt><trkpt lat="41.7940978" lon="13.2211941"><ele>620.8571428571429</ele><time>2026-05-01T11:03:32.057Z</time></trkpt><trkpt lat="41.7940291" lon="13.2211946"><ele>620.1428571428571</ele><time>2026-05-01T11:03:33.057Z</time></trkpt><trkpt lat="41.7939596" lon="13.2211972"><ele>619.4285714285714</ele><time>2026-05-01T11:03:34.057Z</time></trkpt><trkpt lat="41.7938869" lon="13.2212044"><ele>618.7142857142858</ele><time>2026-05-01T11:03:35.057Z</time></trkpt><trkpt lat="41.7938085" lon="13.221207"><ele>618.0</ele><time>2026-05-01T11:03:36.057Z</time></trkpt><trkpt lat="41.7937259" lon="13.2212139"><ele>618.0</ele><time>2026-05-01T11:03:37.057Z</time></trkpt><trkpt lat="41.7936402" lon="13.2212211"><ele>618.0</ele><time>2026-05-01T11:03:38.057Z</time></trkpt><trkpt lat="41.7935502" lon="13.2212278"><ele>618.0</ele><time>2026-05-01T11:03:39.056Z</time></trkpt><trkpt lat="41.7934643" lon="13.2212342"><ele>618.0</ele><time>2026-05-01T11:03:40.057Z</time></trkpt><trkpt lat="41.7933803" lon="13.2212408"><ele>618.0</ele><time>2026-05-01T11:03:41.057Z</time></trkpt><trkpt lat="41.7932936" lon="13.2212486"><ele>618.0</ele><time>2026-05-01T11:03:42.056Z</time></trkpt><trkpt lat="41.793204" lon="13.2212527"><ele>618.6666666666666</ele><time>2026-05-01T11:03:43.057Z</time></trkpt><trkpt lat="41.7931186" lon="13.2212522"><ele>619.3333333333334</ele><time>2026-05-01T11:03:44.057Z</time></trkpt><trkpt lat="41.7930343" lon="13.2212533"><ele>620.0</ele><time>2026-05-01T11:03:45.056Z</time></trkpt><trkpt lat="41.7929595" lon="13.2212581"><ele>620.6666666666667</ele><time>2026-05-01T11:03:46.057Z</time></trkpt><trkpt lat="41.7928854" lon="13.2212634"><ele>621.3333333333334</ele><time>2026-05-01T11:03:47.057Z</time></trkpt><trkpt lat="41.7928126" lon="13.2212685"><ele>622.0</ele><time>2026-05-01T11:03:48.057Z</time></trkpt><trkpt lat="41.7927395" lon="13.2212722"><ele>621.6666666666667</ele><time>2026-05-01T11:03:49.057Z</time></trkpt><trkpt lat="41.7926638" lon="13.2212735"><ele>621.3333333333334</ele><time>2026-05-01T11:03:50.057Z</time></trkpt><trkpt lat="41.7925899" lon="13.2212757"><ele>621.0</ele><time>2026-05-01T11:03:51.057Z</time></trkpt><trkpt lat="41.7925125" lon="13.2212734"><ele>620.6666666666666</ele><time>2026-05-01T11:03:52.057Z</time></trkpt><trkpt lat="41.7924321" lon="13.2212753"><ele>620.3333333333333</ele><time>2026-05-01T11:03:53.057Z</time></trkpt><trkpt lat="41.7923484" lon="13.2212779"><ele>620.0</ele><time>2026-05-01T11:03:54.057Z</time></trkpt><trkpt lat="41.7922658" lon="13.2212822"><ele>620.0</ele><time>2026-05-01T11:03:55.056Z</time></trkpt><trkpt lat="41.7921896" lon="13.2212848"><ele>620.0</ele><time>2026-05-01T11:03:56.056Z</time></trkpt><trkpt lat="41.7921224" lon="13.2212882"><ele>620.0</ele><time>2026-05-01T11:03:57.057Z</time></trkpt><trkpt lat="41.7920012" lon="13.2212931"><ele>620.0</ele><time>2026-05-01T11:03:59.057Z</time></trkpt><trkpt lat="41.7918956" lon="13.2213005"><ele>620.0</ele><time>2026-05-01T11:04:01.057Z</time></trkpt><trkpt lat="41.7917899" lon="13.2213138"><ele>619.8333333333333</ele><time>2026-05-01T11:04:03.057Z</time></trkpt><trkpt lat="41.7917028" lon="13.2213321"><ele>619.6666666666666</ele><time>2026-05-01T11:04:05.057Z</time></trkpt><trkpt lat="41.7916312" lon="13.221337"><ele>619.5</ele><time>2026-05-01T11:04:08.056Z</time></trkpt><trkpt lat="41.7915666" lon="13.2213357"><ele>619.3333333333334</ele><time>2026-05-01T11:04:12.057Z</time></trkpt><trkpt lat="41.7914762" lon="13.2213161"><ele>619.1666666666667</ele><time>2026-05-01T11:04:15.057Z</time></trkpt><trkpt lat="41.7913554" lon="13.221362"><ele>619.0</ele><time>2026-05-01T11:04:17.057Z</time></trkpt><trkpt lat="41.7912965" lon="13.2214114"><ele>619.0</ele><time>2026-05-01T11:04:18.057Z</time></trkpt><trkpt lat="41.7912432" lon="13.2214684"><ele>619.0</ele><time>2026-05-01T11:04:19.056Z</time></trkpt><trkpt lat="41.7911918" lon="13.2215295"><ele>619.0</ele><time>2026-05-01T11:04:20.057Z</time></trkpt><trkpt lat="41.7911105" lon="13.2216237"><ele>619.0</ele><time>2026-05-01T11:04:22.057Z</time></trkpt><trkpt lat="41.7910703" lon="13.2217061"><ele>619.0</ele><time>2026-05-01T11:05:13.057Z</time></trkpt><trkpt lat="41.7910181" lon="13.2217811"><ele>619.0</ele><time>2026-05-01T11:05:16.057Z</time></trkpt><trkpt lat="41.7909156" lon="13.2218875"><ele>618.6666666666667</ele><time>2026-05-01T11:05:18.057Z</time></trkpt><trkpt lat="41.7908513" lon="13.2219681"><ele>618.3333333333334</ele><time>2026-05-01T11:05:19.056Z</time></trkpt><trkpt lat="41.7907872" lon="13.2220454"><ele>618.0</ele><time>2026-05-01T11:05:20.057Z</time></trkpt><trkpt lat="41.7907235" lon="13.2221251"><ele>617.6666666666666</ele><time>2026-05-01T11:05:21.057Z</time></trkpt><trkpt lat="41.7906577" lon="13.2222052"><ele>617.3333333333333</ele><time>2026-05-01T11:05:22.056Z</time></trkpt><trkpt lat="41.7905866" lon="13.222289"><ele>617.0</ele><time>2026-05-01T11:05:23.057Z</time></trkpt><trkpt lat="41.7905091" lon="13.2223788"><ele>617.0</ele><time>2026-05-01T11:05:24.057Z</time></trkpt><trkpt lat="41.7904328" lon="13.2224724"><ele>617.0</ele><time>2026-05-01T11:05:25.057Z</time></trkpt><trkpt lat="41.7903605" lon="13.222558"><ele>617.0</ele><time>2026-05-01T11:05:26.057Z</time></trkpt><trkpt lat="41.7902972" lon="13.2226335"><ele>617.0</ele><time>2026-05-01T11:05:27.056Z</time></trkpt><trkpt lat="41.7902493" lon="13.2226941"><ele>617.0</ele><time>2026-05-01T11:05:28.057Z</time></trkpt><trkpt lat="41.7901641" lon="13.2228154"><ele>617.0</ele><time>2026-05-01T11:05:30.057Z</time></trkpt><trkpt lat="41.7900789" lon="13.2229268"><ele>617.0</ele><time>2026-05-01T11:05:32.057Z</time></trkpt><trkpt lat="41.7900304" lon="13.2229827"><ele>617.0</ele><time>2026-05-01T11:05:33.057Z</time></trkpt><trkpt lat="41.7899365" lon="13.2230954"><ele>617.0</ele><time>2026-05-01T11:05:35.057Z</time></trkpt><trkpt lat="41.7898874" lon="13.2231529"><ele>617.0</ele><time>2026-05-01T11:05:36.057Z</time></trkpt><trkpt lat="41.789835" lon="13.2232143"><ele>617.0</ele><time>2026-05-01T11:05:37.057Z</time></trkpt><trkpt lat="41.7897824" lon="13.2232775"><ele>616.6</ele><time>2026-05-01T11:05:38.057Z</time></trkpt><trkpt lat="41.7897252" lon="13.2233499"><ele>616.2</ele><time>2026-05-01T11:05:39.057Z</time></trkpt><trkpt lat="41.7896662" lon="13.2234245"><ele>615.8</ele><time>2026-05-01T11:05:40.057Z</time></trkpt><trkpt lat="41.7895931" lon="13.2235196"><ele>615.4</ele><time>2026-05-01T11:05:41.056Z</time></trkpt><trkpt lat="41.7894969" lon="13.2236312"><ele>615.0</ele><time>2026-05-01T11:05:42.057Z</time></trkpt><trkpt lat="41.7893903" lon="13.2237518"><ele>613.75</ele><time>2026-05-01T11:05:43.057Z</time></trkpt><trkpt lat="41.7892929" lon="13.2238675"><ele>612.5</ele><time>2026-05-01T11:05:44.057Z</time></trkpt><trkpt lat="41.7891964" lon="13.2239756"><ele>611.25</ele><time>2026-05-01T11:05:45.057Z</time></trkpt><trkpt lat="41.7890988" lon="13.2240841"><ele>610.0</ele><time>2026-05-01T11:05:46.056Z</time></trkpt><trkpt lat="41.7889905" lon="13.2241796"><ele>609.75</ele><time>2026-05-01T11:05:47.057Z</time></trkpt><trkpt lat="41.7888739" lon="13.2242375"><ele>609.5</ele><time>2026-05-01T11:05:48.056Z</time></trkpt><trkpt lat="41.7887566" lon="13.2242729"><ele>609.25</ele><time>2026-05-01T11:05:49.056Z</time></trkpt><trkpt lat="41.7886342" lon="13.2242862"><ele>609.0</ele><time>2026-05-01T11:05:50.057Z</time></trkpt><trkpt lat="41.7885056" lon="13.2242723"><ele>608.5</ele><time>2026-05-01T11:05:51.057Z</time></trkpt><trkpt lat="41.7883756" lon="13.2242421"><ele>608.0</ele><time>2026-05-01T11:05:52.057Z</time></trkpt><trkpt lat="41.7882376" lon="13.2242039"><ele>607.5</ele><time>2026-05-01T11:05:53.057Z</time></trkpt><trkpt lat="41.7880968" lon="13.2241644"><ele>607.0</ele><time>2026-05-01T11:05:54.057Z</time></trkpt><trkpt lat="41.7879562" lon="13.224127"><ele>607.0</ele><time>2026-05-01T11:05:55.056Z</time></trkpt><trkpt lat="41.7878249" lon="13.2240886"><ele>607.0</ele><time>2026-05-01T11:05:56.057Z</time></trkpt><trkpt lat="41.7876992" lon="13.2240524"><ele>607.0</ele><time>2026-05-01T11:05:57.057Z</time></trkpt><trkpt lat="41.7875716" lon="13.2240169"><ele>607.0</ele><time>2026-05-01T11:05:58.057Z</time></trkpt><trkpt lat="41.7874389" lon="13.2239805"><ele>607.5</ele><time>2026-05-01T11:05:59.057Z</time></trkpt><trkpt lat="41.7873004" lon="13.2239455"><ele>608.0</ele><time>2026-05-01T11:06:00.056Z</time></trkpt><trkpt lat="41.7871586" lon="13.2239097"><ele>608.5</ele><time>2026-05-01T11:06:01.057Z</time></trkpt><trkpt lat="41.787022" lon="13.2238746"><ele>609.0</ele><time>2026-05-01T11:06:02.057Z</time></trkpt><trkpt lat="41.7868948" lon="13.223835"><ele>608.5</ele><time>2026-05-01T11:06:03.057Z</time></trkpt><trkpt lat="41.7867678" lon="13.22379"><ele>608.0</ele><time>2026-05-01T11:06:04.057Z</time></trkpt><trkpt lat="41.7866459" lon="13.2237463"><ele>607.5</ele><time>2026-05-01T11:06:05.056Z</time></trkpt><trkpt lat="41.7865532" lon="13.2236642"><ele>607.0</ele><time>2026-05-01T11:06:06.057Z</time></trkpt><trkpt lat="41.786471" lon="13.2235836"><ele>607.0</ele><time>2026-05-01T11:06:07.057Z</time></trkpt><trkpt lat="41.7864088" lon="13.2234863"><ele>607.0</ele><time>2026-05-01T11:06:08.057Z</time></trkpt><trkpt lat="41.7863735" lon="13.2233788"><ele>607.0</ele><time>2026-05-01T11:06:09.057Z</time></trkpt><trkpt lat="41.78635" lon="13.2232727"><ele>607.0</ele><time>2026-05-01T11:06:10.057Z</time></trkpt><trkpt lat="41.7863399" lon="13.2231656"><ele>607.0</ele><time>2026-05-01T11:06:11.057Z</time></trkpt><trkpt lat="41.7863583" lon="13.2230632"><ele>607.0</ele><time>2026-05-01T11:06:12.056Z</time></trkpt><trkpt lat="41.7863858" lon="13.2229678"><ele>605.6666666666667</ele><time>2026-05-01T11:06:13.057Z</time></trkpt><trkpt lat="41.7864206" lon="13.2228889"><ele>604.3333333333334</ele><time>2026-05-01T11:06:14.056Z</time></trkpt><trkpt lat="41.7864632" lon="13.2228116"><ele>603.0</ele><time>2026-05-01T11:06:15.057Z</time></trkpt><trkpt lat="41.7865155" lon="13.2227472"><ele>601.6666666666666</ele><time>2026-05-01T11:06:16.057Z</time></trkpt><trkpt lat="41.7865891" lon="13.2226854"><ele>600.3333333333333</ele><time>2026-05-01T11:06:17.056Z</time></trkpt><trkpt lat="41.78668" lon="13.2226265"><ele>599.0</ele><time>2026-05-01T11:06:18.057Z</time></trkpt><trkpt lat="41.7867891" lon="13.2225783"><ele>600.75</ele><time>2026-05-01T11:06:19.057Z</time></trkpt><trkpt lat="41.7869139" lon="13.2225391"><ele>602.5</ele><time>2026-05-01T11:06:20.057Z</time></trkpt><trkpt lat="41.7870491" lon="13.2225147"><ele>604.25</ele><time>2026-05-01T11:06:21.057Z</time></trkpt><trkpt lat="41.7871791" lon="13.2224361"><ele>606.0</ele><time>2026-05-01T11:06:22.057Z</time></trkpt><trkpt lat="41.787305" lon="13.2223564"><ele>604.0</ele><time>2026-05-01T11:06:23.057Z</time></trkpt><trkpt lat="41.7874257" lon="13.2222598"><ele>602.0</ele><time>2026-05-01T11:06:24.057Z</time></trkpt><trkpt lat="41.7875457" lon="13.2221684"><ele>600.0</ele><time>2026-05-01T11:06:25.056Z</time></trkpt><trkpt lat="41.7876587" lon="13.2220632"><ele>598.0</ele><time>2026-05-01T11:06:26.057Z</time></trkpt><trkpt lat="41.7877583" lon="13.2219726"><ele>598.0</ele><time>2026-05-01T11:06:27.057Z</time></trkpt><trkpt lat="41.7878687" lon="13.2218867"><ele>598.0</ele><time>2026-05-01T11:06:28.057Z</time></trkpt><trkpt lat="41.7879764" lon="13.2218238"><ele>598.0</ele><time>2026-05-01T11:06:29.057Z</time></trkpt><trkpt lat="41.7880841" lon="13.2217571"><ele>598.0</ele><time>2026-05-01T11:06:30.056Z</time></trkpt><trkpt lat="41.7881814" lon="13.2216714"><ele>598.0</ele><time>2026-05-01T11:06:31.057Z</time></trkpt><trkpt lat="41.7882519" lon="13.221564"><ele>598.0</ele><time>2026-05-01T11:06:32.057Z</time></trkpt><trkpt lat="41.7883088" lon="13.2214587"><ele>598.0</ele><time>2026-05-01T11:06:33.056Z</time></trkpt><trkpt lat="41.7882992" lon="13.2213227"><ele>598.0</ele><time>2026-05-01T11:06:34.056Z</time></trkpt><trkpt lat="41.7882835" lon="13.2212084"><ele>598.0</ele><time>2026-05-01T11:06:35.057Z</time></trkpt><trkpt lat="41.7882348" lon="13.2211056"><ele>598.0</ele><time>2026-05-01T11:06:36.057Z</time></trkpt><trkpt lat="41.788188" lon="13.220998"><ele>598.0</ele><time>2026-05-01T11:06:37.057Z</time></trkpt><trkpt lat="41.7881137" lon="13.2209172"><ele>598.0</ele><time>2026-05-01T11:06:38.056Z</time></trkpt><trkpt lat="41.7880435" lon="13.2208233"><ele>598.0</ele><time>2026-05-01T11:06:39.057Z</time></trkpt><trkpt lat="41.7878871" lon="13.2209349"><ele>598.0</ele><time>2026-05-01T11:06:40.057Z</time></trkpt><trkpt lat="41.7877755" lon="13.220908"><ele>598.0</ele><time>2026-05-01T11:06:41.057Z</time></trkpt><trkpt lat="41.7876401" lon="13.2208968"><ele>598.0</ele><time>2026-05-01T11:06:42.057Z</time></trkpt><trkpt lat="41.7875094" lon="13.2208835"><ele>598.0</ele><time>2026-05-01T11:06:43.057Z</time></trkpt><trkpt lat="41.7873804" lon="13.2208676"><ele>597.0</ele><time>2026-05-01T11:06:44.057Z</time></trkpt><trkpt lat="41.7872518" lon="13.2208957"><ele>596.0</ele><time>2026-05-01T11:06:45.056Z</time></trkpt><trkpt lat="41.7871181" lon="13.2209302"><ele>595.0</ele><time>2026-05-01T11:06:46.057Z</time></trkpt><trkpt lat="41.7869807" lon="13.2209695"><ele>594.0</ele><time>2026-05-01T11:06:47.057Z</time></trkpt><trkpt lat="41.786838" lon="13.2210084"><ele>592.6666666666666</ele><time>2026-05-01T11:06:48.057Z</time></trkpt><trkpt lat="41.7866896" lon="13.2210521"><ele>591.3333333333333</ele><time>2026-05-01T11:06:49.057Z</time></trkpt><trkpt lat="41.7865388" lon="13.2210912"><ele>590.0</ele><time>2026-05-01T11:06:50.057Z</time></trkpt><trkpt lat="41.7863838" lon="13.2211192"><ele>590.0</ele><time>2026-05-01T11:06:51.057Z</time></trkpt><trkpt lat="41.7862271" lon="13.2211341"><ele>590.0</ele><time>2026-05-01T11:06:52.057Z</time></trkpt><trkpt lat="41.7860679" lon="13.2211694"><ele>590.0</ele><time>2026-05-01T11:06:53.057Z</time></trkpt><trkpt lat="41.7859098" lon="13.2212109"><ele>591.3333333333333</ele><time>2026-05-01T11:06:54.057Z</time></trkpt><trkpt lat="41.7857463" lon="13.2212721"><ele>592.6666666666666</ele><time>2026-05-01T11:06:55.057Z</time></trkpt><trkpt lat="41.7855846" lon="13.2213381"><ele>594.0</ele><time>2026-05-01T11:06:56.057Z</time></trkpt><trkpt lat="41.7854315" lon="13.2214023"><ele>594.0</ele><time>2026-05-01T11:06:57.057Z</time></trkpt><trkpt lat="41.7852854" lon="13.221457"><ele>594.0</ele><time>2026-05-01T11:06:58.057Z</time></trkpt><trkpt lat="41.7851449" lon="13.2215016"><ele>594.0</ele><time>2026-05-01T11:06:59.056Z</time></trkpt><trkpt lat="41.7850099" lon="13.2215325"><ele>594.0</ele><time>2026-05-01T11:07:00.057Z</time></trkpt><trkpt lat="41.7848798" lon="13.2215386"><ele>593.6</ele><time>2026-05-01T11:07:01.057Z</time></trkpt><trkpt lat="41.7847539" lon="13.2215152"><ele>593.2</ele><time>2026-05-01T11:07:02.057Z</time></trkpt><trkpt lat="41.7846366" lon="13.2214743"><ele>592.8000000000001</ele><time>2026-05-01T11:07:03.056Z</time></trkpt><trkpt lat="41.7845344" lon="13.2214316"><ele>592.4</ele><time>2026-05-01T11:07:04.057Z</time></trkpt><trkpt lat="41.7844509" lon="13.221402"><ele>592.0</ele><time>2026-05-01T11:07:05.057Z</time></trkpt><trkpt lat="41.7843568" lon="13.2213703"><ele>590.3333333333334</ele><time>2026-05-01T11:07:07.056Z</time></trkpt><trkpt lat="41.7842701" lon="13.2213371"><ele>588.6666666666667</ele><time>2026-05-01T11:08:02.057Z</time></trkpt><trkpt lat="41.7842002" lon="13.2213292"><ele>587.0</ele><time>2026-05-01T11:08:03.057Z</time></trkpt><trkpt lat="41.7841209" lon="13.2213195"><ele>585.3333333333334</ele><time>2026-05-01T11:08:04.057Z</time></trkpt><trkpt lat="41.7840235" lon="13.2213265"><ele>583.6666666666666</ele><time>2026-05-01T11:08:05.057Z</time></trkpt><trkpt lat="41.7839179" lon="13.2213764"><ele>582.0</ele><time>2026-05-01T11:08:06.057Z</time></trkpt><trkpt lat="41.7838186" lon="13.2214431"><ele>582.2</ele><time>2026-05-01T11:08:07.057Z</time></trkpt><trkpt lat="41.7837159" lon="13.2215129"><ele>582.4000000000001</ele><time>2026-05-01T11:08:08.057Z</time></trkpt><trkpt lat="41.7836134" lon="13.2215851"><ele>582.5999999999999</ele><time>2026-05-01T11:08:09.057Z</time></trkpt><trkpt lat="41.7835266" lon="13.2216614"><ele>582.8</ele><time>2026-05-01T11:08:10.057Z</time></trkpt><trkpt lat="41.7834546" lon="13.22175"><ele>583.0</ele><time>2026-05-01T11:08:11.057Z</time></trkpt><trkpt lat="41.78339" lon="13.221844"><ele>583.0</ele><time>2026-05-01T11:08:12.057Z</time></trkpt><trkpt lat="41.7833212" lon="13.2219472"><ele>583.0</ele><time>2026-05-01T11:08:13.057Z</time></trkpt><trkpt lat="41.7832515" lon="13.222058"><ele>583.0</ele><time>2026-05-01T11:08:14.057Z</time></trkpt><trkpt lat="41.7831867" lon="13.2221511"><ele>583.0</ele><time>2026-05-01T11:08:15.057Z</time></trkpt><trkpt lat="41.7831047" lon="13.2222248"><ele>583.0</ele><time>2026-05-01T11:08:16.056Z</time></trkpt><trkpt lat="41.7830079" lon="13.2222789"><ele>583.0</ele><time>2026-05-01T11:08:17.056Z</time></trkpt><trkpt lat="41.7829011" lon="13.2223059"><ele>583.0</ele><time>2026-05-01T11:08:18.057Z</time></trkpt><trkpt lat="41.7827941" lon="13.2222934"><ele>583.0</ele><time>2026-05-01T11:08:19.056Z</time></trkpt><trkpt lat="41.7827006" lon="13.2222376"><ele>583.0</ele><time>2026-05-01T11:08:20.057Z</time></trkpt><trkpt lat="41.7826206" lon="13.2221501"><ele>583.0</ele><time>2026-05-01T11:08:21.057Z</time></trkpt><trkpt lat="41.7825561" lon="13.2220199"><ele>583.25</ele><time>2026-05-01T11:08:22.056Z</time></trkpt><trkpt lat="41.7825117" lon="13.2218621"><ele>583.5</ele><time>2026-05-01T11:08:23.057Z</time></trkpt><trkpt lat="41.782478" lon="13.2216816"><ele>583.75</ele><time>2026-05-01T11:08:24.057Z</time></trkpt><trkpt lat="41.7824396" lon="13.2214707"><ele>584.0</ele><time>2026-05-01T11:08:25.057Z</time></trkpt><trkpt lat="41.7823866" lon="13.221243"><ele>583.0</ele><time>2026-05-01T11:08:26.057Z</time></trkpt><trkpt lat="41.7823221" lon="13.221003"><ele>582.0</ele><time>2026-05-01T11:08:27.057Z</time></trkpt><trkpt lat="41.7822475" lon="13.2207598"><ele>581.0</ele><time>2026-05-01T11:08:28.057Z</time></trkpt><trkpt lat="41.7821555" lon="13.2205127"><ele>581.3333333333333</ele><time>2026-05-01T11:08:29.057Z</time></trkpt><trkpt lat="41.7820478" lon="13.2202593"><ele>581.6666666666666</ele><time>2026-05-01T11:08:30.057Z</time></trkpt><trkpt lat="41.7819179" lon="13.2200046"><ele>582.0</ele><time>2026-05-01T11:08:31.057Z</time></trkpt><trkpt lat="41.7817672" lon="13.2197491"><ele>582.0</ele><time>2026-05-01T11:08:32.057Z</time></trkpt><trkpt lat="41.7816168" lon="13.2194979"><ele>582.0</ele><time>2026-05-01T11:08:33.057Z</time></trkpt><trkpt lat="41.7814615" lon="13.2192381"><ele>581.0</ele><time>2026-05-01T11:08:34.057Z</time></trkpt><trkpt lat="41.7812998" lon="13.2189741"><ele>580.0</ele><time>2026-05-01T11:08:35.056Z</time></trkpt><trkpt lat="41.7811381" lon="13.2187018"><ele>576.0</ele><time>2026-05-01T11:08:36.057Z</time></trkpt><trkpt lat="41.7809824" lon="13.218436"><ele>572.0</ele><time>2026-05-01T11:08:37.057Z</time></trkpt><trkpt lat="41.7808264" lon="13.2181682"><ele>574.0</ele><time>2026-05-01T11:08:38.057Z</time></trkpt><trkpt lat="41.7806749" lon="13.217895"><ele>576.0</ele><time>2026-05-01T11:08:39.057Z</time></trkpt><trkpt lat="41.7805234" lon="13.2176234"><ele>576.0</ele><time>2026-05-01T11:08:40.057Z</time></trkpt><trkpt lat="41.7803739" lon="13.2173521"><ele>576.0</ele><time>2026-05-01T11:08:41.057Z</time></trkpt><trkpt lat="41.7802259" lon="13.2170823"><ele>580.0</ele><time>2026-05-01T11:08:42.056Z</time></trkpt><trkpt lat="41.7800796" lon="13.2168113"><ele>584.0</ele><time>2026-05-01T11:08:43.057Z</time></trkpt><trkpt lat="41.7799324" lon="13.216541"><ele>584.0</ele><time>2026-05-01T11:08:44.057Z</time></trkpt><trkpt lat="41.7797844" lon="13.2162686"><ele>584.0</ele><time>2026-05-01T11:08:45.056Z</time></trkpt><trkpt lat="41.7796362" lon="13.2159949"><ele>584.0</ele><time>2026-05-01T11:08:46.057Z</time></trkpt><trkpt lat="41.7794877" lon="13.2157214"><ele>584.0</ele><time>2026-05-01T11:08:47.057Z</time></trkpt><trkpt lat="41.7793371" lon="13.2154478"><ele>582.5</ele><time>2026-05-01T11:08:48.057Z</time></trkpt><trkpt lat="41.7791863" lon="13.2151742"><ele>581.0</ele><time>2026-05-01T11:08:49.057Z</time></trkpt><trkpt lat="41.7790327" lon="13.2149012"><ele>577.5</ele><time>2026-05-01T11:08:50.057Z</time></trkpt><trkpt lat="41.7788789" lon="13.2146263"><ele>574.0</ele><time>2026-05-01T11:08:51.057Z</time></trkpt><trkpt lat="41.7787299" lon="13.2143454"><ele>574.0</ele><time>2026-05-01T11:08:52.057Z</time></trkpt><trkpt lat="41.7785797" lon="13.2140714"><ele>574.0</ele><time>2026-05-01T11:08:53.056Z</time></trkpt><trkpt lat="41.7784297" lon="13.2137973"><ele>569.0</ele><time>2026-05-01T11:08:54.056Z</time></trkpt><trkpt lat="41.7782819" lon="13.2135218"><ele>564.0</ele><time>2026-05-01T11:08:55.057Z</time></trkpt><trkpt lat="41.7781328" lon="13.2132502"><ele>562.5</ele><time>2026-05-01T11:08:56.057Z</time></trkpt><trkpt lat="41.7779836" lon="13.2129803"><ele>561.0</ele><time>2026-05-01T11:08:57.056Z</time></trkpt><trkpt lat="41.7778391" lon="13.2127075"><ele>561.0</ele><time>2026-05-01T11:08:58.056Z</time></trkpt><trkpt lat="41.7776965" lon="13.212435"><ele>561.0</ele><time>2026-05-01T11:08:59.057Z</time></trkpt><trkpt lat="41.7775592" lon="13.2121591"><ele>561.5</ele><time>2026-05-01T11:09:00.056Z</time></trkpt><trkpt lat="41.7774283" lon="13.2118791"><ele>562.0</ele><time>2026-05-01T11:09:01.056Z</time></trkpt><trkpt lat="41.7773061" lon="13.2115932"><ele>562.5</ele><time>2026-05-01T11:09:02.057Z</time></trkpt><trkpt lat="41.7771928" lon="13.2113013"><ele>563.0</ele><time>2026-05-01T11:09:03.057Z</time></trkpt><trkpt lat="41.7770869" lon="13.2110052"><ele>563.0</ele><time>2026-05-01T11:09:04.057Z</time></trkpt><trkpt lat="41.7769863" lon="13.2107068"><ele>563.0</ele><time>2026-05-01T11:09:05.057Z</time></trkpt><trkpt lat="41.7768878" lon="13.2104071"><ele>563.0</ele><time>2026-05-01T11:09:06.057Z</time></trkpt><trkpt lat="41.7767949" lon="13.2101048"><ele>563.0</ele><time>2026-05-01T11:09:07.057Z</time></trkpt><trkpt lat="41.7767097" lon="13.2097991"><ele>564.0</ele><time>2026-05-01T11:09:08.056Z</time></trkpt><trkpt lat="41.7766335" lon="13.2094916"><ele>565.0</ele><time>2026-05-01T11:09:09.056Z</time></trkpt><trkpt lat="41.7765648" lon="13.2091838"><ele>566.5</ele><time>2026-05-01T11:09:10.057Z</time></trkpt><trkpt lat="41.7764982" lon="13.2088788"><ele>568.0</ele><time>2026-05-01T11:09:11.056Z</time></trkpt><trkpt lat="41.7764377" lon="13.208573"><ele>568.0</ele><time>2026-05-01T11:09:12.057Z</time></trkpt><trkpt lat="41.7763849" lon="13.2082647"><ele>568.0</ele><time>2026-05-01T11:09:13.057Z</time></trkpt><trkpt lat="41.7763397" lon="13.2079528"><ele>571.5</ele><time>2026-05-01T11:09:14.057Z</time></trkpt><trkpt lat="41.776296" lon="13.207634"><ele>575.0</ele><time>2026-05-01T11:09:15.057Z</time></trkpt><trkpt lat="41.7762539" lon="13.2073126"><ele>577.0</ele><time>2026-05-01T11:09:16.057Z</time></trkpt><trkpt lat="41.7762124" lon="13.2069897"><ele>579.0</ele><time>2026-05-01T11:09:17.057Z</time></trkpt><trkpt lat="41.7761709" lon="13.2066665"><ele>582.0</ele><time>2026-05-01T11:09:18.057Z</time></trkpt><trkpt lat="41.7761283" lon="13.206344"><ele>585.0</ele><time>2026-05-01T11:09:19.057Z</time></trkpt><trkpt lat="41.7760872" lon="13.2060206"><ele>585.0</ele><time>2026-05-01T11:09:20.056Z</time></trkpt><trkpt lat="41.7760473" lon="13.2056986"><ele>585.0</ele><time>2026-05-01T11:09:21.057Z</time></trkpt><trkpt lat="41.7760111" lon="13.2053767"><ele>581.5</ele><time>2026-05-01T11:09:22.057Z</time></trkpt><trkpt lat="41.7759815" lon="13.2050545"><ele>578.0</ele><time>2026-05-01T11:09:23.056Z</time></trkpt><trkpt lat="41.7759602" lon="13.2047318"><ele>578.0</ele><time>2026-05-01T11:09:24.057Z</time></trkpt><trkpt lat="41.7759476" lon="13.204408"><ele>578.0</ele><time>2026-05-01T11:09:25.056Z</time></trkpt><trkpt lat="41.7759442" lon="13.2040832"><ele>578.5</ele><time>2026-05-01T11:09:26.056Z</time></trkpt><trkpt lat="41.7759512" lon="13.2037589"><ele>579.0</ele><time>2026-05-01T11:09:27.057Z</time></trkpt><trkpt lat="41.7759677" lon="13.2034355"><ele>580.5</ele><time>2026-05-01T11:09:28.057Z</time></trkpt><trkpt lat="41.7759963" lon="13.2031129"><ele>582.0</ele><time>2026-05-01T11:09:29.057Z</time></trkpt><trkpt lat="41.7760328" lon="13.2027906"><ele>583.0</ele><time>2026-05-01T11:09:30.057Z</time></trkpt><trkpt lat="41.7760723" lon="13.2024661"><ele>584.0</ele><time>2026-05-01T11:09:31.057Z</time></trkpt><trkpt lat="41.776114" lon="13.2021393"><ele>587.0</ele><time>2026-05-01T11:09:32.057Z</time></trkpt><trkpt lat="41.7761558" lon="13.2018115"><ele>590.0</ele><time>2026-05-01T11:09:33.057Z</time></trkpt><trkpt lat="41.7761987" lon="13.2014828"><ele>593.0</ele><time>2026-05-01T11:09:34.057Z</time></trkpt><trkpt lat="41.7762418" lon="13.2011518"><ele>596.0</ele><time>2026-05-01T11:09:35.057Z</time></trkpt><trkpt lat="41.7762844" lon="13.2008156"><ele>600.5</ele><time>2026-05-01T11:09:36.057Z</time></trkpt><trkpt lat="41.7763289" lon="13.2004756"><ele>605.0</ele><time>2026-05-01T11:09:37.057Z</time></trkpt><trkpt lat="41.7763738" lon="13.2001354"><ele>614.5</ele><time>2026-05-01T11:09:38.056Z</time></trkpt><trkpt lat="41.7764212" lon="13.1997945"><ele>624.0</ele><time>2026-05-01T11:09:39.057Z</time></trkpt><trkpt lat="41.776469" lon="13.199467"><ele>624.0</ele><time>2026-05-01T11:09:40.056Z</time></trkpt><trkpt lat="41.7765167" lon="13.1991372"><ele>624.0</ele><time>2026-05-01T11:09:41.057Z</time></trkpt><trkpt lat="41.7765644" lon="13.1988091"><ele>576.0</ele><time>2026-05-01T11:09:42.056Z</time></trkpt><trkpt lat="41.7775333" lon="13.1912298"><ele>576.0</ele><time>2026-05-01T11:10:09.056Z</time></trkpt><trkpt lat="41.7775801" lon="13.190971"><ele>576.0</ele><time>2026-05-01T11:10:10.057Z</time></trkpt><trkpt lat="41.7776265" lon="13.1906805"><ele>576.0</ele><time>2026-05-01T11:10:11.056Z</time></trkpt><trkpt lat="41.7776871" lon="13.1903892"><ele>580.0</ele><time>2026-05-01T11:10:12.056Z</time></trkpt><trkpt lat="41.7777601" lon="13.1900873"><ele>584.0</ele><time>2026-05-01T11:10:13.057Z</time></trkpt><trkpt lat="41.7778419" lon="13.1897841"><ele>573.5</ele><time>2026-05-01T11:10:14.057Z</time></trkpt><trkpt lat="41.7779359" lon="13.1894788"><ele>563.0</ele><time>2026-05-01T11:10:15.057Z</time></trkpt><trkpt lat="41.7780355" lon="13.1891703"><ele>556.5</ele><time>2026-05-01T11:10:16.057Z</time></trkpt><trkpt lat="41.778141" lon="13.1888615"><ele>550.0</ele><time>2026-05-01T11:10:17.057Z</time></trkpt><trkpt lat="41.7782562" lon="13.188552"><ele>550.0</ele><time>2026-05-01T11:10:18.057Z</time></trkpt><trkpt lat="41.7783822" lon="13.1882498"><ele>550.0</ele><time>2026-05-01T11:10:19.057Z</time></trkpt><trkpt lat="41.7785112" lon="13.1879519"><ele>549.0</ele><time>2026-05-01T11:10:20.056Z</time></trkpt><trkpt lat="41.7786343" lon="13.1876586"><ele>548.0</ele><time>2026-05-01T11:10:21.057Z</time></trkpt><trkpt lat="41.7787581" lon="13.1873697"><ele>545.5</ele><time>2026-05-01T11:10:22.057Z</time></trkpt><trkpt lat="41.7788807" lon="13.187081"><ele>543.0</ele><time>2026-05-01T11:10:23.057Z</time></trkpt><trkpt lat="41.7790045" lon="13.1867913"><ele>539.0</ele><time>2026-05-01T11:10:24.057Z</time></trkpt><trkpt lat="41.7791287" lon="13.1865047"><ele>535.0</ele><time>2026-05-01T11:10:25.056Z</time></trkpt><trkpt lat="41.7792482" lon="13.1862237"><ele>535.5</ele><time>2026-05-01T11:10:26.056Z</time></trkpt><trkpt lat="41.7793655" lon="13.1859442"><ele>536.0</ele><time>2026-05-01T11:10:27.056Z</time></trkpt><trkpt lat="41.779483" lon="13.1856635"><ele>536.0</ele><time>2026-05-01T11:10:28.057Z</time></trkpt><trkpt lat="41.7796003" lon="13.1853846"><ele>536.0</ele><time>2026-05-01T11:10:29.057Z</time></trkpt><trkpt lat="41.7797185" lon="13.1851051"><ele>529.0</ele><time>2026-05-01T11:10:30.057Z</time></trkpt><trkpt lat="41.7798348" lon="13.1848223"><ele>522.0</ele><time>2026-05-01T11:10:31.057Z</time></trkpt><trkpt lat="41.7799504" lon="13.1845389"><ele>522.0</ele><time>2026-05-01T11:10:32.056Z</time></trkpt><trkpt lat="41.7800744" lon="13.1842564"><ele>522.0</ele><time>2026-05-01T11:10:33.056Z</time></trkpt><trkpt lat="41.7802039" lon="13.1839743"><ele>530.0</ele><time>2026-05-01T11:10:34.057Z</time></trkpt><trkpt lat="41.7803429" lon="13.1836968"><ele>538.0</ele><time>2026-05-01T11:10:35.057Z</time></trkpt><trkpt lat="41.7804936" lon="13.1834323"><ele>527.0</ele><time>2026-05-01T11:10:36.056Z</time></trkpt><trkpt lat="41.7806608" lon="13.1831771"><ele>516.0</ele><time>2026-05-01T11:10:37.056Z</time></trkpt><trkpt lat="41.780834" lon="13.1829261"><ele>516.0</ele><time>2026-05-01T11:10:38.057Z</time></trkpt><trkpt lat="41.7810098" lon="13.1826776"><ele>516.0</ele><time>2026-05-01T11:10:39.057Z</time></trkpt><trkpt lat="41.7811841" lon="13.182429"><ele>512.0</ele><time>2026-05-01T11:10:40.057Z</time></trkpt><trkpt lat="41.7813579" lon="13.1821777"><ele>508.0</ele><time>2026-05-01T11:10:41.057Z</time></trkpt><trkpt lat="41.7815314" lon="13.1819314"><ele>508.0</ele><time>2026-05-01T11:10:42.057Z</time></trkpt><trkpt lat="41.7817035" lon="13.181683"><ele>508.0</ele><time>2026-05-01T11:10:43.057Z</time></trkpt><trkpt lat="41.7818727" lon="13.1814346"><ele>521.5</ele><time>2026-05-01T11:10:44.057Z</time></trkpt><trkpt lat="41.7820337" lon="13.1811807"><ele>535.0</ele><time>2026-05-01T11:10:45.056Z</time></trkpt><trkpt lat="41.7821814" lon="13.1809134"><ele>529.5</ele><time>2026-05-01T11:10:46.056Z</time></trkpt><trkpt lat="41.782316" lon="13.1806359"><ele>524.0</ele><time>2026-05-01T11:10:47.057Z</time></trkpt><trkpt lat="41.7824407" lon="13.1803503"><ele>524.0</ele><time>2026-05-01T11:10:48.056Z</time></trkpt><trkpt lat="41.782559" lon="13.1800569"><ele>524.0</ele><time>2026-05-01T11:10:49.056Z</time></trkpt><trkpt lat="41.7826749" lon="13.1797598"><ele>532.0</ele><time>2026-05-01T11:10:50.057Z</time></trkpt><trkpt lat="41.7827887" lon="13.1794601"><ele>540.0</ele><time>2026-05-01T11:10:51.057Z</time></trkpt><trkpt lat="41.7829013" lon="13.1791557"><ele>531.0</ele><time>2026-05-01T11:10:52.057Z</time></trkpt><trkpt lat="41.7830109" lon="13.1788463"><ele>522.0</ele><time>2026-05-01T11:10:53.057Z</time></trkpt><trkpt lat="41.7831124" lon="13.1785285"><ele>522.0</ele><time>2026-05-01T11:10:54.056Z</time></trkpt><trkpt lat="41.7832031" lon="13.1782018"><ele>522.0</ele><time>2026-05-01T11:10:55.057Z</time></trkpt><trkpt lat="41.7832843" lon="13.1778682"><ele>514.5</ele><time>2026-05-01T11:10:56.056Z</time></trkpt><trkpt lat="41.7833572" lon="13.1775288"><ele>507.0</ele><time>2026-05-01T11:10:57.057Z</time></trkpt><trkpt lat="41.7834225" lon="13.1771849"><ele>501.5</ele><time>2026-05-01T11:10:58.057Z</time></trkpt><trkpt lat="41.7834825" lon="13.1768366"><ele>496.0</ele><time>2026-05-01T11:10:59.057Z</time></trkpt><trkpt lat="41.7835409" lon="13.1764872"><ele>510.5</ele><time>2026-05-01T11:11:00.057Z</time></trkpt><trkpt lat="41.7835997" lon="13.176135"><ele>525.0</ele><time>2026-05-01T11:11:01.057Z</time></trkpt><trkpt lat="41.7836583" lon="13.1757807"><ele>521.0</ele><time>2026-05-01T11:11:02.056Z</time></trkpt><trkpt lat="41.7837179" lon="13.1754263"><ele>517.0</ele><time>2026-05-01T11:11:03.057Z</time></trkpt><trkpt lat="41.7837779" lon="13.1750717"><ele>512.5</ele><time>2026-05-01T11:11:04.057Z</time></trkpt><trkpt lat="41.7838388" lon="13.1747162"><ele>508.0</ele><time>2026-05-01T11:11:05.057Z</time></trkpt><trkpt lat="41.783905" lon="13.174362"><ele>501.0</ele><time>2026-05-01T11:11:06.057Z</time></trkpt><trkpt lat="41.7839808" lon="13.1740122"><ele>494.0</ele><time>2026-05-01T11:11:07.057Z</time></trkpt><trkpt lat="41.784072" lon="13.1736705"><ele>494.0</ele><time>2026-05-01T11:11:08.056Z</time></trkpt><trkpt lat="41.7841774" lon="13.1733396"><ele>494.0</ele><time>2026-05-01T11:11:09.057Z</time></trkpt><trkpt lat="41.7842973" lon="13.1730177"><ele>501.0</ele><time>2026-05-01T11:11:10.057Z</time></trkpt><trkpt lat="41.7844299" lon="13.1727077"><ele>508.0</ele><time>2026-05-01T11:11:11.057Z</time></trkpt><trkpt lat="41.7845753" lon="13.1724092"><ele>497.5</ele><time>2026-05-01T11:11:12.057Z</time></trkpt><trkpt lat="41.7847303" lon="13.1721225"><ele>487.0</ele><time>2026-05-01T11:11:13.056Z</time></trkpt><trkpt lat="41.784893" lon="13.1718445"><ele>487.0</ele><time>2026-05-01T11:11:14.057Z</time></trkpt><trkpt lat="41.7850512" lon="13.1715693"><ele>487.0</ele><time>2026-05-01T11:11:15.057Z</time></trkpt><trkpt lat="41.7852024" lon="13.1712911"><ele>485.5</ele><time>2026-05-01T11:11:16.057Z</time></trkpt><trkpt lat="41.7853423" lon="13.1710023"><ele>484.0</ele><time>2026-05-01T11:11:17.057Z</time></trkpt><trkpt lat="41.785468" lon="13.1707028"><ele>479.5</ele><time>2026-05-01T11:11:18.057Z</time></trkpt><trkpt lat="41.7855764" lon="13.1703896"><ele>475.0</ele><time>2026-05-01T11:11:19.057Z</time></trkpt><trkpt lat="41.785671" lon="13.1700695"><ele>474.0</ele><time>2026-05-01T11:11:20.057Z</time></trkpt><trkpt lat="41.785748" lon="13.1697391"><ele>473.0</ele><time>2026-05-01T11:11:21.056Z</time></trkpt><trkpt lat="41.7858047" lon="13.1694047"><ele>473.0</ele><time>2026-05-01T11:11:22.057Z</time></trkpt><trkpt lat="41.7858477" lon="13.1690716"><ele>473.0</ele><time>2026-05-01T11:11:23.057Z</time></trkpt><trkpt lat="41.7858823" lon="13.1687469"><ele>471.5</ele><time>2026-05-01T11:11:24.056Z</time></trkpt><trkpt lat="41.7859124" lon="13.1684267"><ele>470.0</ele><time>2026-05-01T11:11:25.057Z</time></trkpt><trkpt lat="41.7859412" lon="13.1681141"><ele>467.0</ele><time>2026-05-01T11:11:26.057Z</time></trkpt><trkpt lat="41.7859671" lon="13.1678044"><ele>464.0</ele><time>2026-05-01T11:11:27.057Z</time></trkpt><trkpt lat="41.7859907" lon="13.1674939"><ele>481.0</ele><time>2026-05-01T11:11:28.057Z</time></trkpt><trkpt lat="41.7860142" lon="13.1671811"><ele>498.0</ele><time>2026-05-01T11:11:29.057Z</time></trkpt><trkpt lat="41.7860384" lon="13.1668673"><ele>498.0</ele><time>2026-05-01T11:11:30.057Z</time></trkpt><trkpt lat="41.7860654" lon="13.1665537"><ele>498.0</ele><time>2026-05-01T11:11:31.056Z</time></trkpt><trkpt lat="41.7860913" lon="13.1662398"><ele>493.5</ele><time>2026-05-01T11:11:32.057Z</time></trkpt><trkpt lat="41.7861175" lon="13.1659226"><ele>489.0</ele><time>2026-05-01T11:11:33.057Z</time></trkpt><trkpt lat="41.7861447" lon="13.1656032"><ele>484.5</ele><time>2026-05-01T11:11:34.057Z</time></trkpt><trkpt lat="41.7861792" lon="13.1652856"><ele>480.0</ele><time>2026-05-01T11:11:35.057Z</time></trkpt><trkpt lat="41.7862245" lon="13.1649694"><ele>472.0</ele><time>2026-05-01T11:11:36.056Z</time></trkpt><trkpt lat="41.7862829" lon="13.1646545"><ele>464.0</ele><time>2026-05-01T11:11:37.057Z</time></trkpt><trkpt lat="41.7863542" lon="13.1643415"><ele>464.0</ele><time>2026-05-01T11:11:38.057Z</time></trkpt><trkpt lat="41.7864377" lon="13.1640343"><ele>464.0</ele><time>2026-05-01T11:11:39.057Z</time></trkpt><trkpt lat="41.7865282" lon="13.1637299"><ele>455.5</ele><time>2026-05-01T11:11:40.056Z</time></trkpt><trkpt lat="41.7866165" lon="13.1634303"><ele>447.0</ele><time>2026-05-01T11:11:41.057Z</time></trkpt><trkpt lat="41.7866942" lon="13.1631631"><ele>449.33333333333337</ele><time>2026-05-01T11:11:42.057Z</time></trkpt><trkpt lat="41.7867625" lon="13.1629309"><ele>451.6666666666667</ele><time>2026-05-01T11:11:43.057Z</time></trkpt><trkpt lat="41.786827" lon="13.1627132"><ele>454.0</ele><time>2026-05-01T11:11:44.056Z</time></trkpt><trkpt lat="41.7868915" lon="13.1624956"><ele>453.33333333333337</ele><time>2026-05-01T11:11:45.057Z</time></trkpt><trkpt lat="41.7869535" lon="13.1622835"><ele>452.66666666666663</ele><time>2026-05-01T11:11:46.057Z</time></trkpt><trkpt lat="41.7870132" lon="13.1620784"><ele>452.0</ele><time>2026-05-01T11:11:47.057Z</time></trkpt><trkpt lat="41.7870723" lon="13.1618756"><ele>452.0</ele><time>2026-05-01T11:11:48.057Z</time></trkpt><trkpt lat="41.7871331" lon="13.1616713"><ele>452.0</ele><time>2026-05-01T11:11:49.057Z</time></trkpt><trkpt lat="41.7871967" lon="13.161463"><ele>452.0</ele><time>2026-05-01T11:11:50.056Z</time></trkpt><trkpt lat="41.7872603" lon="13.1612487"><ele>449.66666666666663</ele><time>2026-05-01T11:11:51.057Z</time></trkpt><trkpt lat="41.7873234" lon="13.1610297"><ele>447.33333333333337</ele><time>2026-05-01T11:11:52.057Z</time></trkpt><trkpt lat="41.7873885" lon="13.1608122"><ele>445.0</ele><time>2026-05-01T11:11:53.057Z</time></trkpt><trkpt lat="41.7874522" lon="13.1606043"><ele>441.0</ele><time>2026-05-01T11:11:54.056Z</time></trkpt><trkpt lat="41.7875133" lon="13.1604032"><ele>437.0</ele><time>2026-05-01T11:11:55.057Z</time></trkpt><trkpt lat="41.7875716" lon="13.1601982"><ele>433.0</ele><time>2026-05-01T11:11:56.056Z</time></trkpt><trkpt lat="41.7876326" lon="13.1599883"><ele>438.33333333333337</ele><time>2026-05-01T11:11:57.057Z</time></trkpt><trkpt lat="41.7876968" lon="13.1597735"><ele>443.66666666666663</ele><time>2026-05-01T11:11:58.057Z</time></trkpt><trkpt lat="41.7877622" lon="13.1595487"><ele>449.0</ele><time>2026-05-01T11:11:59.056Z</time></trkpt><trkpt lat="41.7878263" lon="13.1593155"><ele>449.0</ele><time>2026-05-01T11:12:00.056Z</time></trkpt><trkpt lat="41.7878942" lon="13.1590789"><ele>449.0</ele><time>2026-05-01T11:12:01.056Z</time></trkpt><trkpt lat="41.7879663" lon="13.1588391"><ele>449.0</ele><time>2026-05-01T11:12:02.057Z</time></trkpt><trkpt lat="41.7880397" lon="13.1585972"><ele>443.3333333333333</ele><time>2026-05-01T11:12:03.057Z</time></trkpt><trkpt lat="41.7881125" lon="13.1583511"><ele>437.66666666666663</ele><time>2026-05-01T11:12:04.057Z</time></trkpt><trkpt lat="41.7881828" lon="13.1580992"><ele>432.0</ele><time>2026-05-01T11:12:05.057Z</time></trkpt><trkpt lat="41.7882535" lon="13.1578473"><ele>429.0</ele><time>2026-05-01T11:12:06.057Z</time></trkpt><trkpt lat="41.7883271" lon="13.1575945"><ele>426.0</ele><time>2026-05-01T11:12:07.057Z</time></trkpt><trkpt lat="41.7884026" lon="13.1573437"><ele>423.0</ele><time>2026-05-01T11:12:08.057Z</time></trkpt><trkpt lat="41.7884893" lon="13.1570903"><ele>421.66666666666663</ele><time>2026-05-01T11:12:09.057Z</time></trkpt><trkpt lat="41.7885835" lon="13.1568374"><ele>420.3333333333333</ele><time>2026-05-01T11:12:10.056Z</time></trkpt><trkpt lat="41.7886879" lon="13.1565864"><ele>419.0</ele><time>2026-05-01T11:12:11.056Z</time></trkpt><trkpt lat="41.7888032" lon="13.1563401"><ele>419.0</ele><time>2026-05-01T11:12:12.057Z</time></trkpt><trkpt lat="41.7889274" lon="13.1560995"><ele>419.0</ele><time>2026-05-01T11:12:13.057Z</time></trkpt><trkpt lat="41.7890558" lon="13.1558581"><ele>419.0</ele><time>2026-05-01T11:12:14.056Z</time></trkpt><trkpt lat="41.7891825" lon="13.1556135"><ele>421.0</ele><time>2026-05-01T11:12:15.057Z</time></trkpt><trkpt lat="41.7893068" lon="13.155368"><ele>423.0</ele><time>2026-05-01T11:12:16.057Z</time></trkpt><trkpt lat="41.789431" lon="13.1551245"><ele>425.0</ele><time>2026-05-01T11:12:17.057Z</time></trkpt><trkpt lat="41.789556" lon="13.1548824"><ele>421.0</ele><time>2026-05-01T11:12:18.057Z</time></trkpt><trkpt lat="41.7896829" lon="13.1546435"><ele>417.0</ele><time>2026-05-01T11:12:19.057Z</time></trkpt><trkpt lat="41.7898104" lon="13.154409"><ele>413.0</ele><time>2026-05-01T11:12:20.057Z</time></trkpt><trkpt lat="41.7899341" lon="13.1541724"><ele>416.3333333333333</ele><time>2026-05-01T11:12:21.057Z</time></trkpt><trkpt lat="41.7900533" lon="13.1539331"><ele>419.66666666666663</ele><time>2026-05-01T11:12:22.057Z</time></trkpt><trkpt lat="41.790165" lon="13.1536909"><ele>423.0</ele><time>2026-05-01T11:12:23.057Z</time></trkpt><trkpt lat="41.7902667" lon="13.1534436"><ele>419.66666666666663</ele><time>2026-05-01T11:12:24.056Z</time></trkpt><trkpt lat="41.7903571" lon="13.1531906"><ele>416.3333333333333</ele><time>2026-05-01T11:12:25.057Z</time></trkpt><trkpt lat="41.7904323" lon="13.1529283"><ele>413.0</ele><time>2026-05-01T11:12:26.056Z</time></trkpt><trkpt lat="41.790495" lon="13.152659"><ele>413.0</ele><time>2026-05-01T11:12:27.057Z</time></trkpt><trkpt lat="41.7905486" lon="13.1523836"><ele>413.0</ele><time>2026-05-01T11:12:28.057Z</time></trkpt><trkpt lat="41.7906016" lon="13.1521056"><ele>413.0</ele><time>2026-05-01T11:12:29.057Z</time></trkpt><trkpt lat="41.7906579" lon="13.1518286"><ele>409.3333333333333</ele><time>2026-05-01T11:12:30.056Z</time></trkpt><trkpt lat="41.7907217" lon="13.1515533"><ele>405.66666666666663</ele><time>2026-05-01T11:12:31.057Z</time></trkpt><trkpt lat="41.7907898" lon="13.1512787"><ele>402.0</ele><time>2026-05-01T11:12:32.057Z</time></trkpt><trkpt lat="41.7908644" lon="13.1510053"><ele>404.0</ele><time>2026-05-01T11:12:33.057Z</time></trkpt><trkpt lat="41.7909492" lon="13.1507378"><ele>406.0</ele><time>2026-05-01T11:12:34.057Z</time></trkpt><trkpt lat="41.7910462" lon="13.1504787"><ele>408.0</ele><time>2026-05-01T11:12:35.057Z</time></trkpt><trkpt lat="41.7911565" lon="13.15023"><ele>408.0</ele><time>2026-05-01T11:12:36.056Z</time></trkpt><trkpt lat="41.791279" lon="13.1499899"><ele>408.0</ele><time>2026-05-01T11:12:37.057Z</time></trkpt><trkpt lat="41.7914129" lon="13.1497599"><ele>408.0</ele><time>2026-05-01T11:12:38.057Z</time></trkpt><trkpt lat="41.7915552" lon="13.1495374"><ele>405.66666666666663</ele><time>2026-05-01T11:12:39.057Z</time></trkpt><trkpt lat="41.7917059" lon="13.1493239"><ele>403.3333333333333</ele><time>2026-05-01T11:12:40.057Z</time></trkpt><trkpt lat="41.7918695" lon="13.1491258"><ele>401.0</ele><time>2026-05-01T11:12:41.057Z</time></trkpt><trkpt lat="41.7920434" lon="13.1489433"><ele>392.3333333333333</ele><time>2026-05-01T11:12:42.056Z</time></trkpt><trkpt lat="41.792225" lon="13.1487746"><ele>383.66666666666663</ele><time>2026-05-01T11:12:43.057Z</time></trkpt><trkpt lat="41.792416" lon="13.1486216"><ele>375.0</ele><time>2026-05-01T11:12:44.057Z</time></trkpt><trkpt lat="41.7926154" lon="13.1484854"><ele>374.0</ele><time>2026-05-01T11:12:45.057Z</time></trkpt><trkpt lat="41.7928201" lon="13.1483633"><ele>373.0</ele><time>2026-05-01T11:12:46.057Z</time></trkpt><trkpt lat="41.793029" lon="13.148256"><ele>372.0</ele><time>2026-05-01T11:12:47.056Z</time></trkpt><trkpt lat="41.7932409" lon="13.1481631"><ele>367.6666666666667</ele><time>2026-05-01T11:12:48.057Z</time></trkpt><trkpt lat="41.7934541" lon="13.1480822"><ele>363.33333333333337</ele><time>2026-05-01T11:12:49.057Z</time></trkpt><trkpt lat="41.7936675" lon="13.1480057"><ele>359.0</ele><time>2026-05-01T11:12:50.056Z</time></trkpt><trkpt lat="41.793879" lon="13.1479219"><ele>359.0</ele><time>2026-05-01T11:12:51.056Z</time></trkpt><trkpt lat="41.794089" lon="13.1478271"><ele>359.0</ele><time>2026-05-01T11:12:52.056Z</time></trkpt><trkpt lat="41.7942946" lon="13.1477195"><ele>359.0</ele><time>2026-05-01T11:12:53.057Z</time></trkpt><trkpt lat="41.794495" lon="13.1475933"><ele>359.0</ele><time>2026-05-01T11:12:54.057Z</time></trkpt><trkpt lat="41.7946887" lon="13.1474462"><ele>359.0</ele><time>2026-05-01T11:12:55.057Z</time></trkpt><trkpt lat="41.7948727" lon="13.1472769"><ele>359.0</ele><time>2026-05-01T11:12:56.056Z</time></trkpt><trkpt lat="41.795048" lon="13.1470895"><ele>364.0</ele><time>2026-05-01T11:12:57.057Z</time></trkpt><trkpt lat="41.7952132" lon="13.1468826"><ele>369.0</ele><time>2026-05-01T11:12:58.057Z</time></trkpt><trkpt lat="41.7953673" lon="13.1466581"><ele>365.5</ele><time>2026-05-01T11:12:59.056Z</time></trkpt><trkpt lat="41.7955151" lon="13.1464252"><ele>362.0</ele><time>2026-05-01T11:13:00.057Z</time></trkpt><trkpt lat="41.7956571" lon="13.1461908"><ele>362.0</ele><time>2026-05-01T11:13:01.057Z</time></trkpt><trkpt lat="41.7957963" lon="13.1459591"><ele>362.0</ele><time>2026-05-01T11:13:02.057Z</time></trkpt><trkpt lat="41.795936" lon="13.1457271"><ele>362.0</ele><time>2026-05-01T11:13:03.057Z</time></trkpt><trkpt lat="41.7960743" lon="13.145499"><ele>361.6666666666667</ele><time>2026-05-01T11:13:04.056Z</time></trkpt><trkpt lat="41.7962096" lon="13.1452751"><ele>361.3333333333333</ele><time>2026-05-01T11:13:05.057Z</time></trkpt><trkpt lat="41.7963438" lon="13.1450546"><ele>361.0</ele><time>2026-05-01T11:13:06.056Z</time></trkpt><trkpt lat="41.7964814" lon="13.1448324"><ele>358.66666666666663</ele><time>2026-05-01T11:13:07.057Z</time></trkpt><trkpt lat="41.79662" lon="13.1446041"><ele>356.3333333333333</ele><time>2026-05-01T11:13:08.056Z</time></trkpt><trkpt lat="41.7967572" lon="13.1443749"><ele>354.0</ele><time>2026-05-01T11:13:09.057Z</time></trkpt><trkpt lat="41.7968905" lon="13.1441515"><ele>351.3333333333333</ele><time>2026-05-01T11:13:10.057Z</time></trkpt><trkpt lat="41.7970206" lon="13.1439341"><ele>348.66666666666663</ele><time>2026-05-01T11:13:11.057Z</time></trkpt><trkpt lat="41.7971454" lon="13.1437184"><ele>346.0</ele><time>2026-05-01T11:13:12.057Z</time></trkpt><trkpt lat="41.7972617" lon="13.1434942"><ele>346.0</ele><time>2026-05-01T11:13:13.056Z</time></trkpt><trkpt lat="41.7973651" lon="13.1432534"><ele>346.0</ele><time>2026-05-01T11:13:14.057Z</time></trkpt><trkpt lat="41.7974598" lon="13.1430042"><ele>346.0</ele><time>2026-05-01T11:13:15.057Z</time></trkpt><trkpt lat="41.7975492" lon="13.1427495"><ele>343.0</ele><time>2026-05-01T11:13:16.057Z</time></trkpt><trkpt lat="41.7976322" lon="13.1424898"><ele>340.0</ele><time>2026-05-01T11:13:17.057Z</time></trkpt><trkpt lat="41.7977055" lon="13.1422238"><ele>337.0</ele><time>2026-05-01T11:13:18.057Z</time></trkpt><trkpt lat="41.7977721" lon="13.1419523"><ele>336.0</ele><time>2026-05-01T11:13:19.057Z</time></trkpt><trkpt lat="41.79783" lon="13.1416755"><ele>335.0</ele><time>2026-05-01T11:13:20.057Z</time></trkpt><trkpt lat="41.7978785" lon="13.1413924"><ele>334.0</ele><time>2026-05-01T11:13:21.057Z</time></trkpt><trkpt lat="41.7979152" lon="13.1411036"><ele>333.0</ele><time>2026-05-01T11:13:22.057Z</time></trkpt><trkpt lat="41.7979407" lon="13.1408112"><ele>332.0</ele><time>2026-05-01T11:13:23.057Z</time></trkpt><trkpt lat="41.7979555" lon="13.1405171"><ele>331.0</ele><time>2026-05-01T11:13:24.056Z</time></trkpt><trkpt lat="41.7979592" lon="13.140222"><ele>330.66666666666663</ele><time>2026-05-01T11:13:25.056Z</time></trkpt><trkpt lat="41.7979506" lon="13.1399267"><ele>330.3333333333333</ele><time>2026-05-01T11:13:26.057Z</time></trkpt><trkpt lat="41.7979297" lon="13.1396335"><ele>330.0</ele><time>2026-05-01T11:13:27.057Z</time></trkpt><trkpt lat="41.7978976" lon="13.1393436"><ele>330.0</ele><time>2026-05-01T11:13:28.057Z</time></trkpt><trkpt lat="41.7978536" lon="13.1390596"><ele>330.0</ele><time>2026-05-01T11:13:29.057Z</time></trkpt><trkpt lat="41.7978045" lon="13.1387826"><ele>330.0</ele><time>2026-05-01T11:13:30.057Z</time></trkpt><trkpt lat="41.7977518" lon="13.1385214"><ele>330.3333333333333</ele><time>2026-05-01T11:13:31.056Z</time></trkpt><trkpt lat="41.7976918" lon="13.1382684"><ele>330.66666666666663</ele><time>2026-05-01T11:13:32.057Z</time></trkpt><trkpt lat="41.7976256" lon="13.1380125"><ele>331.0</ele><time>2026-05-01T11:13:33.057Z</time></trkpt><trkpt lat="41.7975517" lon="13.1377572"><ele>329.3333333333333</ele><time>2026-05-01T11:13:34.057Z</time></trkpt><trkpt lat="41.797465" lon="13.1375059"><ele>327.6666666666667</ele><time>2026-05-01T11:13:35.057Z</time></trkpt><trkpt lat="41.7973663" lon="13.1372594"><ele>326.0</ele><time>2026-05-01T11:13:36.057Z</time></trkpt><trkpt lat="41.7972567" lon="13.137019"><ele>326.0</ele><time>2026-05-01T11:13:37.057Z</time></trkpt><trkpt lat="41.7971378" lon="13.1367849"><ele>326.0</ele><time>2026-05-01T11:13:38.057Z</time></trkpt><trkpt lat="41.7970112" lon="13.1365563"><ele>326.0</ele><time>2026-05-01T11:13:39.056Z</time></trkpt><trkpt lat="41.7968764" lon="13.1363335"><ele>325.0</ele><time>2026-05-01T11:13:40.057Z</time></trkpt><trkpt lat="41.7967328" lon="13.1361181"><ele>324.0</ele><time>2026-05-01T11:13:41.057Z</time></trkpt><trkpt lat="41.7965829" lon="13.1359107"><ele>323.0</ele><time>2026-05-01T11:13:42.057Z</time></trkpt><trkpt lat="41.7964266" lon="13.1357134"><ele>323.0</ele><time>2026-05-01T11:13:43.057Z</time></trkpt><trkpt lat="41.7962616" lon="13.1355283"><ele>323.0</ele><time>2026-05-01T11:13:44.057Z</time></trkpt><trkpt lat="41.7960889" lon="13.1353546"><ele>323.0</ele><time>2026-05-01T11:13:45.057Z</time></trkpt><trkpt lat="41.7959087" lon="13.1351908"><ele>321.33333333333337</ele><time>2026-05-01T11:13:46.057Z</time></trkpt><trkpt lat="41.7957219" lon="13.1350374"><ele>319.6666666666667</ele><time>2026-05-01T11:13:47.057Z</time></trkpt><trkpt lat="41.7955286" lon="13.1348953"><ele>318.0</ele><time>2026-05-01T11:13:48.057Z</time></trkpt><trkpt lat="41.7953292" lon="13.1347648"><ele>316.0</ele><time>2026-05-01T11:13:49.057Z</time></trkpt><trkpt lat="41.7951257" lon="13.1346427"><ele>314.0</ele><time>2026-05-01T11:13:50.057Z</time></trkpt><trkpt lat="41.794921" lon="13.1345221"><ele>312.0</ele><time>2026-05-01T11:13:51.057Z</time></trkpt><trkpt lat="41.7947156" lon="13.1344013"><ele>312.0</ele><time>2026-05-01T11:13:52.056Z</time></trkpt><trkpt lat="41.7945101" lon="13.1342807"><ele>312.0</ele><time>2026-05-01T11:13:53.057Z</time></trkpt><trkpt lat="41.7943044" lon="13.1341603"><ele>312.0</ele><time>2026-05-01T11:13:54.056Z</time></trkpt><trkpt lat="41.7940991" lon="13.1340403"><ele>311.0</ele><time>2026-05-01T11:13:55.057Z</time></trkpt><trkpt lat="41.7938917" lon="13.1339205"><ele>310.0</ele><time>2026-05-01T11:13:56.057Z</time></trkpt><trkpt lat="41.7936825" lon="13.1337995"><ele>312.0</ele><time>2026-05-01T11:13:57.057Z</time></trkpt><trkpt lat="41.7934724" lon="13.1336759"><ele>314.0</ele><time>2026-05-01T11:13:58.057Z</time></trkpt><trkpt lat="41.7932633" lon="13.1335466"><ele>314.0</ele><time>2026-05-01T11:13:59.056Z</time></trkpt><trkpt lat="41.7930557" lon="13.1334117"><ele>314.0</ele><time>2026-05-01T11:14:00.057Z</time></trkpt><trkpt lat="41.7928532" lon="13.1332707"><ele>316.0</ele><time>2026-05-01T11:14:01.056Z</time></trkpt><trkpt lat="41.7926582" lon="13.1331191"><ele>318.0</ele><time>2026-05-01T11:14:02.057Z</time></trkpt><trkpt lat="41.7924712" lon="13.1329548"><ele>320.0</ele><time>2026-05-01T11:14:03.057Z</time></trkpt><trkpt lat="41.792291" lon="13.1327804"><ele>320.0</ele><time>2026-05-01T11:14:04.056Z</time></trkpt><trkpt lat="41.7921168" lon="13.1325973"><ele>320.0</ele><time>2026-05-01T11:14:05.057Z</time></trkpt><trkpt lat="41.7919499" lon="13.1324065"><ele>320.0</ele><time>2026-05-01T11:14:06.057Z</time></trkpt><trkpt lat="41.7917912" lon="13.1322067"><ele>319.6666666666667</ele><time>2026-05-01T11:14:07.057Z</time></trkpt><trkpt lat="41.7916433" lon="13.1319962"><ele>319.3333333333333</ele><time>2026-05-01T11:14:08.057Z</time></trkpt><trkpt lat="41.7915039" lon="13.1317795"><ele>319.0</ele><time>2026-05-01T11:14:09.057Z</time></trkpt><trkpt lat="41.7913704" lon="13.1315582"><ele>319.66666666666663</ele><time>2026-05-01T11:14:10.057Z</time></trkpt><trkpt lat="41.7912431" lon="13.1313332"><ele>320.3333333333333</ele><time>2026-05-01T11:14:11.057Z</time></trkpt><trkpt lat="41.7911181" lon="13.1311059"><ele>321.0</ele><time>2026-05-01T11:14:12.056Z</time></trkpt><trkpt lat="41.7909959" lon="13.130876"><ele>321.0</ele><time>2026-05-01T11:14:13.057Z</time></trkpt><trkpt lat="41.7908754" lon="13.1306451"><ele>321.0</ele><time>2026-05-01T11:14:14.057Z</time></trkpt><trkpt lat="41.7907533" lon="13.1304152"><ele>321.0</ele><time>2026-05-01T11:14:15.057Z</time></trkpt><trkpt lat="41.7906288" lon="13.1301874"><ele>321.0</ele><time>2026-05-01T11:14:16.056Z</time></trkpt><trkpt lat="41.7905045" lon="13.1299593"><ele>321.0</ele><time>2026-05-01T11:14:17.056Z</time></trkpt><trkpt lat="41.7903826" lon="13.129729"><ele>321.0</ele><time>2026-05-01T11:14:18.057Z</time></trkpt><trkpt lat="41.7902612" lon="13.129498"><ele>321.3333333333333</ele><time>2026-05-01T11:14:19.057Z</time></trkpt><trkpt lat="41.7901382" lon="13.1292681"><ele>321.66666666666663</ele><time>2026-05-01T11:14:20.057Z</time></trkpt><trkpt lat="41.7900154" lon="13.1290379"><ele>322.0</ele><time>2026-05-01T11:14:21.057Z</time></trkpt><trkpt lat="41.7898925" lon="13.1288076"><ele>323.0</ele><time>2026-05-01T11:14:22.056Z</time></trkpt><trkpt lat="41.7897698" lon="13.1285769"><ele>324.0</ele><time>2026-05-01T11:14:23.056Z</time></trkpt><trkpt lat="41.7896487" lon="13.1283437"><ele>325.0</ele><time>2026-05-01T11:14:24.057Z</time></trkpt><trkpt lat="41.789526" lon="13.1281121"><ele>325.0</ele><time>2026-05-01T11:14:25.056Z</time></trkpt><trkpt lat="41.7894036" lon="13.1278797"><ele>325.0</ele><time>2026-05-01T11:14:26.057Z</time></trkpt><trkpt lat="41.7892802" lon="13.1276474"><ele>325.0</ele><time>2026-05-01T11:14:27.057Z</time></trkpt><trkpt lat="41.789155" lon="13.127415"><ele>325.66666666666663</ele><time>2026-05-01T11:14:28.057Z</time></trkpt><trkpt lat="41.7890289" lon="13.1271811"><ele>326.3333333333333</ele><time>2026-05-01T11:14:29.057Z</time></trkpt><trkpt lat="41.7889028" lon="13.126945"><ele>327.0</ele><time>2026-05-01T11:14:30.057Z</time></trkpt><trkpt lat="41.7887761" lon="13.1267074"><ele>328.0</ele><time>2026-05-01T11:14:31.056Z</time></trkpt><trkpt lat="41.7886491" lon="13.1264691"><ele>329.0</ele><time>2026-05-01T11:14:32.056Z</time></trkpt><trkpt lat="41.7885212" lon="13.1262304"><ele>330.0</ele><time>2026-05-01T11:14:33.057Z</time></trkpt><trkpt lat="41.7883933" lon="13.1259907"><ele>327.0</ele><time>2026-05-01T11:14:34.056Z</time></trkpt><trkpt lat="41.7882649" lon="13.1257499"><ele>324.0</ele><time>2026-05-01T11:14:35.057Z</time></trkpt><trkpt lat="41.7881355" lon="13.1255081"><ele>321.0</ele><time>2026-05-01T11:14:36.057Z</time></trkpt><trkpt lat="41.788006" lon="13.1252653"><ele>319.6666666666667</ele><time>2026-05-01T11:14:37.057Z</time></trkpt><trkpt lat="41.7878769" lon="13.1250208"><ele>318.33333333333337</ele><time>2026-05-01T11:14:38.056Z</time></trkpt><trkpt lat="41.7877462" lon="13.1247778"><ele>317.0</ele><time>2026-05-01T11:14:39.057Z</time></trkpt><trkpt lat="41.7876141" lon="13.1245374"><ele>312.6666666666667</ele><time>2026-05-01T11:14:40.057Z</time></trkpt><trkpt lat="41.7874777" lon="13.1243015"><ele>308.3333333333333</ele><time>2026-05-01T11:14:41.057Z</time></trkpt><trkpt lat="41.7873398" lon="13.1240733"><ele>304.0</ele><time>2026-05-01T11:14:42.057Z</time></trkpt><trkpt lat="41.7871997" lon="13.1238517"><ele>303.3333333333333</ele><time>2026-05-01T11:14:43.056Z</time></trkpt><trkpt lat="41.7870536" lon="13.1236315"><ele>302.6666666666667</ele><time>2026-05-01T11:14:44.056Z</time></trkpt><trkpt lat="41.7869012" lon="13.1234208"><ele>302.0</ele><time>2026-05-01T11:14:45.057Z</time></trkpt><trkpt lat="41.7867419" lon="13.1232254"><ele>302.0</ele><time>2026-05-01T11:14:46.057Z</time></trkpt><trkpt lat="41.7865809" lon="13.1230398"><ele>302.0</ele><time>2026-05-01T11:14:47.057Z</time></trkpt><trkpt lat="41.7864185" lon="13.1228616"><ele>302.0</ele><time>2026-05-01T11:14:48.057Z</time></trkpt><trkpt lat="41.7862529" lon="13.1226904"><ele>302.0</ele><time>2026-05-01T11:14:49.057Z</time></trkpt><trkpt lat="41.7860849" lon="13.1225243"><ele>302.0</ele><time>2026-05-01T11:14:50.057Z</time></trkpt><trkpt lat="41.7859144" lon="13.1223611"><ele>302.0</ele><time>2026-05-01T11:14:51.056Z</time></trkpt><trkpt lat="41.7857372" lon="13.1222077"><ele>302.0</ele><time>2026-05-01T11:14:52.056Z</time></trkpt><trkpt lat="41.7855551" lon="13.1220648"><ele>302.0</ele><time>2026-05-01T11:14:53.057Z</time></trkpt><trkpt lat="41.7853685" lon="13.1219317"><ele>302.0</ele><time>2026-05-01T11:14:54.057Z</time></trkpt><trkpt lat="41.7851773" lon="13.1218109"><ele>302.0</ele><time>2026-05-01T11:14:55.057Z</time></trkpt><trkpt lat="41.7849836" lon="13.121701"><ele>302.0</ele><time>2026-05-01T11:14:56.057Z</time></trkpt><trkpt lat="41.7847883" lon="13.1216009"><ele>302.0</ele><time>2026-05-01T11:14:57.057Z</time></trkpt><trkpt lat="41.7845923" lon="13.1215039"><ele>302.33333333333337</ele><time>2026-05-01T11:14:58.057Z</time></trkpt><trkpt lat="41.7843945" lon="13.1214128"><ele>302.6666666666667</ele><time>2026-05-01T11:14:59.056Z</time></trkpt><trkpt lat="41.7841949" lon="13.1213297"><ele>303.0</ele><time>2026-05-01T11:15:00.057Z</time></trkpt><trkpt lat="41.7839932" lon="13.1212569"><ele>301.3333333333333</ele><time>2026-05-01T11:15:01.057Z</time></trkpt><trkpt lat="41.7837888" lon="13.121193"><ele>299.66666666666663</ele><time>2026-05-01T11:15:02.057Z</time></trkpt><trkpt lat="41.7835813" lon="13.1211372"><ele>298.0</ele><time>2026-05-01T11:15:03.057Z</time></trkpt><trkpt lat="41.7833733" lon="13.1210878"><ele>296.0</ele><time>2026-05-01T11:15:04.056Z</time></trkpt><trkpt lat="41.7831661" lon="13.1210395"><ele>294.0</ele><time>2026-05-01T11:15:05.057Z</time></trkpt><trkpt lat="41.782959" lon="13.12099"><ele>292.0</ele><time>2026-05-01T11:15:06.057Z</time></trkpt><trkpt lat="41.7827516" lon="13.1209385"><ele>292.3333333333333</ele><time>2026-05-01T11:15:07.056Z</time></trkpt><trkpt lat="41.7825431" lon="13.1208877"><ele>292.6666666666667</ele><time>2026-05-01T11:15:08.057Z</time></trkpt><trkpt lat="41.7823316" lon="13.1208364"><ele>293.0</ele><time>2026-05-01T11:15:09.057Z</time></trkpt><trkpt lat="41.7821152" lon="13.1207835"><ele>292.5</ele><time>2026-05-01T11:15:10.057Z</time></trkpt><trkpt lat="41.7818947" lon="13.1207296"><ele>292.0</ele><time>2026-05-01T11:15:11.057Z</time></trkpt><trkpt lat="41.7816718" lon="13.1206766"><ele>298.0</ele><time>2026-05-01T11:15:12.057Z</time></trkpt><trkpt lat="41.7814468" lon="13.1206254"><ele>304.0</ele><time>2026-05-01T11:15:13.057Z</time></trkpt><trkpt lat="41.7812201" lon="13.120573"><ele>307.0</ele><time>2026-05-01T11:15:14.057Z</time></trkpt><trkpt lat="41.7809909" lon="13.1205201"><ele>310.0</ele><time>2026-05-01T11:15:15.057Z</time></trkpt><trkpt lat="41.7805212" lon="13.1204103"><ele>310.0</ele><time>2026-05-01T11:15:17.057Z</time></trkpt><trkpt lat="41.7802819" lon="13.120358"><ele>310.0</ele><time>2026-05-01T11:15:18.057Z</time></trkpt><trkpt lat="41.7800432" lon="13.1203046"><ele>308.5</ele><time>2026-05-01T11:15:19.057Z</time></trkpt><trkpt lat="41.779805" lon="13.1202469"><ele>307.0</ele><time>2026-05-01T11:15:20.057Z</time></trkpt><trkpt lat="41.7795677" lon="13.1201872"><ele>301.5</ele><time>2026-05-01T11:15:21.057Z</time></trkpt><trkpt lat="41.7793315" lon="13.120129"><ele>296.0</ele><time>2026-05-01T11:15:22.057Z</time></trkpt><trkpt lat="41.7790963" lon="13.1200709"><ele>296.0</ele><time>2026-05-01T11:15:23.057Z</time></trkpt><trkpt lat="41.778862" lon="13.1200141"><ele>296.0</ele><time>2026-05-01T11:15:24.057Z</time></trkpt><trkpt lat="41.7786288" lon="13.1199557"><ele>300.5</ele><time>2026-05-01T11:15:25.057Z</time></trkpt><trkpt lat="41.7783973" lon="13.1198923"><ele>305.0</ele><time>2026-05-01T11:15:26.056Z</time></trkpt><trkpt lat="41.7781675" lon="13.1198221"><ele>305.0</ele><time>2026-05-01T11:15:27.057Z</time></trkpt><trkpt lat="41.7779418" lon="13.1197384"><ele>305.0</ele><time>2026-05-01T11:15:28.057Z</time></trkpt><trkpt lat="41.7777204" lon="13.1196358"><ele>302.0</ele><time>2026-05-01T11:15:29.057Z</time></trkpt><trkpt lat="41.7775046" lon="13.119516"><ele>299.0</ele><time>2026-05-01T11:15:30.057Z</time></trkpt><trkpt lat="41.7772947" lon="13.1193755"><ele>299.0</ele><time>2026-05-01T11:15:31.057Z</time></trkpt><trkpt lat="41.7770914" lon="13.1192184"><ele>299.0</ele><time>2026-05-01T11:15:32.057Z</time></trkpt><trkpt lat="41.7768954" lon="13.1190449"><ele>297.5</ele><time>2026-05-01T11:15:33.056Z</time></trkpt><trkpt lat="41.7767088" lon="13.1188554"><ele>296.0</ele><time>2026-05-01T11:15:34.057Z</time></trkpt><trkpt lat="41.7765312" lon="13.1186501"><ele>296.0</ele><time>2026-05-01T11:15:35.057Z</time></trkpt><trkpt lat="41.7763629" lon="13.1184329"><ele>296.0</ele><time>2026-05-01T11:15:36.057Z</time></trkpt><trkpt lat="41.776204" lon="13.1182028"><ele>290.5</ele><time>2026-05-01T11:15:37.056Z</time></trkpt><trkpt lat="41.7760569" lon="13.1179603"><ele>285.0</ele><time>2026-05-01T11:15:38.057Z</time></trkpt><trkpt lat="41.7759229" lon="13.1177037"><ele>285.0</ele><time>2026-05-01T11:15:39.056Z</time></trkpt><trkpt lat="41.775799" lon="13.117438"><ele>285.0</ele><time>2026-05-01T11:15:40.057Z</time></trkpt><trkpt lat="41.7756837" lon="13.1171623"><ele>291.0</ele><time>2026-05-01T11:15:41.057Z</time></trkpt><trkpt lat="41.7755746" lon="13.116882"><ele>297.0</ele><time>2026-05-01T11:15:42.057Z</time></trkpt><trkpt lat="41.7754677" lon="13.116599"><ele>300.0</ele><time>2026-05-01T11:15:43.057Z</time></trkpt><trkpt lat="41.7753623" lon="13.1163138"><ele>303.0</ele><time>2026-05-01T11:15:44.057Z</time></trkpt><trkpt lat="41.775258" lon="13.1160287"><ele>294.0</ele><time>2026-05-01T11:15:45.057Z</time></trkpt><trkpt lat="41.7751523" lon="13.1157444"><ele>285.0</ele><time>2026-05-01T11:15:46.057Z</time></trkpt><trkpt lat="41.7750447" lon="13.1154618"><ele>285.0</ele><time>2026-05-01T11:15:47.056Z</time></trkpt><trkpt lat="41.7749339" lon="13.1151797"><ele>285.0</ele><time>2026-05-01T11:15:48.057Z</time></trkpt><trkpt lat="41.7748181" lon="13.1149017"><ele>290.0</ele><time>2026-05-01T11:15:49.057Z</time></trkpt><trkpt lat="41.7746941" lon="13.1146312"><ele>295.0</ele><time>2026-05-01T11:15:50.057Z</time></trkpt><trkpt lat="41.7745585" lon="13.1143701"><ele>295.0</ele><time>2026-05-01T11:15:51.056Z</time></trkpt><trkpt lat="41.7744109" lon="13.1141212"><ele>295.0</ele><time>2026-05-01T11:15:52.057Z</time></trkpt><trkpt lat="41.7742484" lon="13.1138881"><ele>286.5</ele><time>2026-05-01T11:15:53.057Z</time></trkpt><trkpt lat="41.7740729" lon="13.1136737"><ele>278.0</ele><time>2026-05-01T11:15:54.057Z</time></trkpt><trkpt lat="41.7738883" lon="13.1134744"><ele>278.0</ele><time>2026-05-01T11:15:55.057Z</time></trkpt><trkpt lat="41.7736955" lon="13.1132914"><ele>278.0</ele><time>2026-05-01T11:15:56.056Z</time></trkpt><trkpt lat="41.7734974" lon="13.1131192"><ele>275.0</ele><time>2026-05-01T11:15:57.057Z</time></trkpt><trkpt lat="41.7732969" lon="13.1129583"><ele>272.0</ele><time>2026-05-01T11:15:58.057Z</time></trkpt><trkpt lat="41.7730904" lon="13.11281"><ele>272.0</ele><time>2026-05-01T11:15:59.056Z</time></trkpt><trkpt lat="41.772879" lon="13.1126763"><ele>272.0</ele><time>2026-05-01T11:16:00.057Z</time></trkpt><trkpt lat="41.7726606" lon="13.1125596"><ele>272.5</ele><time>2026-05-01T11:16:01.057Z</time></trkpt><trkpt lat="41.7724385" lon="13.1124569"><ele>273.0</ele><time>2026-05-01T11:16:02.057Z</time></trkpt><trkpt lat="41.7722127" lon="13.1123676"><ele>273.0</ele><time>2026-05-01T11:16:03.057Z</time></trkpt><trkpt lat="41.771984" lon="13.1122945"><ele>273.0</ele><time>2026-05-01T11:16:04.056Z</time></trkpt><trkpt lat="41.7717519" lon="13.1122399"><ele>270.0</ele><time>2026-05-01T11:16:05.057Z</time></trkpt><trkpt lat="41.7715184" lon="13.1121965"><ele>267.0</ele><time>2026-05-01T11:16:06.056Z</time></trkpt><trkpt lat="41.7712853" lon="13.1121608"><ele>267.0</ele><time>2026-05-01T11:16:07.057Z</time></trkpt><trkpt lat="41.7710508" lon="13.1121295"><ele>267.0</ele><time>2026-05-01T11:16:08.057Z</time></trkpt><trkpt lat="41.7708163" lon="13.112102"><ele>263.0</ele><time>2026-05-01T11:16:09.057Z</time></trkpt><trkpt lat="41.7705807" lon="13.1120848"><ele>259.0</ele><time>2026-05-01T11:16:10.056Z</time></trkpt><trkpt lat="41.770347" lon="13.1120728"><ele>255.0</ele><time>2026-05-01T11:16:11.056Z</time></trkpt><trkpt lat="41.7701138" lon="13.1120693"><ele>251.0</ele><time>2026-05-01T11:16:12.057Z</time></trkpt><trkpt lat="41.7698818" lon="13.1120798"><ele>251.0</ele><time>2026-05-01T11:16:13.056Z</time></trkpt><trkpt lat="41.7696494" lon="13.1121002"><ele>251.0</ele><time>2026-05-01T11:16:14.057Z</time></trkpt><trkpt lat="41.7694199" lon="13.1121347"><ele>249.0</ele><time>2026-05-01T11:16:15.057Z</time></trkpt><trkpt lat="41.769192" lon="13.1121819"><ele>247.0</ele><time>2026-05-01T11:16:16.057Z</time></trkpt><trkpt lat="41.7689629" lon="13.1122353"><ele>247.0</ele><time>2026-05-01T11:16:17.057Z</time></trkpt><trkpt lat="41.7687366" lon="13.1122939"><ele>247.0</ele><time>2026-05-01T11:16:18.057Z</time></trkpt><trkpt lat="41.768512" lon="13.1123625"><ele>244.0</ele><time>2026-05-01T11:16:19.057Z</time></trkpt><trkpt lat="41.7682905" lon="13.1124407"><ele>241.0</ele><time>2026-05-01T11:16:20.057Z</time></trkpt><trkpt lat="41.7680717" lon="13.1125325"><ele>241.0</ele><time>2026-05-01T11:16:21.057Z</time></trkpt><trkpt lat="41.767856" lon="13.1126342"><ele>241.0</ele><time>2026-05-01T11:16:22.056Z</time></trkpt><trkpt lat="41.767642" lon="13.112747"><ele>241.0</ele><time>2026-05-01T11:16:23.057Z</time></trkpt><trkpt lat="41.7674325" lon="13.1128678"><ele>241.0</ele><time>2026-05-01T11:16:24.057Z</time></trkpt><trkpt lat="41.7672273" lon="13.1129959"><ele>241.0</ele><time>2026-05-01T11:16:25.057Z</time></trkpt><trkpt lat="41.7670257" lon="13.1131351"><ele>241.0</ele><time>2026-05-01T11:16:26.057Z</time></trkpt><trkpt lat="41.7668274" lon="13.1132837"><ele>240.0</ele><time>2026-05-01T11:16:27.057Z</time></trkpt><trkpt lat="41.7666318" lon="13.1134366"><ele>239.0</ele><time>2026-05-01T11:16:28.057Z</time></trkpt><trkpt lat="41.7664415" lon="13.1135983"><ele>239.0</ele><time>2026-05-01T11:16:29.056Z</time></trkpt><trkpt lat="41.766254" lon="13.113769"><ele>239.0</ele><time>2026-05-01T11:16:30.057Z</time></trkpt><trkpt lat="41.766073" lon="13.1139464"><ele>240.0</ele><time>2026-05-01T11:16:31.057Z</time></trkpt><trkpt lat="41.7658956" lon="13.1141348"><ele>241.0</ele><time>2026-05-01T11:16:32.057Z</time></trkpt><trkpt lat="41.765723" lon="13.1143309"><ele>241.0</ele><time>2026-05-01T11:16:33.057Z</time></trkpt><trkpt lat="41.7655557" lon="13.1145322"><ele>241.0</ele><time>2026-05-01T11:16:34.057Z</time></trkpt><trkpt lat="41.7653934" lon="13.1147421"><ele>241.0</ele><time>2026-05-01T11:16:35.056Z</time></trkpt><trkpt lat="41.7652337" lon="13.1149571"><ele>241.0</ele><time>2026-05-01T11:16:36.057Z</time></trkpt><trkpt lat="41.765075" lon="13.1151722"><ele>239.5</ele><time>2026-05-01T11:16:37.057Z</time></trkpt><trkpt lat="41.764915" lon="13.1153856"><ele>238.0</ele><time>2026-05-01T11:16:38.057Z</time></trkpt><trkpt lat="41.7647573" lon="13.1156022"><ele>238.0</ele><time>2026-05-01T11:16:39.056Z</time></trkpt><trkpt lat="41.7646009" lon="13.1158208"><ele>238.0</ele><time>2026-05-01T11:16:40.057Z</time></trkpt><trkpt lat="41.7644467" lon="13.1160419"><ele>239.0</ele><time>2026-05-01T11:16:41.057Z</time></trkpt><trkpt lat="41.7642933" lon="13.1162641"><ele>240.0</ele><time>2026-05-01T11:16:42.057Z</time></trkpt><trkpt lat="41.7641374" lon="13.1164829"><ele>239.5</ele><time>2026-05-01T11:16:43.056Z</time></trkpt><trkpt lat="41.7639804" lon="13.1166996"><ele>239.0</ele><time>2026-05-01T11:16:44.056Z</time></trkpt><trkpt lat="41.7638218" lon="13.1169138"><ele>239.0</ele><time>2026-05-01T11:16:45.057Z</time></trkpt><trkpt lat="41.7636593" lon="13.1171219"><ele>239.0</ele><time>2026-05-01T11:16:46.057Z</time></trkpt><trkpt lat="41.7634938" lon="13.1173268"><ele>237.0</ele><time>2026-05-01T11:16:47.057Z</time></trkpt><trkpt lat="41.7633238" lon="13.1175295"><ele>235.0</ele><time>2026-05-01T11:16:48.057Z</time></trkpt><trkpt lat="41.7631503" lon="13.1177292"><ele>235.0</ele><time>2026-05-01T11:16:49.057Z</time></trkpt><trkpt lat="41.7629728" lon="13.1179244"><ele>235.0</ele><time>2026-05-01T11:16:50.057Z</time></trkpt><trkpt lat="41.7627921" lon="13.1181155"><ele>232.0</ele><time>2026-05-01T11:16:51.057Z</time></trkpt><trkpt lat="41.7626089" lon="13.118303"><ele>229.0</ele><time>2026-05-01T11:16:52.057Z</time></trkpt><trkpt lat="41.7624247" lon="13.1184901"><ele>229.0</ele><time>2026-05-01T11:16:53.056Z</time></trkpt><trkpt lat="41.7622401" lon="13.1186763"><ele>229.0</ele><time>2026-05-01T11:16:54.057Z</time></trkpt><trkpt lat="41.7620549" lon="13.1188621"><ele>229.0</ele><time>2026-05-01T11:16:55.056Z</time></trkpt><trkpt lat="41.7618699" lon="13.1190472"><ele>229.0</ele><time>2026-05-01T11:16:56.057Z</time></trkpt><trkpt lat="41.7616831" lon="13.1192294"><ele>230.5</ele><time>2026-05-01T11:16:57.057Z</time></trkpt><trkpt lat="41.7614972" lon="13.1194103"><ele>232.0</ele><time>2026-05-01T11:16:58.057Z</time></trkpt><trkpt lat="41.7613123" lon="13.1195914"><ele>232.0</ele><time>2026-05-01T11:16:59.057Z</time></trkpt><trkpt lat="41.7611292" lon="13.1197728"><ele>232.0</ele><time>2026-05-01T11:17:00.056Z</time></trkpt><trkpt lat="41.7609458" lon="13.1199515"><ele>234.0</ele><time>2026-05-01T11:17:01.057Z</time></trkpt><trkpt lat="41.7607621" lon="13.1201293"><ele>236.0</ele><time>2026-05-01T11:17:02.057Z</time></trkpt><trkpt lat="41.7605783" lon="13.1203058"><ele>236.0</ele><time>2026-05-01T11:17:03.057Z</time></trkpt><trkpt lat="41.7603934" lon="13.1204828"><ele>236.0</ele><time>2026-05-01T11:17:04.057Z</time></trkpt><trkpt lat="41.7602068" lon="13.1206543"><ele>235.0</ele><time>2026-05-01T11:17:05.057Z</time></trkpt><trkpt lat="41.7600177" lon="13.1208176"><ele>234.0</ele><time>2026-05-01T11:17:06.057Z</time></trkpt><trkpt lat="41.7598227" lon="13.1209701"><ele>234.0</ele><time>2026-05-01T11:17:07.057Z</time></trkpt><trkpt lat="41.7596253" lon="13.1211165"><ele>234.0</ele><time>2026-05-01T11:17:08.057Z</time></trkpt><trkpt lat="41.7594263" lon="13.1212581"><ele>233.0</ele><time>2026-05-01T11:17:09.056Z</time></trkpt><trkpt lat="41.7592248" lon="13.1213922"><ele>232.0</ele><time>2026-05-01T11:17:10.057Z</time></trkpt><trkpt lat="41.7590216" lon="13.1215213"><ele>235.5</ele><time>2026-05-01T11:17:11.057Z</time></trkpt><trkpt lat="41.7588162" lon="13.1216459"><ele>239.0</ele><time>2026-05-01T11:17:12.057Z</time></trkpt><trkpt lat="41.7586094" lon="13.1217664"><ele>236.0</ele><time>2026-05-01T11:17:13.057Z</time></trkpt><trkpt lat="41.7583998" lon="13.1218794"><ele>233.0</ele><time>2026-05-01T11:17:14.057Z</time></trkpt><trkpt lat="41.7581887" lon="13.1219852"><ele>233.0</ele><time>2026-05-01T11:17:15.056Z</time></trkpt><trkpt lat="41.7579754" lon="13.1220817"><ele>233.0</ele><time>2026-05-01T11:17:16.056Z</time></trkpt><trkpt lat="41.7577601" lon="13.122168"><ele>230.5</ele><time>2026-05-01T11:17:17.057Z</time></trkpt><trkpt lat="41.7575431" lon="13.1222465"><ele>228.0</ele><time>2026-05-01T11:17:18.057Z</time></trkpt><trkpt lat="41.7573228" lon="13.1223205"><ele>228.0</ele><time>2026-05-01T11:17:19.057Z</time></trkpt><trkpt lat="41.7571008" lon="13.1223875"><ele>228.0</ele><time>2026-05-01T11:17:20.057Z</time></trkpt><trkpt lat="41.7568763" lon="13.1224497"><ele>232.5</ele><time>2026-05-01T11:17:21.057Z</time></trkpt><trkpt lat="41.7566503" lon="13.122509"><ele>237.0</ele><time>2026-05-01T11:17:22.057Z</time></trkpt><trkpt lat="41.7564225" lon="13.1225583"><ele>237.0</ele><time>2026-05-01T11:17:23.057Z</time></trkpt><trkpt lat="41.7561945" lon="13.1225986"><ele>237.0</ele><time>2026-05-01T11:17:24.057Z</time></trkpt><trkpt lat="41.7559657" lon="13.1226405"><ele>239.0</ele><time>2026-05-01T11:17:25.057Z</time></trkpt><trkpt lat="41.7557364" lon="13.1226819"><ele>241.0</ele><time>2026-05-01T11:17:26.057Z</time></trkpt><trkpt lat="41.755508" lon="13.1227206"><ele>241.0</ele><time>2026-05-01T11:17:27.057Z</time></trkpt><trkpt lat="41.7552813" lon="13.1227635"><ele>241.0</ele><time>2026-05-01T11:17:28.057Z</time></trkpt><trkpt lat="41.7550545" lon="13.1228092"><ele>243.5</ele><time>2026-05-01T11:17:29.057Z</time></trkpt><trkpt lat="41.7548284" lon="13.1228497"><ele>246.0</ele><time>2026-05-01T11:17:30.057Z</time></trkpt><trkpt lat="41.7546004" lon="13.1228847"><ele>246.0</ele><time>2026-05-01T11:17:31.057Z</time></trkpt><trkpt lat="41.7543725" lon="13.1229107"><ele>246.0</ele><time>2026-05-01T11:17:32.057Z</time></trkpt><trkpt lat="41.7541447" lon="13.1229284"><ele>249.5</ele><time>2026-05-01T11:17:33.056Z</time></trkpt><trkpt lat="41.7539153" lon="13.1229393"><ele>253.0</ele><time>2026-05-01T11:17:34.057Z</time></trkpt><trkpt lat="41.7536866" lon="13.1229422"><ele>256.5</ele><time>2026-05-01T11:17:35.057Z</time></trkpt><trkpt lat="41.7534574" lon="13.1229384"><ele>260.0</ele><time>2026-05-01T11:17:36.057Z</time></trkpt><trkpt lat="41.7532272" lon="13.1229316"><ele>260.0</ele><time>2026-05-01T11:17:37.057Z</time></trkpt><trkpt lat="41.7529967" lon="13.1229223"><ele>260.0</ele><time>2026-05-01T11:17:38.057Z</time></trkpt><trkpt lat="41.75277" lon="13.1229107"><ele>261.6666666666667</ele><time>2026-05-01T11:17:39.056Z</time></trkpt><trkpt lat="41.7525485" lon="13.1228992"><ele>263.3333333333333</ele><time>2026-05-01T11:17:40.057Z</time></trkpt><trkpt lat="41.7523322" lon="13.1228898"><ele>265.0</ele><time>2026-05-01T11:17:41.057Z</time></trkpt><trkpt lat="41.7521301" lon="13.1228809"><ele>265.0</ele><time>2026-05-01T11:17:42.057Z</time></trkpt><trkpt lat="41.7519587" lon="13.122866"><ele>265.0</ele><time>2026-05-01T11:17:43.057Z</time></trkpt><trkpt lat="41.7518119" lon="13.1228426"><ele>265.0</ele><time>2026-05-01T11:17:44.057Z</time></trkpt><trkpt lat="41.7516765" lon="13.1227999"><ele>264.75</ele><time>2026-05-01T11:17:45.057Z</time></trkpt><trkpt lat="41.7515571" lon="13.1227352"><ele>264.5</ele><time>2026-05-01T11:17:46.057Z</time></trkpt><trkpt lat="41.751467" lon="13.1226342"><ele>264.25</ele><time>2026-05-01T11:17:47.057Z</time></trkpt><trkpt lat="41.7514068" lon="13.1224987"><ele>264.0</ele><time>2026-05-01T11:17:48.056Z</time></trkpt><trkpt lat="41.7513902" lon="13.1223519"><ele>264.0</ele><time>2026-05-01T11:17:49.057Z</time></trkpt><trkpt lat="41.7513905" lon="13.1222316"><ele>264.0</ele><time>2026-05-01T11:17:50.057Z</time></trkpt><trkpt lat="41.7513703" lon="13.1221345"><ele>264.0</ele><time>2026-05-01T11:17:51.057Z</time></trkpt><trkpt lat="41.7512905" lon="13.1220031"><ele>264.0</ele><time>2026-05-01T11:17:53.057Z</time></trkpt><trkpt lat="41.7512178" lon="13.1219723"><ele>264.0</ele><time>2026-05-01T11:17:54.056Z</time></trkpt><trkpt lat="41.7511334" lon="13.1219785"><ele>264.5</ele><time>2026-05-01T11:17:55.056Z</time></trkpt><trkpt lat="41.7510348" lon="13.1219864"><ele>265.0</ele><time>2026-05-01T11:17:56.057Z</time></trkpt><trkpt lat="41.7509228" lon="13.1220016"><ele>265.5</ele><time>2026-05-01T11:17:57.057Z</time></trkpt><trkpt lat="41.7508005" lon="13.1220185"><ele>266.0</ele><time>2026-05-01T11:17:58.057Z</time></trkpt><trkpt lat="41.7506701" lon="13.1220391"><ele>266.0</ele><time>2026-05-01T11:17:59.057Z</time></trkpt><trkpt lat="41.7505299" lon="13.1220598"><ele>266.0</ele><time>2026-05-01T11:18:00.057Z</time></trkpt><trkpt lat="41.7503831" lon="13.1220816"><ele>266.0</ele><time>2026-05-01T11:18:01.056Z</time></trkpt><trkpt lat="41.7502449" lon="13.1221012"><ele>266.0</ele><time>2026-05-01T11:18:02.057Z</time></trkpt><trkpt lat="41.7501025" lon="13.1221175"><ele>268.6666666666667</ele><time>2026-05-01T11:18:03.057Z</time></trkpt><trkpt lat="41.7499529" lon="13.1221278"><ele>271.3333333333333</ele><time>2026-05-01T11:18:04.057Z</time></trkpt><trkpt lat="41.7497999" lon="13.1221483"><ele>274.0</ele><time>2026-05-01T11:18:05.057Z</time></trkpt><trkpt lat="41.7496405" lon="13.1221681"><ele>274.0</ele><time>2026-05-01T11:18:06.057Z</time></trkpt><trkpt lat="41.7494767" lon="13.1221882"><ele>274.0</ele><time>2026-05-01T11:18:07.056Z</time></trkpt><trkpt lat="41.7493084" lon="13.1222058"><ele>274.0</ele><time>2026-05-01T11:18:08.056Z</time></trkpt><trkpt lat="41.7491384" lon="13.1222236"><ele>276.66666666666663</ele><time>2026-05-01T11:18:09.056Z</time></trkpt><trkpt lat="41.7489706" lon="13.122239"><ele>279.3333333333333</ele><time>2026-05-01T11:18:10.057Z</time></trkpt><trkpt lat="41.7488105" lon="13.1222595"><ele>282.0</ele><time>2026-05-01T11:18:11.057Z</time></trkpt><trkpt lat="41.7486532" lon="13.1222873"><ele>280.25</ele><time>2026-05-01T11:18:12.057Z</time></trkpt><trkpt lat="41.748501" lon="13.1223182"><ele>278.5</ele><time>2026-05-01T11:18:13.057Z</time></trkpt><trkpt lat="41.7483562" lon="13.1223521"><ele>276.75</ele><time>2026-05-01T11:18:14.057Z</time></trkpt><trkpt lat="41.7482163" lon="13.1223897"><ele>275.0</ele><time>2026-05-01T11:18:15.056Z</time></trkpt><trkpt lat="41.7480818" lon="13.1224233"><ele>272.75</ele><time>2026-05-01T11:18:16.057Z</time></trkpt><trkpt lat="41.7479535" lon="13.1224341"><ele>270.5</ele><time>2026-05-01T11:18:17.057Z</time></trkpt><trkpt lat="41.747822" lon="13.1224128"><ele>268.25</ele><time>2026-05-01T11:18:18.057Z</time></trkpt><trkpt lat="41.7476898" lon="13.1223552"><ele>266.0</ele><time>2026-05-01T11:18:19.057Z</time></trkpt><trkpt lat="41.747552" lon="13.1222808"><ele>266.0</ele><time>2026-05-01T11:18:20.057Z</time></trkpt><trkpt lat="41.7474071" lon="13.1222002"><ele>266.0</ele><time>2026-05-01T11:18:21.057Z</time></trkpt><trkpt lat="41.7472559" lon="13.1221081"><ele>266.0</ele><time>2026-05-01T11:18:22.057Z</time></trkpt><trkpt lat="41.747098" lon="13.1220191"><ele>266.0</ele><time>2026-05-01T11:18:23.057Z</time></trkpt><trkpt lat="41.7469503" lon="13.1219198"><ele>266.0</ele><time>2026-05-01T11:18:24.057Z</time></trkpt><trkpt lat="41.7468231" lon="13.1217901"><ele>266.0</ele><time>2026-05-01T11:18:25.057Z</time></trkpt><trkpt lat="41.7467093" lon="13.1216322"><ele>264.33333333333337</ele><time>2026-05-01T11:18:26.057Z</time></trkpt><trkpt lat="41.746603" lon="13.1214554"><ele>262.6666666666667</ele><time>2026-05-01T11:18:27.057Z</time></trkpt><trkpt lat="41.746499" lon="13.1212693"><ele>261.0</ele><time>2026-05-01T11:18:28.057Z</time></trkpt><trkpt lat="41.746394" lon="13.1210752"><ele>261.0</ele><time>2026-05-01T11:18:29.057Z</time></trkpt><trkpt lat="41.7462879" lon="13.1208768"><ele>261.0</ele><time>2026-05-01T11:18:30.057Z</time></trkpt><trkpt lat="41.7461787" lon="13.1206741"><ele>261.0</ele><time>2026-05-01T11:18:31.057Z</time></trkpt><trkpt lat="41.7460677" lon="13.1204695"><ele>259.3333333333333</ele><time>2026-05-01T11:18:32.057Z</time></trkpt><trkpt lat="41.7459625" lon="13.1202751"><ele>257.66666666666663</ele><time>2026-05-01T11:18:33.057Z</time></trkpt><trkpt lat="41.7458627" lon="13.1200897"><ele>256.0</ele><time>2026-05-01T11:18:34.057Z</time></trkpt><trkpt lat="41.7457698" lon="13.1199222"><ele>255.75</ele><time>2026-05-01T11:18:35.057Z</time></trkpt><trkpt lat="41.7456922" lon="13.1197815"><ele>255.5</ele><time>2026-05-01T11:18:36.057Z</time></trkpt><trkpt lat="41.7456216" lon="13.1196366"><ele>255.25</ele><time>2026-05-01T11:18:37.057Z</time></trkpt><trkpt lat="41.7455593" lon="13.1194885"><ele>255.0</ele><time>2026-05-01T11:18:38.056Z</time></trkpt><trkpt lat="41.7455005" lon="13.1193335"><ele>255.0</ele><time>2026-05-01T11:18:39.057Z</time></trkpt><trkpt lat="41.7454439" lon="13.1191699"><ele>255.0</ele><time>2026-05-01T11:18:40.057Z</time></trkpt><trkpt lat="41.7453927" lon="13.1190047"><ele>255.0</ele><time>2026-05-01T11:18:41.057Z</time></trkpt><trkpt lat="41.745341" lon="13.1188387"><ele>255.0</ele><time>2026-05-01T11:18:42.057Z</time></trkpt><trkpt lat="41.7452915" lon="13.1186681"><ele>254.0</ele><time>2026-05-01T11:18:43.057Z</time></trkpt><trkpt lat="41.7452439" lon="13.1184932"><ele>253.0</ele><time>2026-05-01T11:18:44.057Z</time></trkpt><trkpt lat="41.7451942" lon="13.118318"><ele>252.0</ele><time>2026-05-01T11:18:45.057Z</time></trkpt><trkpt lat="41.7451432" lon="13.1181448"><ele>251.0</ele><time>2026-05-01T11:18:46.057Z</time></trkpt><trkpt lat="41.7450878" lon="13.1179692"><ele>249.33333333333334</ele><time>2026-05-01T11:18:47.057Z</time></trkpt><trkpt lat="41.7450284" lon="13.1177926"><ele>247.66666666666669</ele><time>2026-05-01T11:18:48.057Z</time></trkpt><trkpt lat="41.7449604" lon="13.1176097"><ele>246.0</ele><time>2026-05-01T11:18:49.057Z</time></trkpt><trkpt lat="41.7448822" lon="13.117427"><ele>244.66666666666669</ele><time>2026-05-01T11:18:50.057Z</time></trkpt><trkpt lat="41.7448003" lon="13.1172374"><ele>243.33333333333334</ele><time>2026-05-01T11:18:51.056Z</time></trkpt><trkpt lat="41.7447223" lon="13.117043"><ele>242.0</ele><time>2026-05-01T11:18:52.057Z</time></trkpt><trkpt lat="41.7446422" lon="13.1168491"><ele>242.0</ele><time>2026-05-01T11:18:53.057Z</time></trkpt><trkpt lat="41.7445646" lon="13.1166534"><ele>242.0</ele><time>2026-05-01T11:18:54.057Z</time></trkpt><trkpt lat="41.7444859" lon="13.1164593"><ele>242.0</ele><time>2026-05-01T11:18:55.057Z</time></trkpt><trkpt lat="41.744407" lon="13.1162663"><ele>241.0</ele><time>2026-05-01T11:18:56.056Z</time></trkpt><trkpt lat="41.7443291" lon="13.1160756"><ele>240.0</ele><time>2026-05-01T11:18:57.056Z</time></trkpt><trkpt lat="41.7442519" lon="13.1158859"><ele>239.0</ele><time>2026-05-01T11:18:58.057Z</time></trkpt><trkpt lat="41.7441754" lon="13.1156985"><ele>238.33333333333334</ele><time>2026-05-01T11:18:59.057Z</time></trkpt><trkpt lat="41.7440986" lon="13.115511"><ele>237.66666666666669</ele><time>2026-05-01T11:19:00.057Z</time></trkpt><trkpt lat="41.744022" lon="13.115326"><ele>237.0</ele><time>2026-05-01T11:19:01.056Z</time></trkpt><trkpt lat="41.7439458" lon="13.1151413"><ele>237.0</ele><time>2026-05-01T11:19:02.056Z</time></trkpt><trkpt lat="41.7438713" lon="13.1149564"><ele>237.0</ele><time>2026-05-01T11:19:03.057Z</time></trkpt><trkpt lat="41.7437971" lon="13.1147719"><ele>237.0</ele><time>2026-05-01T11:19:04.057Z</time></trkpt><trkpt lat="41.7437224" lon="13.1145876"><ele>236.66666666666669</ele><time>2026-05-01T11:19:05.056Z</time></trkpt><trkpt lat="41.743646" lon="13.114403"><ele>236.33333333333334</ele><time>2026-05-01T11:19:06.056Z</time></trkpt><trkpt lat="41.7435675" lon="13.1142188"><ele>236.0</ele><time>2026-05-01T11:19:07.057Z</time></trkpt><trkpt lat="41.7434897" lon="13.1140329"><ele>234.66666666666669</ele><time>2026-05-01T11:19:08.057Z</time></trkpt><trkpt lat="41.7434136" lon="13.1138454"><ele>233.33333333333331</ele><time>2026-05-01T11:19:09.057Z</time></trkpt><trkpt lat="41.7433417" lon="13.1136672"><ele>232.0</ele><time>2026-05-01T11:19:10.057Z</time></trkpt><trkpt lat="41.7432732" lon="13.1134981"><ele>232.0</ele><time>2026-05-01T11:19:11.057Z</time></trkpt><trkpt lat="41.7432079" lon="13.1133368"><ele>232.0</ele><time>2026-05-01T11:19:12.057Z</time></trkpt><trkpt lat="41.7431458" lon="13.1131842"><ele>232.0</ele><time>2026-05-01T11:19:13.057Z</time></trkpt><trkpt lat="41.7430848" lon="13.1130375"><ele>232.0</ele><time>2026-05-01T11:19:14.056Z</time></trkpt><trkpt lat="41.7430246" lon="13.1128911"><ele>232.75</ele><time>2026-05-01T11:19:15.057Z</time></trkpt><trkpt lat="41.742962" lon="13.1127419"><ele>233.5</ele><time>2026-05-01T11:19:16.057Z</time></trkpt><trkpt lat="41.7428906" lon="13.1125985"><ele>234.25</ele><time>2026-05-01T11:19:17.056Z</time></trkpt><trkpt lat="41.7427982" lon="13.1124556"><ele>235.0</ele><time>2026-05-01T11:19:18.057Z</time></trkpt><trkpt lat="41.7426908" lon="13.1122966"><ele>235.66666666666666</ele><time>2026-05-01T11:19:19.057Z</time></trkpt><trkpt lat="41.7425774" lon="13.1121202"><ele>236.33333333333331</ele><time>2026-05-01T11:19:20.057Z</time></trkpt><trkpt lat="41.7424518" lon="13.1119336"><ele>237.0</ele><time>2026-05-01T11:19:21.057Z</time></trkpt><trkpt lat="41.7423201" lon="13.1117356"><ele>238.0</ele><time>2026-05-01T11:19:22.057Z</time></trkpt><trkpt lat="41.7421919" lon="13.1115234"><ele>239.0</ele><time>2026-05-01T11:19:23.057Z</time></trkpt><trkpt lat="41.7420678" lon="13.1113246"><ele>240.0</ele><time>2026-05-01T11:19:24.057Z</time></trkpt><trkpt lat="41.7419381" lon="13.1111289"><ele>240.0</ele><time>2026-05-01T11:19:25.057Z</time></trkpt><trkpt lat="41.7418109" lon="13.1109337"><ele>240.0</ele><time>2026-05-01T11:19:26.057Z</time></trkpt><trkpt lat="41.7416832" lon="13.1107405"><ele>240.0</ele><time>2026-05-01T11:19:27.057Z</time></trkpt><trkpt lat="41.741553" lon="13.1105512"><ele>240.66666666666669</ele><time>2026-05-01T11:19:28.056Z</time></trkpt><trkpt lat="41.7414233" lon="13.1103609"><ele>241.33333333333334</ele><time>2026-05-01T11:19:29.057Z</time></trkpt><trkpt lat="41.741292" lon="13.1101707"><ele>242.0</ele><time>2026-05-01T11:19:30.057Z</time></trkpt><trkpt lat="41.7411618" lon="13.1099771"><ele>240.33333333333334</ele><time>2026-05-01T11:19:31.057Z</time></trkpt><trkpt lat="41.741031" lon="13.1097814"><ele>238.66666666666669</ele><time>2026-05-01T11:19:32.057Z</time></trkpt><trkpt lat="41.7408997" lon="13.1095845"><ele>237.0</ele><time>2026-05-01T11:19:33.057Z</time></trkpt><trkpt lat="41.7407657" lon="13.1093856"><ele>237.0</ele><time>2026-05-01T11:19:34.057Z</time></trkpt><trkpt lat="41.7406312" lon="13.1091827"><ele>237.0</ele><time>2026-05-01T11:19:35.057Z</time></trkpt><trkpt lat="41.7404967" lon="13.1089795"><ele>237.0</ele><time>2026-05-01T11:19:36.057Z</time></trkpt><trkpt lat="41.7403614" lon="13.1087801"><ele>237.0</ele><time>2026-05-01T11:19:37.057Z</time></trkpt><trkpt lat="41.7402282" lon="13.108582"><ele>237.0</ele><time>2026-05-01T11:19:38.057Z</time></trkpt><trkpt lat="41.740096" lon="13.108385"><ele>237.0</ele><time>2026-05-01T11:19:39.057Z</time></trkpt><trkpt lat="41.7399641" lon="13.10819"><ele>236.66666666666669</ele><time>2026-05-01T11:19:40.056Z</time></trkpt><trkpt lat="41.7398322" lon="13.1079953"><ele>236.33333333333334</ele><time>2026-05-01T11:19:41.057Z</time></trkpt><trkpt lat="41.7397027" lon="13.1078003"><ele>236.0</ele><time>2026-05-01T11:19:42.057Z</time></trkpt><trkpt lat="41.7395719" lon="13.1076063"><ele>236.0</ele><time>2026-05-01T11:19:43.057Z</time></trkpt><trkpt lat="41.7394411" lon="13.1074139"><ele>236.0</ele><time>2026-05-01T11:19:44.056Z</time></trkpt><trkpt lat="41.7393137" lon="13.1072268"><ele>236.0</ele><time>2026-05-01T11:19:45.057Z</time></trkpt><trkpt lat="41.7391875" lon="13.10704"><ele>236.33333333333334</ele><time>2026-05-01T11:19:46.057Z</time></trkpt><trkpt lat="41.7390603" lon="13.1068591"><ele>236.66666666666669</ele><time>2026-05-01T11:19:47.057Z</time></trkpt><trkpt lat="41.7389282" lon="13.1066901"><ele>237.0</ele><time>2026-05-01T11:19:48.057Z</time></trkpt><trkpt lat="41.7387869" lon="13.1065414"><ele>237.33333333333331</ele><time>2026-05-01T11:19:49.056Z</time></trkpt><trkpt lat="41.738635" lon="13.106409"><ele>237.66666666666666</ele><time>2026-05-01T11:19:50.057Z</time></trkpt><trkpt lat="41.7384766" lon="13.106289"><ele>238.0</ele><time>2026-05-01T11:19:51.057Z</time></trkpt><trkpt lat="41.7383155" lon="13.106169"><ele>238.0</ele><time>2026-05-01T11:19:52.057Z</time></trkpt><trkpt lat="41.7381501" lon="13.1060512"><ele>238.0</ele><time>2026-05-01T11:19:53.057Z</time></trkpt><trkpt lat="41.7379822" lon="13.1059351"><ele>238.0</ele><time>2026-05-01T11:19:54.057Z</time></trkpt><trkpt lat="41.7378236" lon="13.1058199"><ele>237.66666666666666</ele><time>2026-05-01T11:19:55.056Z</time></trkpt><trkpt lat="41.7376706" lon="13.1057027"><ele>237.33333333333331</ele><time>2026-05-01T11:19:56.056Z</time></trkpt><trkpt lat="41.7375342" lon="13.1055829"><ele>237.0</ele><time>2026-05-01T11:19:57.057Z</time></trkpt><trkpt lat="41.7374089" lon="13.1054554"><ele>237.0</ele><time>2026-05-01T11:19:58.057Z</time></trkpt><trkpt lat="41.7372895" lon="13.1053016"><ele>237.0</ele><time>2026-05-01T11:19:59.057Z</time></trkpt><trkpt lat="41.7371775" lon="13.105126"><ele>237.0</ele><time>2026-05-01T11:20:00.057Z</time></trkpt><trkpt lat="41.7370732" lon="13.1049348"><ele>237.66666666666669</ele><time>2026-05-01T11:20:01.056Z</time></trkpt><trkpt lat="41.7369689" lon="13.1047369"><ele>238.33333333333334</ele><time>2026-05-01T11:20:02.057Z</time></trkpt><trkpt lat="41.7368646" lon="13.1045336"><ele>239.0</ele><time>2026-05-01T11:20:03.057Z</time></trkpt><trkpt lat="41.7367548" lon="13.1043302"><ele>239.0</ele><time>2026-05-01T11:20:04.057Z</time></trkpt><trkpt lat="41.7366427" lon="13.1041188"><ele>239.0</ele><time>2026-05-01T11:20:05.057Z</time></trkpt><trkpt lat="41.7365286" lon="13.1039081"><ele>239.0</ele><time>2026-05-01T11:20:06.057Z</time></trkpt><trkpt lat="41.7364142" lon="13.1036916"><ele>238.0</ele><time>2026-05-01T11:20:07.057Z</time></trkpt><trkpt lat="41.7362965" lon="13.1034795"><ele>237.0</ele><time>2026-05-01T11:20:08.056Z</time></trkpt><trkpt lat="41.7361848" lon="13.1032667"><ele>236.0</ele><time>2026-05-01T11:20:09.057Z</time></trkpt><trkpt lat="41.7360728" lon="13.1030582"><ele>234.66666666666669</ele><time>2026-05-01T11:20:10.057Z</time></trkpt><trkpt lat="41.7359613" lon="13.1028521"><ele>233.33333333333331</ele><time>2026-05-01T11:20:11.056Z</time></trkpt><trkpt lat="41.7358493" lon="13.1026477"><ele>232.0</ele><time>2026-05-01T11:20:12.057Z</time></trkpt><trkpt lat="41.7357381" lon="13.1024424"><ele>231.33333333333331</ele><time>2026-05-01T11:20:13.057Z</time></trkpt><trkpt lat="41.7356269" lon="13.1022338"><ele>230.66666666666669</ele><time>2026-05-01T11:20:14.057Z</time></trkpt><trkpt lat="41.7355117" lon="13.1020219"><ele>230.0</ele><time>2026-05-01T11:20:15.057Z</time></trkpt><trkpt lat="41.7353995" lon="13.101809"><ele>230.0</ele><time>2026-05-01T11:20:16.056Z</time></trkpt><trkpt lat="41.7352843" lon="13.1015969"><ele>230.0</ele><time>2026-05-01T11:20:17.057Z</time></trkpt><trkpt lat="41.7351694" lon="13.1013812"><ele>230.0</ele><time>2026-05-01T11:20:18.057Z</time></trkpt><trkpt lat="41.7350517" lon="13.1011651"><ele>230.66666666666669</ele><time>2026-05-01T11:20:19.057Z</time></trkpt><trkpt lat="41.7349339" lon="13.1009448"><ele>231.33333333333331</ele><time>2026-05-01T11:20:20.057Z</time></trkpt><trkpt lat="41.7348112" lon="13.1007301"><ele>232.0</ele><time>2026-05-01T11:20:21.057Z</time></trkpt><trkpt lat="41.7346923" lon="13.1005065"><ele>232.0</ele><time>2026-05-01T11:20:22.057Z</time></trkpt><trkpt lat="41.7345759" lon="13.1002814"><ele>232.0</ele><time>2026-05-01T11:20:23.056Z</time></trkpt><trkpt lat="41.7344579" lon="13.1000553"><ele>232.0</ele><time>2026-05-01T11:20:24.057Z</time></trkpt><trkpt lat="41.7343373" lon="13.0998303"><ele>232.0</ele><time>2026-05-01T11:20:25.057Z</time></trkpt><trkpt lat="41.7342222" lon="13.0996149"><ele>232.0</ele><time>2026-05-01T11:20:26.057Z</time></trkpt><trkpt lat="41.7341153" lon="13.0994127"><ele>232.0</ele><time>2026-05-01T11:20:27.057Z</time></trkpt><trkpt lat="41.7340231" lon="13.0992399"><ele>232.5</ele><time>2026-05-01T11:20:28.057Z</time></trkpt><trkpt lat="41.7339357" lon="13.099083"><ele>233.0</ele><time>2026-05-01T11:20:29.056Z</time></trkpt><trkpt lat="41.7338554" lon="13.098948"><ele>233.5</ele><time>2026-05-01T11:20:30.056Z</time></trkpt><trkpt lat="41.7337787" lon="13.0988201"><ele>234.0</ele><time>2026-05-01T11:20:31.057Z</time></trkpt><trkpt lat="41.7336992" lon="13.0986876"><ele>234.0</ele><time>2026-05-01T11:20:32.057Z</time></trkpt><trkpt lat="41.7336109" lon="13.0985367"><ele>234.0</ele><time>2026-05-01T11:20:33.057Z</time></trkpt><trkpt lat="41.7335227" lon="13.0983637"><ele>234.0</ele><time>2026-05-01T11:20:34.057Z</time></trkpt><trkpt lat="41.7334435" lon="13.0981714"><ele>232.0</ele><time>2026-05-01T11:20:35.057Z</time></trkpt><trkpt lat="41.7333851" lon="13.0979684"><ele>230.0</ele><time>2026-05-01T11:20:36.057Z</time></trkpt><trkpt lat="41.7333512" lon="13.0977468"><ele>228.0</ele><time>2026-05-01T11:20:37.057Z</time></trkpt><trkpt lat="41.7333448" lon="13.0975164"><ele>227.0</ele><time>2026-05-01T11:20:38.056Z</time></trkpt><trkpt lat="41.7333571" lon="13.0972745"><ele>226.0</ele><time>2026-05-01T11:20:39.057Z</time></trkpt><trkpt lat="41.7333851" lon="13.0970209"><ele>225.0</ele><time>2026-05-01T11:20:40.057Z</time></trkpt><trkpt lat="41.7334192" lon="13.0967555"><ele>224.33333333333331</ele><time>2026-05-01T11:20:41.057Z</time></trkpt><trkpt lat="41.7334536" lon="13.0964898"><ele>223.66666666666666</ele><time>2026-05-01T11:20:42.057Z</time></trkpt><trkpt lat="41.7334893" lon="13.096218"><ele>223.0</ele><time>2026-05-01T11:20:43.057Z</time></trkpt><trkpt lat="41.733529" lon="13.0959381"><ele>221.0</ele><time>2026-05-01T11:20:44.057Z</time></trkpt><trkpt lat="41.7335709" lon="13.0956527"><ele>219.0</ele><time>2026-05-01T11:20:45.057Z</time></trkpt><trkpt lat="41.7336098" lon="13.0953611"><ele>217.0</ele><time>2026-05-01T11:20:46.057Z</time></trkpt><trkpt lat="41.7336513" lon="13.0950634"><ele>213.5</ele><time>2026-05-01T11:20:47.056Z</time></trkpt><trkpt lat="41.7336963" lon="13.094762"><ele>210.0</ele><time>2026-05-01T11:20:48.057Z</time></trkpt><trkpt lat="41.733735" lon="13.0944558"><ele>210.0</ele><time>2026-05-01T11:20:49.056Z</time></trkpt><trkpt lat="41.7337741" lon="13.0941491"><ele>210.0</ele><time>2026-05-01T11:20:50.057Z</time></trkpt><trkpt lat="41.7338155" lon="13.093849"><ele>208.33333333333331</ele><time>2026-05-01T11:20:51.057Z</time></trkpt><trkpt lat="41.7338554" lon="13.0935556"><ele>206.66666666666666</ele><time>2026-05-01T11:20:52.057Z</time></trkpt><trkpt lat="41.7338939" lon="13.0932671"><ele>205.0</ele><time>2026-05-01T11:20:53.057Z</time></trkpt><trkpt lat="41.7339304" lon="13.0929811"><ele>204.0</ele><time>2026-05-01T11:20:54.056Z</time></trkpt><trkpt lat="41.7339661" lon="13.0926972"><ele>203.0</ele><time>2026-05-01T11:20:55.057Z</time></trkpt><trkpt lat="41.7340014" lon="13.0924168"><ele>202.0</ele><time>2026-05-01T11:20:56.057Z</time></trkpt><trkpt lat="41.734038" lon="13.092137"><ele>202.0</ele><time>2026-05-01T11:20:57.057Z</time></trkpt><trkpt lat="41.7340752" lon="13.0918571"><ele>202.0</ele><time>2026-05-01T11:20:58.057Z</time></trkpt><trkpt lat="41.7341134" lon="13.0915767"><ele>202.0</ele><time>2026-05-01T11:20:59.057Z</time></trkpt><trkpt lat="41.7341508" lon="13.0912944"><ele>202.33333333333331</ele><time>2026-05-01T11:21:00.056Z</time></trkpt><trkpt lat="41.7341879" lon="13.0910138"><ele>202.66666666666669</ele><time>2026-05-01T11:21:01.057Z</time></trkpt><trkpt lat="41.7342269" lon="13.0907196"><ele>203.0</ele><time>2026-05-01T11:21:02.057Z</time></trkpt><trkpt lat="41.7342743" lon="13.0904338"><ele>202.0</ele><time>2026-05-01T11:21:03.057Z</time></trkpt><trkpt lat="41.7343147" lon="13.0901426"><ele>201.0</ele><time>2026-05-01T11:21:04.056Z</time></trkpt><trkpt lat="41.7343593" lon="13.0898558"><ele>200.0</ele><time>2026-05-01T11:21:05.057Z</time></trkpt><trkpt lat="41.7343966" lon="13.0895643"><ele>199.33333333333334</ele><time>2026-05-01T11:21:06.057Z</time></trkpt><trkpt lat="41.7344374" lon="13.0892811"><ele>198.66666666666669</ele><time>2026-05-01T11:21:07.056Z</time></trkpt><trkpt lat="41.7344716" lon="13.0889933"><ele>198.0</ele><time>2026-05-01T11:21:08.057Z</time></trkpt><trkpt lat="41.7345101" lon="13.0887079"><ele>197.66666666666669</ele><time>2026-05-01T11:21:09.057Z</time></trkpt><trkpt lat="41.734546" lon="13.0884249"><ele>197.33333333333334</ele><time>2026-05-01T11:21:10.057Z</time></trkpt><trkpt lat="41.7345795" lon="13.0881427"><ele>197.0</ele><time>2026-05-01T11:21:11.056Z</time></trkpt><trkpt lat="41.7346133" lon="13.087862"><ele>196.0</ele><time>2026-05-01T11:21:12.057Z</time></trkpt><trkpt lat="41.7346485" lon="13.0875819"><ele>195.0</ele><time>2026-05-01T11:21:13.057Z</time></trkpt><trkpt lat="41.7346842" lon="13.0873067"><ele>194.0</ele><time>2026-05-01T11:21:14.057Z</time></trkpt><trkpt lat="41.7347164" lon="13.0870325"><ele>193.66666666666669</ele><time>2026-05-01T11:21:15.057Z</time></trkpt><trkpt lat="41.7347477" lon="13.0867628"><ele>193.33333333333331</ele><time>2026-05-01T11:21:16.057Z</time></trkpt><trkpt lat="41.7347756" lon="13.0864942"><ele>193.0</ele><time>2026-05-01T11:21:17.057Z</time></trkpt><trkpt lat="41.734798" lon="13.0862292"><ele>193.0</ele><time>2026-05-01T11:21:18.057Z</time></trkpt><trkpt lat="41.7348037" lon="13.0859632"><ele>193.0</ele><time>2026-05-01T11:21:19.057Z</time></trkpt><trkpt lat="41.7347955" lon="13.0856938"><ele>193.0</ele><time>2026-05-01T11:21:20.056Z</time></trkpt><trkpt lat="41.7347793" lon="13.0854198"><ele>193.33333333333331</ele><time>2026-05-01T11:21:21.057Z</time></trkpt><trkpt lat="41.734758" lon="13.0851438"><ele>193.66666666666669</ele><time>2026-05-01T11:21:22.057Z</time></trkpt><trkpt lat="41.7347335" lon="13.0848674"><ele>194.0</ele><time>2026-05-01T11:21:23.057Z</time></trkpt><trkpt lat="41.7347082" lon="13.0845921"><ele>194.33333333333334</ele><time>2026-05-01T11:21:24.057Z</time></trkpt><trkpt lat="41.7346839" lon="13.0843172"><ele>194.66666666666669</ele><time>2026-05-01T11:21:25.057Z</time></trkpt><trkpt lat="41.7346612" lon="13.0840423"><ele>195.0</ele><time>2026-05-01T11:21:26.057Z</time></trkpt><trkpt lat="41.7346439" lon="13.0837673"><ele>194.33333333333331</ele><time>2026-05-01T11:21:27.056Z</time></trkpt><trkpt lat="41.7346348" lon="13.0834928"><ele>193.66666666666666</ele><time>2026-05-01T11:21:28.057Z</time></trkpt><trkpt lat="41.7346331" lon="13.0832181"><ele>193.0</ele><time>2026-05-01T11:21:29.057Z</time></trkpt><trkpt lat="41.7346354" lon="13.0829458"><ele>192.0</ele><time>2026-05-01T11:21:30.057Z</time></trkpt><trkpt lat="41.7346382" lon="13.0826729"><ele>191.0</ele><time>2026-05-01T11:21:31.056Z</time></trkpt><trkpt lat="41.7346414" lon="13.0824007"><ele>190.0</ele><time>2026-05-01T11:21:32.056Z</time></trkpt><trkpt lat="41.7346466" lon="13.0821276"><ele>190.0</ele><time>2026-05-01T11:21:33.057Z</time></trkpt><trkpt lat="41.7346524" lon="13.0818542"><ele>190.0</ele><time>2026-05-01T11:21:34.057Z</time></trkpt><trkpt lat="41.734657" lon="13.0815805"><ele>190.0</ele><time>2026-05-01T11:21:35.057Z</time></trkpt><trkpt lat="41.7346613" lon="13.0813085"><ele>190.0</ele><time>2026-05-01T11:21:36.056Z</time></trkpt><trkpt lat="41.734667" lon="13.081038"><ele>190.0</ele><time>2026-05-01T11:21:37.057Z</time></trkpt><trkpt lat="41.7346715" lon="13.0807672"><ele>190.0</ele><time>2026-05-01T11:21:38.056Z</time></trkpt><trkpt lat="41.7346763" lon="13.0804941"><ele>190.33333333333334</ele><time>2026-05-01T11:21:39.057Z</time></trkpt><trkpt lat="41.7346842" lon="13.0802195"><ele>190.66666666666666</ele><time>2026-05-01T11:21:40.057Z</time></trkpt><trkpt lat="41.7346898" lon="13.0799439"><ele>191.0</ele><time>2026-05-01T11:21:41.057Z</time></trkpt><trkpt lat="41.7346954" lon="13.0796689"><ele>191.0</ele><time>2026-05-01T11:21:42.057Z</time></trkpt><trkpt lat="41.7347019" lon="13.079393"><ele>191.0</ele><time>2026-05-01T11:21:43.057Z</time></trkpt><trkpt lat="41.7347088" lon="13.0791152"><ele>191.0</ele><time>2026-05-01T11:21:44.056Z</time></trkpt><trkpt lat="41.734718" lon="13.0788324"><ele>191.0</ele><time>2026-05-01T11:21:45.056Z</time></trkpt><trkpt lat="41.7347265" lon="13.0785416"><ele>191.0</ele><time>2026-05-01T11:21:46.057Z</time></trkpt><trkpt lat="41.7347283" lon="13.078244"><ele>191.0</ele><time>2026-05-01T11:21:47.057Z</time></trkpt><trkpt lat="41.7347373" lon="13.0779378"><ele>191.5</ele><time>2026-05-01T11:21:48.056Z</time></trkpt><trkpt lat="41.7347574" lon="13.077629"><ele>192.0</ele><time>2026-05-01T11:21:49.056Z</time></trkpt><trkpt lat="41.7347884" lon="13.0773251"><ele>194.0</ele><time>2026-05-01T11:21:50.056Z</time></trkpt><trkpt lat="41.7348362" lon="13.0770276"><ele>196.0</ele><time>2026-05-01T11:21:51.057Z</time></trkpt><trkpt lat="41.7348949" lon="13.0767358"><ele>200.0</ele><time>2026-05-01T11:21:52.057Z</time></trkpt><trkpt lat="41.735049" lon="13.0761731"><ele>204.0</ele><time>2026-05-01T11:21:54.057Z</time></trkpt><trkpt lat="41.7351332" lon="13.0758959"><ele>205.0</ele><time>2026-05-01T11:21:55.057Z</time></trkpt><trkpt lat="41.7352248" lon="13.0756224"><ele>206.0</ele><time>2026-05-01T11:21:56.057Z</time></trkpt><trkpt lat="41.7353074" lon="13.0753497"><ele>207.0</ele><time>2026-05-01T11:21:57.057Z</time></trkpt><trkpt lat="41.7353774" lon="13.0750741"><ele>206.66666666666669</ele><time>2026-05-01T11:21:58.057Z</time></trkpt><trkpt lat="41.7354358" lon="13.0747981"><ele>206.33333333333334</ele><time>2026-05-01T11:21:59.057Z</time></trkpt><trkpt lat="41.7354808" lon="13.0745234"><ele>206.0</ele><time>2026-05-01T11:22:00.057Z</time></trkpt><trkpt lat="41.7355214" lon="13.0742592"><ele>206.0</ele><time>2026-05-01T11:22:01.057Z</time></trkpt><trkpt lat="41.7355635" lon="13.0740061"><ele>206.0</ele><time>2026-05-01T11:22:02.057Z</time></trkpt><trkpt lat="41.7356058" lon="13.0737548"><ele>206.0</ele><time>2026-05-01T11:22:03.057Z</time></trkpt><trkpt lat="41.7356491" lon="13.0735024"><ele>205.0</ele><time>2026-05-01T11:22:04.057Z</time></trkpt><trkpt lat="41.7356953" lon="13.0732509"><ele>204.0</ele><time>2026-05-01T11:22:05.057Z</time></trkpt><trkpt lat="41.7357472" lon="13.0729949"><ele>203.0</ele><time>2026-05-01T11:22:06.057Z</time></trkpt><trkpt lat="41.735805" lon="13.0727358"><ele>203.0</ele><time>2026-05-01T11:22:07.057Z</time></trkpt><trkpt lat="41.7358703" lon="13.0724715"><ele>203.0</ele><time>2026-05-01T11:22:08.057Z</time></trkpt><trkpt lat="41.7359437" lon="13.072205"><ele>203.0</ele><time>2026-05-01T11:22:09.057Z</time></trkpt><trkpt lat="41.7360244" lon="13.0719386"><ele>203.66666666666669</ele><time>2026-05-01T11:22:10.056Z</time></trkpt><trkpt lat="41.7361073" lon="13.0716658"><ele>204.33333333333331</ele><time>2026-05-01T11:22:11.057Z</time></trkpt><trkpt lat="41.736192" lon="13.0713903"><ele>205.0</ele><time>2026-05-01T11:22:12.057Z</time></trkpt><trkpt lat="41.7362817" lon="13.0711143"><ele>203.0</ele><time>2026-05-01T11:22:13.057Z</time></trkpt><trkpt lat="41.7363743" lon="13.0708386"><ele>201.0</ele><time>2026-05-01T11:22:14.057Z</time></trkpt><trkpt lat="41.736465" lon="13.0705593"><ele>199.0</ele><time>2026-05-01T11:22:15.057Z</time></trkpt><trkpt lat="41.7365554" lon="13.0702806"><ele>197.0</ele><time>2026-05-01T11:22:16.057Z</time></trkpt><trkpt lat="41.7366453" lon="13.0700018"><ele>194.5</ele><time>2026-05-01T11:22:17.056Z</time></trkpt><trkpt lat="41.7367345" lon="13.0697232"><ele>192.0</ele><time>2026-05-01T11:22:18.057Z</time></trkpt><trkpt lat="41.7368263" lon="13.0694472"><ele>194.33333333333331</ele><time>2026-05-01T11:22:19.057Z</time></trkpt><trkpt lat="41.7369165" lon="13.0691771"><ele>196.66666666666666</ele><time>2026-05-01T11:22:20.057Z</time></trkpt><trkpt lat="41.737" lon="13.06892"><ele>199.0</ele><time>2026-05-01T11:22:21.057Z</time></trkpt><trkpt lat="41.7370754" lon="13.0686804"><ele>199.0</ele><time>2026-05-01T11:22:22.057Z</time></trkpt><trkpt lat="41.7371381" lon="13.0684455"><ele>199.0</ele><time>2026-05-01T11:22:23.056Z</time></trkpt><trkpt lat="41.7371807" lon="13.0682072"><ele>199.0</ele><time>2026-05-01T11:22:24.057Z</time></trkpt><trkpt lat="41.737195" lon="13.067961"><ele>196.66666666666666</ele><time>2026-05-01T11:22:25.056Z</time></trkpt><trkpt lat="41.7371735" lon="13.0677149"><ele>194.33333333333331</ele><time>2026-05-01T11:22:26.056Z</time></trkpt><trkpt lat="41.7371154" lon="13.0674759"><ele>192.0</ele><time>2026-05-01T11:22:27.057Z</time></trkpt><trkpt lat="41.7370292" lon="13.0672456"><ele>191.33333333333334</ele><time>2026-05-01T11:22:28.057Z</time></trkpt><trkpt lat="41.7369307" lon="13.0670171"><ele>190.66666666666669</ele><time>2026-05-01T11:22:29.057Z</time></trkpt><trkpt lat="41.7368237" lon="13.0667886"><ele>190.0</ele><time>2026-05-01T11:22:30.057Z</time></trkpt><trkpt lat="41.7367119" lon="13.0665628"><ele>190.0</ele><time>2026-05-01T11:22:31.056Z</time></trkpt><trkpt lat="41.7366003" lon="13.0663385"><ele>190.0</ele><time>2026-05-01T11:22:32.057Z</time></trkpt><trkpt lat="41.7365027" lon="13.0661174"><ele>190.0</ele><time>2026-05-01T11:22:33.057Z</time></trkpt><trkpt lat="41.7364236" lon="13.0658928"><ele>190.66666666666669</ele><time>2026-05-01T11:22:34.057Z</time></trkpt><trkpt lat="41.7363696" lon="13.0656542"><ele>191.33333333333334</ele><time>2026-05-01T11:22:35.056Z</time></trkpt><trkpt lat="41.7363544" lon="13.0654023"><ele>192.0</ele><time>2026-05-01T11:22:36.056Z</time></trkpt><trkpt lat="41.7363807" lon="13.0651517"><ele>194.66666666666669</ele><time>2026-05-01T11:22:37.056Z</time></trkpt><trkpt lat="41.7364463" lon="13.0649112"><ele>197.33333333333334</ele><time>2026-05-01T11:22:38.057Z</time></trkpt><trkpt lat="41.7365456" lon="13.0646879"><ele>200.0</ele><time>2026-05-01T11:22:39.056Z</time></trkpt><trkpt lat="41.7366659" lon="13.0644748"><ele>200.0</ele><time>2026-05-01T11:22:40.056Z</time></trkpt><trkpt lat="41.7367964" lon="13.0642647"><ele>200.0</ele><time>2026-05-01T11:22:41.056Z</time></trkpt><trkpt lat="41.7369291" lon="13.0640495"><ele>200.0</ele><time>2026-05-01T11:22:42.057Z</time></trkpt><trkpt lat="41.7370621" lon="13.0638295"><ele>197.0</ele><time>2026-05-01T11:22:43.057Z</time></trkpt><trkpt lat="41.7372006" lon="13.0636078"><ele>194.0</ele><time>2026-05-01T11:22:44.057Z</time></trkpt><trkpt lat="41.7373403" lon="13.0633814"><ele>191.0</ele><time>2026-05-01T11:22:45.056Z</time></trkpt><trkpt lat="41.7374817" lon="13.0631526"><ele>191.0</ele><time>2026-05-01T11:22:46.056Z</time></trkpt><trkpt lat="41.7376257" lon="13.0629241"><ele>191.0</ele><time>2026-05-01T11:22:47.057Z</time></trkpt><trkpt lat="41.7377697" lon="13.0626938"><ele>191.0</ele><time>2026-05-01T11:22:48.056Z</time></trkpt><trkpt lat="41.7379131" lon="13.0624625"><ele>193.5</ele><time>2026-05-01T11:22:49.056Z</time></trkpt><trkpt lat="41.7380603" lon="13.0622337"><ele>196.0</ele><time>2026-05-01T11:22:50.056Z</time></trkpt><trkpt lat="41.7382133" lon="13.0620096"><ele>196.0</ele><time>2026-05-01T11:22:51.056Z</time></trkpt><trkpt lat="41.7383701" lon="13.0617878"><ele>196.0</ele><time>2026-05-01T11:22:52.057Z</time></trkpt><trkpt lat="41.7385371" lon="13.0615757"><ele>198.0</ele><time>2026-05-01T11:22:53.056Z</time></trkpt><trkpt lat="41.7387191" lon="13.061383"><ele>200.0</ele><time>2026-05-01T11:22:54.057Z</time></trkpt><trkpt lat="41.7389125" lon="13.0612066"><ele>200.0</ele><time>2026-05-01T11:22:55.056Z</time></trkpt><trkpt lat="41.7391086" lon="13.0610331"><ele>200.0</ele><time>2026-05-01T11:22:56.057Z</time></trkpt><trkpt lat="41.739302" lon="13.0608599"><ele>200.66666666666669</ele><time>2026-05-01T11:22:57.057Z</time></trkpt><trkpt lat="41.7394874" lon="13.0606941"><ele>201.33333333333331</ele><time>2026-05-01T11:22:58.057Z</time></trkpt><trkpt lat="41.739658" lon="13.0605379"><ele>202.0</ele><time>2026-05-01T11:22:59.057Z</time></trkpt><trkpt lat="41.73981" lon="13.0603785"><ele>202.0</ele><time>2026-05-01T11:23:00.057Z</time></trkpt><trkpt lat="41.7399443" lon="13.0601995"><ele>202.0</ele><time>2026-05-01T11:23:01.057Z</time></trkpt><trkpt lat="41.7400497" lon="13.0600057"><ele>202.0</ele><time>2026-05-01T11:23:02.056Z</time></trkpt><trkpt lat="41.74012" lon="13.059786"><ele>203.0</ele><time>2026-05-01T11:23:03.057Z</time></trkpt><trkpt lat="41.7401529" lon="13.0595455"><ele>204.0</ele><time>2026-05-01T11:23:04.056Z</time></trkpt><trkpt lat="41.7401524" lon="13.0592978"><ele>205.0</ele><time>2026-05-01T11:23:05.056Z</time></trkpt><trkpt lat="41.740119" lon="13.0590476"><ele>205.0</ele><time>2026-05-01T11:23:06.057Z</time></trkpt><trkpt lat="41.7400668" lon="13.058798"><ele>205.0</ele><time>2026-05-01T11:23:07.057Z</time></trkpt><trkpt lat="41.7399987" lon="13.0585496"><ele>205.0</ele><time>2026-05-01T11:23:08.057Z</time></trkpt><trkpt lat="41.7399212" lon="13.0582995"><ele>205.0</ele><time>2026-05-01T11:23:09.057Z</time></trkpt><trkpt lat="41.7398405" lon="13.0580477"><ele>205.0</ele><time>2026-05-01T11:23:10.056Z</time></trkpt><trkpt lat="41.7397591" lon="13.0577954"><ele>205.0</ele><time>2026-05-01T11:23:11.057Z</time></trkpt><trkpt lat="41.7396765" lon="13.0575403"><ele>205.0</ele><time>2026-05-01T11:23:12.057Z</time></trkpt><trkpt lat="41.7396009" lon="13.0572831"><ele>205.0</ele><time>2026-05-01T11:23:13.057Z</time></trkpt><trkpt lat="41.7395447" lon="13.0570306"><ele>205.0</ele><time>2026-05-01T11:23:14.057Z</time></trkpt><trkpt lat="41.7395171" lon="13.056791"><ele>206.66666666666666</ele><time>2026-05-01T11:23:15.057Z</time></trkpt><trkpt lat="41.7395246" lon="13.056562"><ele>208.33333333333331</ele><time>2026-05-01T11:23:16.057Z</time></trkpt><trkpt lat="41.739569" lon="13.0563423"><ele>210.0</ele><time>2026-05-01T11:23:17.057Z</time></trkpt><trkpt lat="41.7396503" lon="13.0561384"><ele>210.0</ele><time>2026-05-01T11:23:18.057Z</time></trkpt><trkpt lat="41.7397623" lon="13.0559587"><ele>210.0</ele><time>2026-05-01T11:23:19.057Z</time></trkpt><trkpt lat="41.7399055" lon="13.055804"><ele>210.0</ele><time>2026-05-01T11:23:20.057Z</time></trkpt><trkpt lat="41.7400687" lon="13.0556859"><ele>212.33333333333331</ele><time>2026-05-01T11:23:21.057Z</time></trkpt><trkpt lat="41.740236" lon="13.0555643"><ele>214.66666666666666</ele><time>2026-05-01T11:23:22.057Z</time></trkpt><trkpt lat="41.7403988" lon="13.0554298"><ele>217.0</ele><time>2026-05-01T11:23:23.057Z</time></trkpt><trkpt lat="41.7405543" lon="13.0552793"><ele>217.0</ele><time>2026-05-01T11:23:24.056Z</time></trkpt><trkpt lat="41.7406862" lon="13.055092"><ele>217.0</ele><time>2026-05-01T11:23:25.057Z</time></trkpt><trkpt lat="41.7408035" lon="13.0548798"><ele>217.0</ele><time>2026-05-01T11:23:26.056Z</time></trkpt><trkpt lat="41.7409159" lon="13.0546568"><ele>218.66666666666666</ele><time>2026-05-01T11:23:27.056Z</time></trkpt><trkpt lat="41.7410212" lon="13.0544225"><ele>220.33333333333331</ele><time>2026-05-01T11:23:28.056Z</time></trkpt><trkpt lat="41.741128" lon="13.0541845"><ele>222.0</ele><time>2026-05-01T11:23:29.057Z</time></trkpt><trkpt lat="41.7412394" lon="13.0539458"><ele>224.33333333333331</ele><time>2026-05-01T11:23:30.057Z</time></trkpt><trkpt lat="41.741353" lon="13.0537053"><ele>226.66666666666666</ele><time>2026-05-01T11:23:31.056Z</time></trkpt><trkpt lat="41.7414634" lon="13.0534595"><ele>229.0</ele><time>2026-05-01T11:23:32.057Z</time></trkpt><trkpt lat="41.7415712" lon="13.0532093"><ele>229.66666666666666</ele><time>2026-05-01T11:23:33.057Z</time></trkpt><trkpt lat="41.7416772" lon="13.0529557"><ele>230.33333333333331</ele><time>2026-05-01T11:23:34.057Z</time></trkpt><trkpt lat="41.7417875" lon="13.0527039"><ele>231.0</ele><time>2026-05-01T11:23:35.057Z</time></trkpt><trkpt lat="41.7418995" lon="13.0524534"><ele>231.0</ele><time>2026-05-01T11:23:36.056Z</time></trkpt><trkpt lat="41.7420041" lon="13.0522006"><ele>231.0</ele><time>2026-05-01T11:23:37.057Z</time></trkpt><trkpt lat="41.7420967" lon="13.0519451"><ele>231.0</ele><time>2026-05-01T11:23:38.057Z</time></trkpt><trkpt lat="41.7421762" lon="13.0516865"><ele>232.33333333333331</ele><time>2026-05-01T11:23:39.057Z</time></trkpt><trkpt lat="41.7422392" lon="13.0514227"><ele>233.66666666666666</ele><time>2026-05-01T11:23:40.056Z</time></trkpt><trkpt lat="41.742286" lon="13.051158"><ele>235.0</ele><time>2026-05-01T11:23:41.057Z</time></trkpt><trkpt lat="41.7423202" lon="13.0508913"><ele>235.0</ele><time>2026-05-01T11:23:42.057Z</time></trkpt><trkpt lat="41.742348" lon="13.0506247"><ele>235.0</ele><time>2026-05-01T11:23:43.056Z</time></trkpt><trkpt lat="41.742375" lon="13.050357"><ele>235.0</ele><time>2026-05-01T11:23:44.056Z</time></trkpt><trkpt lat="41.742405" lon="13.0500868"><ele>234.66666666666666</ele><time>2026-05-01T11:23:45.057Z</time></trkpt><trkpt lat="41.7424365" lon="13.0498129"><ele>234.33333333333331</ele><time>2026-05-01T11:23:46.057Z</time></trkpt><trkpt lat="41.742465" lon="13.0495368"><ele>234.0</ele><time>2026-05-01T11:23:47.056Z</time></trkpt><trkpt lat="41.7424907" lon="13.0492614"><ele>233.66666666666669</ele><time>2026-05-01T11:23:48.057Z</time></trkpt><trkpt lat="41.7425165" lon="13.0489802"><ele>233.33333333333334</ele><time>2026-05-01T11:23:49.057Z</time></trkpt><trkpt lat="41.7425438" lon="13.048699"><ele>233.0</ele><time>2026-05-01T11:23:50.057Z</time></trkpt><trkpt lat="41.7425707" lon="13.0484213"><ele>233.33333333333334</ele><time>2026-05-01T11:23:51.057Z</time></trkpt><trkpt lat="41.742596" lon="13.0481478"><ele>233.66666666666669</ele><time>2026-05-01T11:23:52.057Z</time></trkpt><trkpt lat="41.7426197" lon="13.0478914"><ele>234.0</ele><time>2026-05-01T11:23:53.057Z</time></trkpt><trkpt lat="41.7426422" lon="13.0476444"><ele>234.33333333333331</ele><time>2026-05-01T11:23:54.056Z</time></trkpt><trkpt lat="41.7426628" lon="13.0474007"><ele>234.66666666666666</ele><time>2026-05-01T11:23:55.056Z</time></trkpt><trkpt lat="41.7426837" lon="13.0471572"><ele>235.0</ele><time>2026-05-01T11:23:56.057Z</time></trkpt><trkpt lat="41.7427076" lon="13.046914"><ele>234.33333333333331</ele><time>2026-05-01T11:23:57.057Z</time></trkpt><trkpt lat="41.742734" lon="13.0466726"><ele>233.66666666666669</ele><time>2026-05-01T11:23:58.056Z</time></trkpt><trkpt lat="41.7427582" lon="13.0464271"><ele>233.0</ele><time>2026-05-01T11:23:59.056Z</time></trkpt><trkpt lat="41.7427791" lon="13.046181"><ele>233.0</ele><time>2026-05-01T11:24:00.057Z</time></trkpt><trkpt lat="41.7427998" lon="13.0459311"><ele>233.0</ele><time>2026-05-01T11:24:01.057Z</time></trkpt><trkpt lat="41.7428235" lon="13.0456803"><ele>233.0</ele><time>2026-05-01T11:24:02.057Z</time></trkpt><trkpt lat="41.7428405" lon="13.0454254"><ele>233.0</ele><time>2026-05-01T11:24:03.056Z</time></trkpt><trkpt lat="41.742848" lon="13.045167"><ele>233.0</ele><time>2026-05-01T11:24:04.057Z</time></trkpt><trkpt lat="41.7428453" lon="13.0449045"><ele>233.0</ele><time>2026-05-01T11:24:05.056Z</time></trkpt><trkpt lat="41.7428368" lon="13.0446386"><ele>233.0</ele><time>2026-05-01T11:24:06.057Z</time></trkpt><trkpt lat="41.7428241" lon="13.0443674"><ele>233.0</ele><time>2026-05-01T11:24:07.057Z</time></trkpt><trkpt lat="41.7428105" lon="13.044089"><ele>233.0</ele><time>2026-05-01T11:24:08.056Z</time></trkpt><trkpt lat="41.7427947" lon="13.0438045"><ele>232.33333333333334</ele><time>2026-05-01T11:24:09.056Z</time></trkpt><trkpt lat="41.7427785" lon="13.0435156"><ele>231.66666666666669</ele><time>2026-05-01T11:24:10.057Z</time></trkpt><trkpt lat="41.7427624" lon="13.0432296"><ele>231.0</ele><time>2026-05-01T11:24:11.057Z</time></trkpt><trkpt lat="41.7427431" lon="13.0429486"><ele>230.33333333333331</ele><time>2026-05-01T11:24:12.057Z</time></trkpt><trkpt lat="41.7427228" lon="13.0426682"><ele>229.66666666666666</ele><time>2026-05-01T11:24:13.056Z</time></trkpt><trkpt lat="41.7427029" lon="13.0423885"><ele>229.0</ele><time>2026-05-01T11:24:14.057Z</time></trkpt><trkpt lat="41.7426816" lon="13.0421081"><ele>227.0</ele><time>2026-05-01T11:24:15.057Z</time></trkpt><trkpt lat="41.7426566" lon="13.0418278"><ele>225.0</ele><time>2026-05-01T11:24:16.057Z</time></trkpt><trkpt lat="41.7426304" lon="13.0415493"><ele>223.0</ele><time>2026-05-01T11:24:17.057Z</time></trkpt><trkpt lat="41.7426062" lon="13.0412708"><ele>223.0</ele><time>2026-05-01T11:24:18.057Z</time></trkpt><trkpt lat="41.7425896" lon="13.0409937"><ele>223.0</ele><time>2026-05-01T11:24:19.057Z</time></trkpt><trkpt lat="41.7425871" lon="13.0407172"><ele>223.0</ele><time>2026-05-01T11:24:20.057Z</time></trkpt><trkpt lat="41.7425965" lon="13.0404408"><ele>223.33333333333331</ele><time>2026-05-01T11:24:21.057Z</time></trkpt><trkpt lat="41.7426127" lon="13.0401643"><ele>223.66666666666669</ele><time>2026-05-01T11:24:22.057Z</time></trkpt><trkpt lat="41.7426282" lon="13.0398854"><ele>224.0</ele><time>2026-05-01T11:24:23.056Z</time></trkpt><trkpt lat="41.7426474" lon="13.0396044"><ele>224.66666666666669</ele><time>2026-05-01T11:24:24.056Z</time></trkpt><trkpt lat="41.7426703" lon="13.0393233"><ele>225.33333333333331</ele><time>2026-05-01T11:24:25.056Z</time></trkpt><trkpt lat="41.7426924" lon="13.0390438"><ele>226.0</ele><time>2026-05-01T11:24:26.057Z</time></trkpt><trkpt lat="41.7427131" lon="13.0387664"><ele>228.33333333333331</ele><time>2026-05-01T11:24:27.057Z</time></trkpt><trkpt lat="41.7427369" lon="13.0384892"><ele>230.66666666666669</ele><time>2026-05-01T11:24:28.057Z</time></trkpt><trkpt lat="41.7427633" lon="13.0382172"><ele>233.0</ele><time>2026-05-01T11:24:29.057Z</time></trkpt><trkpt lat="41.742785" lon="13.0379432"><ele>233.33333333333334</ele><time>2026-05-01T11:24:30.057Z</time></trkpt><trkpt lat="41.7428001" lon="13.0376708"><ele>233.66666666666669</ele><time>2026-05-01T11:24:31.057Z</time></trkpt><trkpt lat="41.7428072" lon="13.0374048"><ele>234.0</ele><time>2026-05-01T11:24:32.057Z</time></trkpt><trkpt lat="41.7427943" lon="13.0371355"><ele>234.0</ele><time>2026-05-01T11:24:33.057Z</time></trkpt><trkpt lat="41.7427598" lon="13.036867"><ele>234.0</ele><time>2026-05-01T11:24:34.057Z</time></trkpt><trkpt lat="41.742709" lon="13.0365961"><ele>234.0</ele><time>2026-05-01T11:24:35.057Z</time></trkpt><trkpt lat="41.7426513" lon="13.0363193"><ele>232.0</ele><time>2026-05-01T11:24:36.057Z</time></trkpt><trkpt lat="41.7425941" lon="13.0360401"><ele>230.0</ele><time>2026-05-01T11:24:37.057Z</time></trkpt><trkpt lat="41.7425388" lon="13.0357576"><ele>228.0</ele><time>2026-05-01T11:24:38.057Z</time></trkpt><trkpt lat="41.7424829" lon="13.0354739"><ele>226.33333333333331</ele><time>2026-05-01T11:24:39.056Z</time></trkpt><trkpt lat="41.7424242" lon="13.0351888"><ele>224.66666666666666</ele><time>2026-05-01T11:24:40.057Z</time></trkpt><trkpt lat="41.7423636" lon="13.0349042"><ele>223.0</ele><time>2026-05-01T11:24:41.057Z</time></trkpt><trkpt lat="41.7422985" lon="13.0346202"><ele>220.0</ele><time>2026-05-01T11:24:42.057Z</time></trkpt><trkpt lat="41.7422294" lon="13.0343371"><ele>217.0</ele><time>2026-05-01T11:24:43.057Z</time></trkpt><trkpt lat="41.7421509" lon="13.0340591"><ele>214.0</ele><time>2026-05-01T11:24:44.057Z</time></trkpt><trkpt lat="41.7420645" lon="13.0337843"><ele>212.0</ele><time>2026-05-01T11:24:45.057Z</time></trkpt><trkpt lat="41.7419647" lon="13.0335183"><ele>210.0</ele><time>2026-05-01T11:24:46.056Z</time></trkpt><trkpt lat="41.7418589" lon="13.0332548"><ele>208.0</ele><time>2026-05-01T11:24:47.057Z</time></trkpt><trkpt lat="41.7417593" lon="13.0329969"><ele>206.66666666666666</ele><time>2026-05-01T11:24:48.056Z</time></trkpt><trkpt lat="41.7416598" lon="13.0327417"><ele>205.33333333333331</ele><time>2026-05-01T11:24:49.057Z</time></trkpt><trkpt lat="41.741564" lon="13.032489"><ele>204.0</ele><time>2026-05-01T11:24:50.057Z</time></trkpt><trkpt lat="41.7414657" lon="13.0322346"><ele>203.33333333333331</ele><time>2026-05-01T11:24:51.057Z</time></trkpt><trkpt lat="41.7413697" lon="13.0319934"><ele>202.66666666666666</ele><time>2026-05-01T11:24:52.057Z</time></trkpt><trkpt lat="41.7412831" lon="13.0317583"><ele>202.0</ele><time>2026-05-01T11:24:53.056Z</time></trkpt><trkpt lat="41.7411959" lon="13.0315339"><ele>201.66666666666666</ele><time>2026-05-01T11:24:54.056Z</time></trkpt><trkpt lat="41.7411139" lon="13.0313104"><ele>201.33333333333331</ele><time>2026-05-01T11:24:55.057Z</time></trkpt><trkpt lat="41.7410419" lon="13.0310818"><ele>201.0</ele><time>2026-05-01T11:24:56.056Z</time></trkpt><trkpt lat="41.740979" lon="13.0308442"><ele>200.33333333333331</ele><time>2026-05-01T11:24:57.057Z</time></trkpt><trkpt lat="41.740928" lon="13.0306003"><ele>199.66666666666666</ele><time>2026-05-01T11:24:58.057Z</time></trkpt><trkpt lat="41.7408858" lon="13.0303633"><ele>199.0</ele><time>2026-05-01T11:24:59.057Z</time></trkpt><trkpt lat="41.7408471" lon="13.0301287"><ele>199.0</ele><time>2026-05-01T11:25:00.057Z</time></trkpt><trkpt lat="41.7408078" lon="13.0298921"><ele>199.0</ele><time>2026-05-01T11:25:01.057Z</time></trkpt><trkpt lat="41.7407663" lon="13.0296539"><ele>199.0</ele><time>2026-05-01T11:25:02.057Z</time></trkpt><trkpt lat="41.7407106" lon="13.0294078"><ele>199.0</ele><time>2026-05-01T11:25:03.057Z</time></trkpt><trkpt lat="41.7406599" lon="13.0291444"><ele>199.0</ele><time>2026-05-01T11:25:04.056Z</time></trkpt><trkpt lat="41.7406216" lon="13.0288647"><ele>199.0</ele><time>2026-05-01T11:25:05.057Z</time></trkpt><trkpt lat="41.7405779" lon="13.0285758"><ele>198.5</ele><time>2026-05-01T11:25:06.057Z</time></trkpt><trkpt lat="41.7405315" lon="13.0282799"><ele>198.0</ele><time>2026-05-01T11:25:07.057Z</time></trkpt><trkpt lat="41.7404845" lon="13.0279801"><ele>198.0</ele><time>2026-05-01T11:25:08.057Z</time></trkpt><trkpt lat="41.7404369" lon="13.0276791"><ele>198.0</ele><time>2026-05-01T11:25:09.056Z</time></trkpt><trkpt lat="41.7403869" lon="13.0273768"><ele>198.5</ele><time>2026-05-01T11:25:10.057Z</time></trkpt><trkpt lat="41.7403381" lon="13.0270751"><ele>199.0</ele><time>2026-05-01T11:25:11.057Z</time></trkpt><trkpt lat="41.7402875" lon="13.0267748"><ele>199.0</ele><time>2026-05-01T11:25:12.057Z</time></trkpt><trkpt lat="41.740233" lon="13.0264828"><ele>199.0</ele><time>2026-05-01T11:25:13.057Z</time></trkpt><trkpt lat="41.7401788" lon="13.0262099"><ele>199.0</ele><time>2026-05-01T11:25:14.057Z</time></trkpt><trkpt lat="41.7401196" lon="13.0259559"><ele>198.66666666666666</ele><time>2026-05-01T11:25:15.057Z</time></trkpt><trkpt lat="41.7400622" lon="13.0257319"><ele>198.33333333333331</ele><time>2026-05-01T11:25:16.057Z</time></trkpt><trkpt lat="41.7400032" lon="13.0255344"><ele>198.0</ele><time>2026-05-01T11:25:17.057Z</time></trkpt><trkpt lat="41.7399439" lon="13.0253521"><ele>198.0</ele><time>2026-05-01T11:25:18.057Z</time></trkpt><trkpt lat="41.7398964" lon="13.0251646"><ele>198.0</ele><time>2026-05-01T11:25:19.057Z</time></trkpt><trkpt lat="41.7398602" lon="13.0249525"><ele>198.0</ele><time>2026-05-01T11:25:20.057Z</time></trkpt><trkpt lat="41.7398141" lon="13.0247271"><ele>198.0</ele><time>2026-05-01T11:25:21.057Z</time></trkpt><trkpt lat="41.7397667" lon="13.0244866"><ele>198.0</ele><time>2026-05-01T11:25:22.057Z</time></trkpt><trkpt lat="41.7397192" lon="13.0242325"><ele>198.0</ele><time>2026-05-01T11:25:23.057Z</time></trkpt><trkpt lat="41.7396665" lon="13.0239703"><ele>198.0</ele><time>2026-05-01T11:25:24.057Z</time></trkpt><trkpt lat="41.7396117" lon="13.0237103"><ele>198.0</ele><time>2026-05-01T11:25:25.056Z</time></trkpt><trkpt lat="41.7395585" lon="13.0234545"><ele>198.0</ele><time>2026-05-01T11:25:26.057Z</time></trkpt><trkpt lat="41.7395034" lon="13.0231951"><ele>198.33333333333331</ele><time>2026-05-01T11:25:27.057Z</time></trkpt><trkpt lat="41.73945" lon="13.0229332"><ele>198.66666666666666</ele><time>2026-05-01T11:25:28.057Z</time></trkpt><trkpt lat="41.7394016" lon="13.0226675"><ele>199.0</ele><time>2026-05-01T11:25:29.056Z</time></trkpt><trkpt lat="41.7393579" lon="13.0224"><ele>199.0</ele><time>2026-05-01T11:25:30.057Z</time></trkpt><trkpt lat="41.7393157" lon="13.0221308"><ele>199.0</ele><time>2026-05-01T11:25:31.057Z</time></trkpt><trkpt lat="41.7392757" lon="13.0218608"><ele>199.0</ele><time>2026-05-01T11:25:32.057Z</time></trkpt><trkpt lat="41.7392346" lon="13.0215894"><ele>199.0</ele><time>2026-05-01T11:25:33.057Z</time></trkpt><trkpt lat="41.7391921" lon="13.021315"><ele>199.0</ele><time>2026-05-01T11:25:34.057Z</time></trkpt><trkpt lat="41.7391502" lon="13.0210381"><ele>199.0</ele><time>2026-05-01T11:25:35.057Z</time></trkpt><trkpt lat="41.7391082" lon="13.0207631"><ele>199.0</ele><time>2026-05-01T11:25:36.057Z</time></trkpt><trkpt lat="41.7390649" lon="13.0204868"><ele>199.0</ele><time>2026-05-01T11:25:37.056Z</time></trkpt><trkpt lat="41.7390246" lon="13.0202084"><ele>199.0</ele><time>2026-05-01T11:25:38.057Z</time></trkpt><trkpt lat="41.7389848" lon="13.0199313"><ele>200.0</ele><time>2026-05-01T11:25:39.057Z</time></trkpt><trkpt lat="41.7389452" lon="13.0196557"><ele>201.0</ele><time>2026-05-01T11:25:40.057Z</time></trkpt><trkpt lat="41.7389043" lon="13.0193843"><ele>202.0</ele><time>2026-05-01T11:25:41.057Z</time></trkpt><trkpt lat="41.7388633" lon="13.0191171"><ele>203.33333333333331</ele><time>2026-05-01T11:25:42.057Z</time></trkpt><trkpt lat="41.7388186" lon="13.0188541"><ele>204.66666666666669</ele><time>2026-05-01T11:25:43.057Z</time></trkpt><trkpt lat="41.7387598" lon="13.0185992"><ele>206.0</ele><time>2026-05-01T11:25:44.057Z</time></trkpt><trkpt lat="41.7386782" lon="13.0183581"><ele>205.0</ele><time>2026-05-01T11:25:45.057Z</time></trkpt><trkpt lat="41.7385737" lon="13.0181323"><ele>204.0</ele><time>2026-05-01T11:25:46.057Z</time></trkpt><trkpt lat="41.7384481" lon="13.0179256"><ele>203.0</ele><time>2026-05-01T11:25:47.057Z</time></trkpt><trkpt lat="41.7383085" lon="13.0177328"><ele>203.0</ele><time>2026-05-01T11:25:48.057Z</time></trkpt><trkpt lat="41.7381687" lon="13.0175404"><ele>203.0</ele><time>2026-05-01T11:25:49.056Z</time></trkpt><trkpt lat="41.7380456" lon="13.0173283"><ele>203.0</ele><time>2026-05-01T11:25:50.057Z</time></trkpt><trkpt lat="41.737948" lon="13.0170942"><ele>204.0</ele><time>2026-05-01T11:25:51.057Z</time></trkpt><trkpt lat="41.7378706" lon="13.0168495"><ele>205.0</ele><time>2026-05-01T11:25:52.057Z</time></trkpt><trkpt lat="41.7378234" lon="13.0165944"><ele>206.0</ele><time>2026-05-01T11:25:53.057Z</time></trkpt><trkpt lat="41.7378103" lon="13.0163326"><ele>206.0</ele><time>2026-05-01T11:25:54.056Z</time></trkpt><trkpt lat="41.7378307" lon="13.0160719"><ele>206.0</ele><time>2026-05-01T11:25:55.057Z</time></trkpt><trkpt lat="41.7378866" lon="13.0158181"><ele>206.0</ele><time>2026-05-01T11:25:56.056Z</time></trkpt><trkpt lat="41.7379744" lon="13.0155805"><ele>206.0</ele><time>2026-05-01T11:25:57.056Z</time></trkpt><trkpt lat="41.7382259" lon="13.0151505"><ele>206.0</ele><time>2026-05-01T11:25:59.057Z</time></trkpt><trkpt lat="41.7383735" lon="13.0149441"><ele>205.66666666666669</ele><time>2026-05-01T11:26:00.057Z</time></trkpt><trkpt lat="41.738524" lon="13.0147374"><ele>205.33333333333331</ele><time>2026-05-01T11:26:01.056Z</time></trkpt><trkpt lat="41.7386801" lon="13.0145341"><ele>205.0</ele><time>2026-05-01T11:26:02.057Z</time></trkpt><trkpt lat="41.7388377" lon="13.0143297"><ele>205.0</ele><time>2026-05-01T11:26:03.057Z</time></trkpt><trkpt lat="41.7389937" lon="13.0141198"><ele>205.0</ele><time>2026-05-01T11:26:04.057Z</time></trkpt><trkpt lat="41.7391516" lon="13.0139105"><ele>205.0</ele><time>2026-05-01T11:26:05.056Z</time></trkpt><trkpt lat="41.7393136" lon="13.0137033"><ele>205.0</ele><time>2026-05-01T11:26:06.057Z</time></trkpt><trkpt lat="41.7394716" lon="13.0135001"><ele>205.0</ele><time>2026-05-01T11:26:07.056Z</time></trkpt><trkpt lat="41.7396227" lon="13.0133027"><ele>205.0</ele><time>2026-05-01T11:26:08.057Z</time></trkpt><trkpt lat="41.7397655" lon="13.013113"><ele>205.0</ele><time>2026-05-01T11:26:09.056Z</time></trkpt><trkpt lat="41.7399003" lon="13.0129317"><ele>205.0</ele><time>2026-05-01T11:26:10.057Z</time></trkpt><trkpt lat="41.7400271" lon="13.0127498"><ele>205.0</ele><time>2026-05-01T11:26:11.056Z</time></trkpt><trkpt lat="41.740136" lon="13.0125536"><ele>205.33333333333331</ele><time>2026-05-01T11:26:12.056Z</time></trkpt><trkpt lat="41.7402241" lon="13.0123408"><ele>205.66666666666669</ele><time>2026-05-01T11:26:13.057Z</time></trkpt><trkpt lat="41.7402828" lon="13.0121107"><ele>206.0</ele><time>2026-05-01T11:26:14.057Z</time></trkpt><trkpt lat="41.7403141" lon="13.0118685"><ele>206.0</ele><time>2026-05-01T11:26:15.057Z</time></trkpt><trkpt lat="41.7403232" lon="13.0116154"><ele>206.0</ele><time>2026-05-01T11:26:16.056Z</time></trkpt><trkpt lat="41.7403099" lon="13.0113554"><ele>206.0</ele><time>2026-05-01T11:26:17.056Z</time></trkpt><trkpt lat="41.7402877" lon="13.011092"><ele>205.66666666666669</ele><time>2026-05-01T11:26:18.057Z</time></trkpt><trkpt lat="41.7402664" lon="13.0108238"><ele>205.33333333333331</ele><time>2026-05-01T11:26:19.057Z</time></trkpt><trkpt lat="41.740243" lon="13.0105525"><ele>205.0</ele><time>2026-05-01T11:26:20.057Z</time></trkpt><trkpt lat="41.7402205" lon="13.0102789"><ele>205.0</ele><time>2026-05-01T11:26:21.057Z</time></trkpt><trkpt lat="41.7401957" lon="13.010003"><ele>205.0</ele><time>2026-05-01T11:26:22.057Z</time></trkpt><trkpt lat="41.7401718" lon="13.0097261"><ele>205.0</ele><time>2026-05-01T11:26:23.057Z</time></trkpt><trkpt lat="41.7401464" lon="13.0094484"><ele>205.0</ele><time>2026-05-01T11:26:24.057Z</time></trkpt><trkpt lat="41.7401193" lon="13.009173"><ele>205.0</ele><time>2026-05-01T11:26:25.056Z</time></trkpt><trkpt lat="41.7400913" lon="13.0089021"><ele>205.0</ele><time>2026-05-01T11:26:26.057Z</time></trkpt><trkpt lat="41.7400668" lon="13.0086445"><ele>205.0</ele><time>2026-05-01T11:26:27.056Z</time></trkpt><trkpt lat="41.7400444" lon="13.0083987"><ele>205.0</ele><time>2026-05-01T11:26:28.057Z</time></trkpt><trkpt lat="41.7400229" lon="13.0081658"><ele>205.0</ele><time>2026-05-01T11:26:29.056Z</time></trkpt><trkpt lat="41.7399998" lon="13.0079445"><ele>205.0</ele><time>2026-05-01T11:26:30.057Z</time></trkpt><trkpt lat="41.7399732" lon="13.0077349"><ele>205.0</ele><time>2026-05-01T11:26:31.057Z</time></trkpt><trkpt lat="41.7399419" lon="13.0075366"><ele>205.0</ele><time>2026-05-01T11:26:32.057Z</time></trkpt><trkpt lat="41.7399062" lon="13.0073504"><ele>204.75</ele><time>2026-05-01T11:26:33.057Z</time></trkpt><trkpt lat="41.7398719" lon="13.007173"><ele>204.5</ele><time>2026-05-01T11:26:34.056Z</time></trkpt><trkpt lat="41.7398575" lon="13.0069997"><ele>204.25</ele><time>2026-05-01T11:26:35.056Z</time></trkpt><trkpt lat="41.7398606" lon="13.0068262"><ele>204.0</ele><time>2026-05-01T11:26:36.057Z</time></trkpt><trkpt lat="41.7398442" lon="13.0066496"><ele>204.75</ele><time>2026-05-01T11:26:37.057Z</time></trkpt><trkpt lat="41.7398149" lon="13.0064723"><ele>205.5</ele><time>2026-05-01T11:26:38.057Z</time></trkpt><trkpt lat="41.7398093" lon="13.0062842"><ele>206.25</ele><time>2026-05-01T11:26:39.057Z</time></trkpt><trkpt lat="41.7398337" lon="13.0060868"><ele>207.0</ele><time>2026-05-01T11:26:40.056Z</time></trkpt><trkpt lat="41.7398834" lon="13.005888"><ele>206.33333333333331</ele><time>2026-05-01T11:26:41.056Z</time></trkpt><trkpt lat="41.7399678" lon="13.0057016"><ele>205.66666666666666</ele><time>2026-05-01T11:26:42.056Z</time></trkpt><trkpt lat="41.7400795" lon="13.0055388"><ele>205.0</ele><time>2026-05-01T11:26:43.057Z</time></trkpt><trkpt lat="41.7402105" lon="13.0054037"><ele>205.0</ele><time>2026-05-01T11:26:44.057Z</time></trkpt><trkpt lat="41.7403418" lon="13.0052997"><ele>205.0</ele><time>2026-05-01T11:26:45.057Z</time></trkpt><trkpt lat="41.740458" lon="13.0052056"><ele>205.0</ele><time>2026-05-01T11:26:46.057Z</time></trkpt><trkpt lat="41.7405776" lon="13.0051344"><ele>205.0</ele><time>2026-05-01T11:26:47.057Z</time></trkpt><trkpt lat="41.740712" lon="13.005086"><ele>205.0</ele><time>2026-05-01T11:26:48.057Z</time></trkpt><trkpt lat="41.7408559" lon="13.0050218"><ele>205.0</ele><time>2026-05-01T11:26:49.057Z</time></trkpt><trkpt lat="41.7410083" lon="13.0049441"><ele>205.0</ele><time>2026-05-01T11:26:50.057Z</time></trkpt><trkpt lat="41.7411679" lon="13.0048598"><ele>205.66666666666666</ele><time>2026-05-01T11:26:51.057Z</time></trkpt><trkpt lat="41.7413252" lon="13.0047798"><ele>206.33333333333331</ele><time>2026-05-01T11:26:52.057Z</time></trkpt><trkpt lat="41.7414721" lon="13.0047062"><ele>207.0</ele><time>2026-05-01T11:26:53.057Z</time></trkpt><trkpt lat="41.7416106" lon="13.0046341"><ele>207.0</ele><time>2026-05-01T11:26:54.057Z</time></trkpt><trkpt lat="41.7417425" lon="13.0045652"><ele>207.0</ele><time>2026-05-01T11:26:55.057Z</time></trkpt><trkpt lat="41.7418514" lon="13.0045061"><ele>207.0</ele><time>2026-05-01T11:26:56.057Z</time></trkpt><trkpt lat="41.7419324" lon="13.0044596"><ele>207.0</ele><time>2026-05-01T11:26:57.056Z</time></trkpt><trkpt lat="41.7420022" lon="13.004428"><ele>207.0</ele><time>2026-05-01T11:26:58.057Z</time></trkpt><trkpt lat="41.7420683" lon="13.0044015"><ele>207.5</ele><time>2026-05-01T11:26:59.057Z</time></trkpt><trkpt lat="41.7421337" lon="13.0043806"><ele>208.0</ele><time>2026-05-01T11:27:00.056Z</time></trkpt><trkpt lat="41.7422119" lon="13.0043618"><ele>208.5</ele><time>2026-05-01T11:27:01.057Z</time></trkpt><trkpt lat="41.7422961" lon="13.004329"><ele>209.0</ele><time>2026-05-01T11:27:02.057Z</time></trkpt><trkpt lat="41.7423808" lon="13.0042915"><ele>209.5</ele><time>2026-05-01T11:27:03.057Z</time></trkpt><trkpt lat="41.742475" lon="13.0042508"><ele>210.0</ele><time>2026-05-01T11:27:04.057Z</time></trkpt><trkpt lat="41.7425622" lon="13.0042101"><ele>210.0</ele><time>2026-05-01T11:27:05.057Z</time></trkpt><trkpt lat="41.7426568" lon="13.0041658"><ele>210.0</ele><time>2026-05-01T11:27:06.057Z</time></trkpt><trkpt lat="41.7427589" lon="13.0041134"><ele>210.0</ele><time>2026-05-01T11:27:07.056Z</time></trkpt><trkpt lat="41.7428634" lon="13.0040525"><ele>210.0</ele><time>2026-05-01T11:27:08.057Z</time></trkpt><trkpt lat="41.7429607" lon="13.0039834"><ele>210.0</ele><time>2026-05-01T11:27:09.057Z</time></trkpt><trkpt lat="41.7430616" lon="13.0038891"><ele>210.75</ele><time>2026-05-01T11:27:10.057Z</time></trkpt><trkpt lat="41.7431608" lon="13.0037722"><ele>211.5</ele><time>2026-05-01T11:27:11.057Z</time></trkpt><trkpt lat="41.743259" lon="13.003632"><ele>212.25</ele><time>2026-05-01T11:27:12.057Z</time></trkpt><trkpt lat="41.7433456" lon="13.0034899"><ele>213.0</ele><time>2026-05-01T11:27:13.057Z</time></trkpt><trkpt lat="41.7434166" lon="13.0033429"><ele>212.75</ele><time>2026-05-01T11:27:14.057Z</time></trkpt><trkpt lat="41.7434815" lon="13.0031858"><ele>212.5</ele><time>2026-05-01T11:27:15.057Z</time></trkpt><trkpt lat="41.7435366" lon="13.0030343"><ele>212.25</ele><time>2026-05-01T11:27:16.056Z</time></trkpt><trkpt lat="41.7435864" lon="13.0028874"><ele>212.0</ele><time>2026-05-01T11:27:17.057Z</time></trkpt><trkpt lat="41.743635" lon="13.0027482"><ele>212.0</ele><time>2026-05-01T11:27:18.057Z</time></trkpt><trkpt lat="41.7436833" lon="13.0026095"><ele>212.0</ele><time>2026-05-01T11:27:19.056Z</time></trkpt><trkpt lat="41.7437339" lon="13.0024611"><ele>212.0</ele><time>2026-05-01T11:27:20.057Z</time></trkpt><trkpt lat="41.7437865" lon="13.0023038"><ele>212.0</ele><time>2026-05-01T11:27:21.057Z</time></trkpt><trkpt lat="41.7438426" lon="13.0021335"><ele>211.0</ele><time>2026-05-01T11:27:22.057Z</time></trkpt><trkpt lat="41.7438962" lon="13.0019518"><ele>210.0</ele><time>2026-05-01T11:27:23.057Z</time></trkpt><trkpt lat="41.7439373" lon="13.0017517"><ele>209.0</ele><time>2026-05-01T11:27:24.057Z</time></trkpt><trkpt lat="41.7439678" lon="13.0015387"><ele>208.66666666666669</ele><time>2026-05-01T11:27:25.057Z</time></trkpt><trkpt lat="41.7439876" lon="13.0013155"><ele>208.33333333333331</ele><time>2026-05-01T11:27:26.057Z</time></trkpt><trkpt lat="41.7440008" lon="13.001086"><ele>208.0</ele><time>2026-05-01T11:27:27.057Z</time></trkpt><trkpt lat="41.7440073" lon="13.0008636"><ele>208.0</ele><time>2026-05-01T11:27:28.057Z</time></trkpt><trkpt lat="41.7440074" lon="13.0006459"><ele>208.0</ele><time>2026-05-01T11:27:29.057Z</time></trkpt><trkpt lat="41.744006" lon="13.000202"><ele>208.0</ele><time>2026-05-01T11:27:31.057Z</time></trkpt><trkpt lat="41.7440152" lon="12.9999786"><ele>208.0</ele><time>2026-05-01T11:27:32.057Z</time></trkpt><trkpt lat="41.744037" lon="12.9997555"><ele>208.0</ele><time>2026-05-01T11:27:33.057Z</time></trkpt><trkpt lat="41.744069" lon="12.9995474"><ele>208.0</ele><time>2026-05-01T11:27:34.057Z</time></trkpt><trkpt lat="41.7441089" lon="12.9993526"><ele>208.0</ele><time>2026-05-01T11:27:35.057Z</time></trkpt><trkpt lat="41.7441586" lon="12.9991693"><ele>208.0</ele><time>2026-05-01T11:27:36.057Z</time></trkpt><trkpt lat="41.7442203" lon="12.9989918"><ele>208.0</ele><time>2026-05-01T11:27:37.056Z</time></trkpt><trkpt lat="41.7442953" lon="12.9988231"><ele>207.75</ele><time>2026-05-01T11:27:38.056Z</time></trkpt><trkpt lat="41.7443746" lon="12.9986687"><ele>207.5</ele><time>2026-05-01T11:27:39.057Z</time></trkpt><trkpt lat="41.7444594" lon="12.9985253"><ele>207.25</ele><time>2026-05-01T11:27:40.057Z</time></trkpt><trkpt lat="41.7445493" lon="12.9983876"><ele>207.0</ele><time>2026-05-01T11:27:41.057Z</time></trkpt><trkpt lat="41.7446426" lon="12.9982468"><ele>207.75</ele><time>2026-05-01T11:27:42.057Z</time></trkpt><trkpt lat="41.7447387" lon="12.9981079"><ele>208.5</ele><time>2026-05-01T11:27:43.057Z</time></trkpt><trkpt lat="41.7448328" lon="12.997979"><ele>209.25</ele><time>2026-05-01T11:27:44.056Z</time></trkpt><trkpt lat="41.7449229" lon="12.9978566"><ele>210.0</ele><time>2026-05-01T11:27:45.057Z</time></trkpt><trkpt lat="41.7450097" lon="12.9977403"><ele>210.0</ele><time>2026-05-01T11:27:46.057Z</time></trkpt><trkpt lat="41.7450919" lon="12.9976264"><ele>210.0</ele><time>2026-05-01T11:27:47.057Z</time></trkpt><trkpt lat="41.7451811" lon="12.9975073"><ele>210.0</ele><time>2026-05-01T11:27:48.057Z</time></trkpt><trkpt lat="41.7452769" lon="12.997383"><ele>210.0</ele><time>2026-05-01T11:27:49.057Z</time></trkpt><trkpt lat="41.7453813" lon="12.9972513"><ele>213.5</ele><time>2026-05-01T11:27:50.056Z</time></trkpt><trkpt lat="41.7454946" lon="12.9971193"><ele>217.0</ele><time>2026-05-01T11:27:51.057Z</time></trkpt><trkpt lat="41.7456056" lon="12.9969944"><ele>220.5</ele><time>2026-05-01T11:27:52.057Z</time></trkpt><trkpt lat="41.7457235" lon="12.9968675"><ele>224.0</ele><time>2026-05-01T11:27:53.057Z</time></trkpt><trkpt lat="41.7458409" lon="12.9967428"><ele>224.75</ele><time>2026-05-01T11:27:54.057Z</time></trkpt><trkpt lat="41.7459547" lon="12.9966228"><ele>225.5</ele><time>2026-05-01T11:27:55.057Z</time></trkpt><trkpt lat="41.7460686" lon="12.9965028"><ele>226.25</ele><time>2026-05-01T11:27:56.056Z</time></trkpt><trkpt lat="41.7461848" lon="12.9963818"><ele>227.0</ele><time>2026-05-01T11:27:57.056Z</time></trkpt><trkpt lat="41.7462979" lon="12.9962624"><ele>227.0</ele><time>2026-05-01T11:27:58.057Z</time></trkpt><trkpt lat="41.7464141" lon="12.9961401"><ele>227.0</ele><time>2026-05-01T11:27:59.057Z</time></trkpt><trkpt lat="41.7465335" lon="12.9960149"><ele>227.0</ele><time>2026-05-01T11:28:00.057Z</time></trkpt><trkpt lat="41.7466552" lon="12.9958869"><ele>226.0</ele><time>2026-05-01T11:28:01.057Z</time></trkpt><trkpt lat="41.7467786" lon="12.9957539"><ele>225.0</ele><time>2026-05-01T11:28:02.057Z</time></trkpt><trkpt lat="41.7469004" lon="12.995626"><ele>224.0</ele><time>2026-05-01T11:28:03.057Z</time></trkpt><trkpt lat="41.7470191" lon="12.9955006"><ele>224.0</ele><time>2026-05-01T11:28:04.057Z</time></trkpt><trkpt lat="41.7471303" lon="12.9953702"><ele>224.0</ele><time>2026-05-01T11:28:05.057Z</time></trkpt><trkpt lat="41.7472279" lon="12.995228"><ele>224.0</ele><time>2026-05-01T11:28:06.056Z</time></trkpt><trkpt lat="41.7473079" lon="12.9950745"><ele>224.0</ele><time>2026-05-01T11:28:07.056Z</time></trkpt><trkpt lat="41.7473673" lon="12.9949094"><ele>221.25</ele><time>2026-05-01T11:28:08.057Z</time></trkpt><trkpt lat="41.7474105" lon="12.9947329"><ele>218.5</ele><time>2026-05-01T11:28:09.057Z</time></trkpt><trkpt lat="41.7474401" lon="12.9945589"><ele>215.75</ele><time>2026-05-01T11:28:10.057Z</time></trkpt><trkpt lat="41.7474691" lon="12.9943834"><ele>213.0</ele><time>2026-05-01T11:28:11.057Z</time></trkpt><trkpt lat="41.747497" lon="12.9942025"><ele>212.25</ele><time>2026-05-01T11:28:12.056Z</time></trkpt><trkpt lat="41.7475258" lon="12.9940282"><ele>211.5</ele><time>2026-05-01T11:28:13.057Z</time></trkpt><trkpt lat="41.7475544" lon="12.9938575"><ele>210.75</ele><time>2026-05-01T11:28:14.057Z</time></trkpt><trkpt lat="41.7475829" lon="12.993692"><ele>210.0</ele><time>2026-05-01T11:28:15.057Z</time></trkpt><trkpt lat="41.7476138" lon="12.9935276"><ele>210.0</ele><time>2026-05-01T11:28:16.056Z</time></trkpt><trkpt lat="41.7476491" lon="12.9933645"><ele>210.0</ele><time>2026-05-01T11:28:17.056Z</time></trkpt><trkpt lat="41.7476864" lon="12.9932047"><ele>210.0</ele><time>2026-05-01T11:28:18.057Z</time></trkpt><trkpt lat="41.7477235" lon="12.9930517"><ele>210.0</ele><time>2026-05-01T11:28:19.057Z</time></trkpt><trkpt lat="41.7477599" lon="12.9929144"><ele>210.2</ele><time>2026-05-01T11:28:20.057Z</time></trkpt><trkpt lat="41.7477977" lon="12.9927835"><ele>210.4</ele><time>2026-05-01T11:28:21.057Z</time></trkpt><trkpt lat="41.7478389" lon="12.9926592"><ele>210.60000000000002</ele><time>2026-05-01T11:28:22.057Z</time></trkpt><trkpt lat="41.747884" lon="12.9925419"><ele>210.8</ele><time>2026-05-01T11:28:23.057Z</time></trkpt><trkpt lat="41.7479312" lon="12.9924318"><ele>211.0</ele><time>2026-05-01T11:28:24.057Z</time></trkpt><trkpt lat="41.747981" lon="12.9923229"><ele>210.4</ele><time>2026-05-01T11:28:25.057Z</time></trkpt><trkpt lat="41.7480348" lon="12.9922207"><ele>209.8</ele><time>2026-05-01T11:28:26.057Z</time></trkpt><trkpt lat="41.7480974" lon="12.992131"><ele>209.20000000000002</ele><time>2026-05-01T11:28:27.057Z</time></trkpt><trkpt lat="41.7481662" lon="12.9920551"><ele>208.60000000000002</ele><time>2026-05-01T11:28:28.057Z</time></trkpt><trkpt lat="41.7482384" lon="12.9919796"><ele>208.0</ele><time>2026-05-01T11:28:29.057Z</time></trkpt><trkpt lat="41.7482942" lon="12.9918788"><ele>208.0</ele><time>2026-05-01T11:28:30.056Z</time></trkpt><trkpt lat="41.7483162" lon="12.9917524"><ele>208.0</ele><time>2026-05-01T11:28:31.056Z</time></trkpt><trkpt lat="41.7483202" lon="12.9916193"><ele>208.0</ele><time>2026-05-01T11:28:32.056Z</time></trkpt><trkpt lat="41.7483102" lon="12.9914798"><ele>208.0</ele><time>2026-05-01T11:28:33.057Z</time></trkpt><trkpt lat="41.7483108" lon="12.991318"><ele>208.0</ele><time>2026-05-01T11:28:34.057Z</time></trkpt><trkpt lat="41.7483269" lon="12.9911364"><ele>207.66666666666666</ele><time>2026-05-01T11:28:35.057Z</time></trkpt><trkpt lat="41.7483612" lon="12.9909414"><ele>207.33333333333331</ele><time>2026-05-01T11:28:36.056Z</time></trkpt><trkpt lat="41.7484052" lon="12.9907418"><ele>207.0</ele><time>2026-05-01T11:28:37.057Z</time></trkpt><trkpt lat="41.748459" lon="12.9905556"><ele>207.66666666666669</ele><time>2026-05-01T11:28:38.056Z</time></trkpt><trkpt lat="41.7485127" lon="12.9903481"><ele>208.33333333333334</ele><time>2026-05-01T11:28:39.057Z</time></trkpt><trkpt lat="41.7485682" lon="12.9901466"><ele>209.0</ele><time>2026-05-01T11:28:40.057Z</time></trkpt><trkpt lat="41.748619" lon="12.9899287"><ele>212.33333333333334</ele><time>2026-05-01T11:28:41.057Z</time></trkpt><trkpt lat="41.7486816" lon="12.9897226"><ele>215.66666666666669</ele><time>2026-05-01T11:28:42.057Z</time></trkpt><trkpt lat="41.7487786" lon="12.989532"><ele>219.0</ele><time>2026-05-01T11:28:43.057Z</time></trkpt><trkpt lat="41.7488626" lon="12.9893501"><ele>219.0</ele><time>2026-05-01T11:28:44.056Z</time></trkpt><trkpt lat="41.7489713" lon="12.9891833"><ele>219.0</ele><time>2026-05-01T11:28:45.057Z</time></trkpt><trkpt lat="41.7490979" lon="12.9890393"><ele>219.0</ele><time>2026-05-01T11:28:46.057Z</time></trkpt><trkpt lat="41.7492361" lon="12.9889273"><ele>218.0</ele><time>2026-05-01T11:28:47.057Z</time></trkpt><trkpt lat="41.7493882" lon="12.9888445"><ele>217.0</ele><time>2026-05-01T11:28:48.057Z</time></trkpt><trkpt lat="41.7495518" lon="12.988792"><ele>216.0</ele><time>2026-05-01T11:28:49.057Z</time></trkpt><trkpt lat="41.7497241" lon="12.9887647"><ele>216.0</ele><time>2026-05-01T11:28:50.057Z</time></trkpt><trkpt lat="41.7498889" lon="12.9887469"><ele>216.0</ele><time>2026-05-01T11:28:51.057Z</time></trkpt><trkpt lat="41.7500552" lon="12.9887225"><ele>216.0</ele><time>2026-05-01T11:28:52.057Z</time></trkpt><trkpt lat="41.7502197" lon="12.9886979"><ele>218.0</ele><time>2026-05-01T11:28:53.057Z</time></trkpt><trkpt lat="41.7503693" lon="12.988667"><ele>220.0</ele><time>2026-05-01T11:28:54.057Z</time></trkpt><trkpt lat="41.7505193" lon="12.9885762"><ele>222.0</ele><time>2026-05-01T11:28:55.057Z</time></trkpt><trkpt lat="41.7506488" lon="12.9885178"><ele>222.0</ele><time>2026-05-01T11:28:56.056Z</time></trkpt><trkpt lat="41.75079" lon="12.9884315"><ele>222.0</ele><time>2026-05-01T11:28:57.057Z</time></trkpt><trkpt lat="41.7509349" lon="12.9883174"><ele>222.0</ele><time>2026-05-01T11:28:58.057Z</time></trkpt><trkpt lat="41.7510767" lon="12.9881775"><ele>220.33333333333331</ele><time>2026-05-01T11:28:59.057Z</time></trkpt><trkpt lat="41.7512256" lon="12.9880131"><ele>218.66666666666666</ele><time>2026-05-01T11:29:00.057Z</time></trkpt><trkpt lat="41.7513866" lon="12.9878408"><ele>217.0</ele><time>2026-05-01T11:29:01.057Z</time></trkpt><trkpt lat="41.7515629" lon="12.9876717"><ele>215.0</ele><time>2026-05-01T11:29:02.057Z</time></trkpt><trkpt lat="41.7517372" lon="12.9875082"><ele>213.0</ele><time>2026-05-01T11:29:03.057Z</time></trkpt><trkpt lat="41.7519101" lon="12.9873436"><ele>211.0</ele><time>2026-05-01T11:29:04.056Z</time></trkpt><trkpt lat="41.752083" lon="12.987181"><ele>210.66666666666666</ele><time>2026-05-01T11:29:05.056Z</time></trkpt><trkpt lat="41.7522518" lon="12.9870231"><ele>210.33333333333331</ele><time>2026-05-01T11:29:06.057Z</time></trkpt><trkpt lat="41.7524128" lon="12.9868652"><ele>210.0</ele><time>2026-05-01T11:29:07.057Z</time></trkpt><trkpt lat="41.7525639" lon="12.9867148"><ele>210.0</ele><time>2026-05-01T11:29:08.057Z</time></trkpt><trkpt lat="41.7527107" lon="12.9865774"><ele>210.0</ele><time>2026-05-01T11:29:09.057Z</time></trkpt><trkpt lat="41.7528572" lon="12.9864598"><ele>210.0</ele><time>2026-05-01T11:29:10.057Z</time></trkpt><trkpt lat="41.753004" lon="12.9863702"><ele>210.0</ele><time>2026-05-01T11:29:11.057Z</time></trkpt><trkpt lat="41.7531483" lon="12.9862996"><ele>210.0</ele><time>2026-05-01T11:29:12.057Z</time></trkpt><trkpt lat="41.7532873" lon="12.9862374"><ele>210.0</ele><time>2026-05-01T11:29:13.056Z</time></trkpt><trkpt lat="41.7534287" lon="12.9861695"><ele>210.25</ele><time>2026-05-01T11:29:14.057Z</time></trkpt><trkpt lat="41.7535603" lon="12.9860954"><ele>210.5</ele><time>2026-05-01T11:29:15.057Z</time></trkpt><trkpt lat="41.7536861" lon="12.9859998"><ele>210.75</ele><time>2026-05-01T11:29:16.057Z</time></trkpt><trkpt lat="41.7537989" lon="12.9858792"><ele>211.0</ele><time>2026-05-01T11:29:17.056Z</time></trkpt><trkpt lat="41.7538866" lon="12.9857441"><ele>210.25</ele><time>2026-05-01T11:29:18.057Z</time></trkpt><trkpt lat="41.7539515" lon="12.9856061"><ele>209.5</ele><time>2026-05-01T11:29:19.057Z</time></trkpt><trkpt lat="41.7540071" lon="12.9854673"><ele>208.75</ele><time>2026-05-01T11:29:20.057Z</time></trkpt><trkpt lat="41.7540405" lon="12.9853225"><ele>208.0</ele><time>2026-05-01T11:29:21.057Z</time></trkpt><trkpt lat="41.7540856" lon="12.9851799"><ele>208.0</ele><time>2026-05-01T11:29:22.057Z</time></trkpt><trkpt lat="41.7541561" lon="12.9850402"><ele>208.0</ele><time>2026-05-01T11:29:23.057Z</time></trkpt><trkpt lat="41.7542525" lon="12.9849147"><ele>208.0</ele><time>2026-05-01T11:29:24.057Z</time></trkpt><trkpt lat="41.7543677" lon="12.9847937"><ele>208.0</ele><time>2026-05-01T11:29:25.057Z</time></trkpt><trkpt lat="41.7544941" lon="12.9846602"><ele>208.66666666666666</ele><time>2026-05-01T11:29:26.057Z</time></trkpt><trkpt lat="41.7546291" lon="12.9845118"><ele>209.33333333333331</ele><time>2026-05-01T11:29:27.056Z</time></trkpt><trkpt lat="41.7547735" lon="12.9843574"><ele>210.0</ele><time>2026-05-01T11:29:28.057Z</time></trkpt><trkpt lat="41.7549264" lon="12.9841966"><ele>210.33333333333331</ele><time>2026-05-01T11:29:29.057Z</time></trkpt><trkpt lat="41.7550855" lon="12.9840283"><ele>210.66666666666666</ele><time>2026-05-01T11:29:30.056Z</time></trkpt><trkpt lat="41.755247" lon="12.9838571"><ele>211.0</ele><time>2026-05-01T11:29:31.056Z</time></trkpt><trkpt lat="41.755404" lon="12.9836934"><ele>211.0</ele><time>2026-05-01T11:29:32.057Z</time></trkpt><trkpt lat="41.7555585" lon="12.983531"><ele>211.0</ele><time>2026-05-01T11:29:33.057Z</time></trkpt><trkpt lat="41.755707" lon="12.9833647"><ele>211.0</ele><time>2026-05-01T11:29:34.057Z</time></trkpt><trkpt lat="41.7558476" lon="12.9831853"><ele>211.0</ele><time>2026-05-01T11:29:35.056Z</time></trkpt><trkpt lat="41.7559791" lon="12.9829912"><ele>211.0</ele><time>2026-05-01T11:29:36.057Z</time></trkpt><trkpt lat="41.7561052" lon="12.9827896"><ele>211.0</ele><time>2026-05-01T11:29:37.057Z</time></trkpt><trkpt lat="41.7562294" lon="12.9825826"><ele>210.66666666666666</ele><time>2026-05-01T11:29:38.057Z</time></trkpt><trkpt lat="41.7563545" lon="12.982375"><ele>210.33333333333331</ele><time>2026-05-01T11:29:39.056Z</time></trkpt><trkpt lat="41.7564803" lon="12.9821646"><ele>210.0</ele><time>2026-05-01T11:29:40.057Z</time></trkpt><trkpt lat="41.7566069" lon="12.9819537"><ele>210.0</ele><time>2026-05-01T11:29:41.057Z</time></trkpt><trkpt lat="41.7567347" lon="12.9817395"><ele>210.0</ele><time>2026-05-01T11:29:42.056Z</time></trkpt><trkpt lat="41.7568646" lon="12.9815264"><ele>210.0</ele><time>2026-05-01T11:29:43.057Z</time></trkpt><trkpt lat="41.756994" lon="12.9813133"><ele>210.66666666666669</ele><time>2026-05-01T11:29:44.057Z</time></trkpt><trkpt lat="41.757125" lon="12.9810976"><ele>211.33333333333334</ele><time>2026-05-01T11:29:45.057Z</time></trkpt><trkpt lat="41.7572598" lon="12.9808827"><ele>212.0</ele><time>2026-05-01T11:29:46.057Z</time></trkpt><trkpt lat="41.7574033" lon="12.9806778"><ele>213.0</ele><time>2026-05-01T11:29:47.057Z</time></trkpt><trkpt lat="41.7575555" lon="12.9804861"><ele>214.0</ele><time>2026-05-01T11:29:48.057Z</time></trkpt><trkpt lat="41.7577191" lon="12.9803126"><ele>215.0</ele><time>2026-05-01T11:29:49.057Z</time></trkpt><trkpt lat="41.7578899" lon="12.9801612"><ele>216.66666666666669</ele><time>2026-05-01T11:29:50.057Z</time></trkpt><trkpt lat="41.7580668" lon="12.9800389"><ele>218.33333333333331</ele><time>2026-05-01T11:29:51.057Z</time></trkpt><trkpt lat="41.7582508" lon="12.9799276"><ele>220.0</ele><time>2026-05-01T11:29:52.057Z</time></trkpt><trkpt lat="41.7584349" lon="12.9798181"><ele>220.0</ele><time>2026-05-01T11:29:53.057Z</time></trkpt><trkpt lat="41.7586097" lon="12.9796994"><ele>220.0</ele><time>2026-05-01T11:29:54.057Z</time></trkpt><trkpt lat="41.7587749" lon="12.9795613"><ele>220.0</ele><time>2026-05-01T11:29:55.056Z</time></trkpt><trkpt lat="41.7589303" lon="12.9794022"><ele>220.0</ele><time>2026-05-01T11:29:56.057Z</time></trkpt><trkpt lat="41.7590747" lon="12.9792224"><ele>220.0</ele><time>2026-05-01T11:29:57.057Z</time></trkpt><trkpt lat="41.7592155" lon="12.9790353"><ele>220.0</ele><time>2026-05-01T11:29:58.057Z</time></trkpt><trkpt lat="41.7593553" lon="12.9788439"><ele>218.0</ele><time>2026-05-01T11:29:59.057Z</time></trkpt><trkpt lat="41.7594936" lon="12.9786525"><ele>216.0</ele><time>2026-05-01T11:30:00.056Z</time></trkpt><trkpt lat="41.7596306" lon="12.9784583"><ele>214.0</ele><time>2026-05-01T11:30:01.056Z</time></trkpt><trkpt lat="41.7597682" lon="12.9782604"><ele>214.0</ele><time>2026-05-01T11:30:02.057Z</time></trkpt><trkpt lat="41.759905" lon="12.9780646"><ele>214.0</ele><time>2026-05-01T11:30:03.057Z</time></trkpt><trkpt lat="41.7600413" lon="12.9778679"><ele>214.0</ele><time>2026-05-01T11:30:04.057Z</time></trkpt><trkpt lat="41.7601792" lon="12.9776706"><ele>213.66666666666666</ele><time>2026-05-01T11:30:05.057Z</time></trkpt><trkpt lat="41.7603167" lon="12.9774694"><ele>213.33333333333331</ele><time>2026-05-01T11:30:06.057Z</time></trkpt><trkpt lat="41.7604531" lon="12.9772679"><ele>213.0</ele><time>2026-05-01T11:30:07.057Z</time></trkpt><trkpt lat="41.7605908" lon="12.977064"><ele>213.0</ele><time>2026-05-01T11:30:08.057Z</time></trkpt><trkpt lat="41.7607251" lon="12.976857"><ele>213.0</ele><time>2026-05-01T11:30:09.057Z</time></trkpt><trkpt lat="41.7608557" lon="12.9766436"><ele>213.0</ele><time>2026-05-01T11:30:10.056Z</time></trkpt><trkpt lat="41.7609862" lon="12.9764266"><ele>213.0</ele><time>2026-05-01T11:30:11.057Z</time></trkpt><trkpt lat="41.7611168" lon="12.9762074"><ele>213.0</ele><time>2026-05-01T11:30:12.057Z</time></trkpt><trkpt lat="41.7612488" lon="12.9759882"><ele>213.0</ele><time>2026-05-01T11:30:13.057Z</time></trkpt><trkpt lat="41.7613753" lon="12.9757706"><ele>213.0</ele><time>2026-05-01T11:30:14.056Z</time></trkpt><trkpt lat="41.761487" lon="12.9755563"><ele>213.0</ele><time>2026-05-01T11:30:15.057Z</time></trkpt><trkpt lat="41.7615844" lon="12.9753387"><ele>213.0</ele><time>2026-05-01T11:30:16.057Z</time></trkpt><trkpt lat="41.7616642" lon="12.9751194"><ele>213.66666666666669</ele><time>2026-05-01T11:30:17.057Z</time></trkpt><trkpt lat="41.7617223" lon="12.9749019"><ele>214.33333333333334</ele><time>2026-05-01T11:30:18.057Z</time></trkpt><trkpt lat="41.7617639" lon="12.9746921"><ele>215.0</ele><time>2026-05-01T11:30:19.057Z</time></trkpt><trkpt lat="41.7617968" lon="12.9745095"><ele>215.0</ele><time>2026-05-01T11:30:20.057Z</time></trkpt><trkpt lat="41.7618481" lon="12.9743534"><ele>215.0</ele><time>2026-05-01T11:30:21.056Z</time></trkpt><trkpt lat="41.7619214" lon="12.9742273"><ele>215.0</ele><time>2026-05-01T11:30:22.057Z</time></trkpt><trkpt lat="41.7619827" lon="12.9741121"><ele>215.0</ele><time>2026-05-01T11:30:23.056Z</time></trkpt><trkpt lat="41.7620177" lon="12.9739686"><ele>215.5</ele><time>2026-05-01T11:30:24.056Z</time></trkpt><trkpt lat="41.7620345" lon="12.9738085"><ele>216.0</ele><time>2026-05-01T11:30:25.057Z</time></trkpt><trkpt lat="41.7620817" lon="12.9736424"><ele>216.5</ele><time>2026-05-01T11:30:26.057Z</time></trkpt><trkpt lat="41.7621556" lon="12.9734701"><ele>217.0</ele><time>2026-05-01T11:30:27.057Z</time></trkpt><trkpt lat="41.762245" lon="12.9732859"><ele>217.0</ele><time>2026-05-01T11:30:28.056Z</time></trkpt><trkpt lat="41.762347" lon="12.9731013"><ele>217.0</ele><time>2026-05-01T11:30:29.057Z</time></trkpt><trkpt lat="41.7624637" lon="12.9729332"><ele>217.0</ele><time>2026-05-01T11:30:30.057Z</time></trkpt><trkpt lat="41.7626002" lon="12.9727756"><ele>217.0</ele><time>2026-05-01T11:30:31.057Z</time></trkpt><trkpt lat="41.7627451" lon="12.9726233"><ele>217.0</ele><time>2026-05-01T11:30:32.056Z</time></trkpt><trkpt lat="41.762892" lon="12.9724631"><ele>217.0</ele><time>2026-05-01T11:30:33.057Z</time></trkpt><trkpt lat="41.7630435" lon="12.9722991"><ele>217.0</ele><time>2026-05-01T11:30:34.057Z</time></trkpt><trkpt lat="41.7631981" lon="12.9721319"><ele>217.0</ele><time>2026-05-01T11:30:35.056Z</time></trkpt><trkpt lat="41.7633478" lon="12.9719684"><ele>217.0</ele><time>2026-05-01T11:30:36.057Z</time></trkpt><trkpt lat="41.7634998" lon="12.9718029"><ele>216.66666666666666</ele><time>2026-05-01T11:30:37.057Z</time></trkpt><trkpt lat="41.7636514" lon="12.971636"><ele>216.33333333333331</ele><time>2026-05-01T11:30:38.056Z</time></trkpt><trkpt lat="41.7638012" lon="12.9714653"><ele>216.0</ele><time>2026-05-01T11:30:39.057Z</time></trkpt><trkpt lat="41.7639535" lon="12.9712952"><ele>216.0</ele><time>2026-05-01T11:30:40.057Z</time></trkpt><trkpt lat="41.7641072" lon="12.9711261"><ele>216.0</ele><time>2026-05-01T11:30:41.057Z</time></trkpt><trkpt lat="41.7642612" lon="12.9709547"><ele>216.0</ele><time>2026-05-01T11:30:42.056Z</time></trkpt><trkpt lat="41.764415" lon="12.9707808"><ele>216.0</ele><time>2026-05-01T11:30:43.056Z</time></trkpt><trkpt lat="41.7645704" lon="12.9706071"><ele>216.0</ele><time>2026-05-01T11:30:44.057Z</time></trkpt><trkpt lat="41.7647275" lon="12.9704343"><ele>216.0</ele><time>2026-05-01T11:30:45.057Z</time></trkpt><trkpt lat="41.7648846" lon="12.9702625"><ele>216.0</ele><time>2026-05-01T11:30:46.057Z</time></trkpt><trkpt lat="41.765042" lon="12.9700895"><ele>216.0</ele><time>2026-05-01T11:30:47.057Z</time></trkpt><trkpt lat="41.7651975" lon="12.969916"><ele>216.0</ele><time>2026-05-01T11:30:48.057Z</time></trkpt><trkpt lat="41.7653514" lon="12.9697408"><ele>216.33333333333331</ele><time>2026-05-01T11:30:49.057Z</time></trkpt><trkpt lat="41.7655061" lon="12.9695666"><ele>216.66666666666666</ele><time>2026-05-01T11:30:50.057Z</time></trkpt><trkpt lat="41.765661" lon="12.9693942"><ele>217.0</ele><time>2026-05-01T11:30:51.057Z</time></trkpt><trkpt lat="41.7658162" lon="12.9692242"><ele>217.33333333333331</ele><time>2026-05-01T11:30:52.057Z</time></trkpt><trkpt lat="41.7659708" lon="12.9690547"><ele>217.66666666666669</ele><time>2026-05-01T11:30:53.057Z</time></trkpt><trkpt lat="41.7661242" lon="12.9688836"><ele>218.0</ele><time>2026-05-01T11:30:54.057Z</time></trkpt><trkpt lat="41.7662771" lon="12.9687107"><ele>218.0</ele><time>2026-05-01T11:30:55.057Z</time></trkpt><trkpt lat="41.7664287" lon="12.9685383"><ele>218.0</ele><time>2026-05-01T11:30:56.057Z</time></trkpt><trkpt lat="41.7665754" lon="12.9683708"><ele>218.0</ele><time>2026-05-01T11:30:57.057Z</time></trkpt><trkpt lat="41.7667129" lon="12.968203"><ele>217.66666666666669</ele><time>2026-05-01T11:30:58.057Z</time></trkpt><trkpt lat="41.766838" lon="12.9680201"><ele>217.33333333333331</ele><time>2026-05-01T11:30:59.057Z</time></trkpt><trkpt lat="41.7669443" lon="12.9678146"><ele>217.0</ele><time>2026-05-01T11:31:00.057Z</time></trkpt><trkpt lat="41.7670331" lon="12.9675906"><ele>218.33333333333331</ele><time>2026-05-01T11:31:01.057Z</time></trkpt><trkpt lat="41.7671092" lon="12.9673543"><ele>219.66666666666669</ele><time>2026-05-01T11:31:02.057Z</time></trkpt><trkpt lat="41.7671799" lon="12.9671068"><ele>221.0</ele><time>2026-05-01T11:31:03.057Z</time></trkpt><trkpt lat="41.7672551" lon="12.9668567"><ele>220.66666666666669</ele><time>2026-05-01T11:31:04.057Z</time></trkpt><trkpt lat="41.7673319" lon="12.9666029"><ele>220.33333333333331</ele><time>2026-05-01T11:31:05.057Z</time></trkpt><trkpt lat="41.7674069" lon="12.9663437"><ele>220.0</ele><time>2026-05-01T11:31:06.057Z</time></trkpt><trkpt lat="41.767483" lon="12.9660815"><ele>220.33333333333331</ele><time>2026-05-01T11:31:07.057Z</time></trkpt><trkpt lat="41.7675618" lon="12.9658191"><ele>220.66666666666669</ele><time>2026-05-01T11:31:08.057Z</time></trkpt><trkpt lat="41.7676423" lon="12.9655554"><ele>221.0</ele><time>2026-05-01T11:31:09.057Z</time></trkpt><trkpt lat="41.7677224" lon="12.9652897"><ele>221.0</ele><time>2026-05-01T11:31:10.057Z</time></trkpt><trkpt lat="41.7678013" lon="12.9650218"><ele>221.0</ele><time>2026-05-01T11:31:11.057Z</time></trkpt><trkpt lat="41.7678796" lon="12.9647526"><ele>221.0</ele><time>2026-05-01T11:31:12.057Z</time></trkpt><trkpt lat="41.7679585" lon="12.9644833"><ele>221.0</ele><time>2026-05-01T11:31:13.057Z</time></trkpt><trkpt lat="41.7680375" lon="12.9642131"><ele>221.0</ele><time>2026-05-01T11:31:14.057Z</time></trkpt><trkpt lat="41.7681176" lon="12.9639419"><ele>221.0</ele><time>2026-05-01T11:31:15.057Z</time></trkpt><trkpt lat="41.7681971" lon="12.9636708"><ele>220.66666666666669</ele><time>2026-05-01T11:31:16.057Z</time></trkpt><trkpt lat="41.7682753" lon="12.9633988"><ele>220.33333333333331</ele><time>2026-05-01T11:31:17.057Z</time></trkpt><trkpt lat="41.768354" lon="12.9631259"><ele>220.0</ele><time>2026-05-01T11:31:18.057Z</time></trkpt><trkpt lat="41.7684345" lon="12.9628529"><ele>220.66666666666666</ele><time>2026-05-01T11:31:19.057Z</time></trkpt><trkpt lat="41.7685151" lon="12.9625803"><ele>221.33333333333331</ele><time>2026-05-01T11:31:20.057Z</time></trkpt><trkpt lat="41.76859" lon="12.9623042"><ele>222.0</ele><time>2026-05-01T11:31:21.057Z</time></trkpt><trkpt lat="41.7686668" lon="12.9620273"><ele>222.33333333333331</ele><time>2026-05-01T11:31:22.057Z</time></trkpt><trkpt lat="41.7687452" lon="12.9617498"><ele>222.66666666666666</ele><time>2026-05-01T11:31:23.057Z</time></trkpt><trkpt lat="41.7688247" lon="12.9614708"><ele>223.0</ele><time>2026-05-01T11:31:24.056Z</time></trkpt><trkpt lat="41.7689069" lon="12.9611906"><ele>223.0</ele><time>2026-05-01T11:31:25.057Z</time></trkpt><trkpt lat="41.7689889" lon="12.9609091"><ele>223.0</ele><time>2026-05-01T11:31:26.056Z</time></trkpt><trkpt lat="41.7690704" lon="12.9606277"><ele>223.66666666666666</ele><time>2026-05-01T11:31:27.057Z</time></trkpt><trkpt lat="41.7691506" lon="12.9603486"><ele>224.33333333333331</ele><time>2026-05-01T11:31:28.057Z</time></trkpt><trkpt lat="41.7692301" lon="12.9600748"><ele>225.0</ele><time>2026-05-01T11:31:29.057Z</time></trkpt><trkpt lat="41.7693053" lon="12.959817"><ele>224.33333333333331</ele><time>2026-05-01T11:31:30.057Z</time></trkpt><trkpt lat="41.7693746" lon="12.9595707"><ele>223.66666666666666</ele><time>2026-05-01T11:31:31.057Z</time></trkpt><trkpt lat="41.7694444" lon="12.9593275"><ele>223.0</ele><time>2026-05-01T11:31:32.057Z</time></trkpt><trkpt lat="41.7695122" lon="12.9590974"><ele>223.0</ele><time>2026-05-01T11:31:33.057Z</time></trkpt><trkpt lat="41.7695763" lon="12.9588824"><ele>223.0</ele><time>2026-05-01T11:31:34.057Z</time></trkpt><trkpt lat="41.7696388" lon="12.9586768"><ele>223.0</ele><time>2026-05-01T11:31:35.057Z</time></trkpt><trkpt lat="41.7696956" lon="12.9584793"><ele>223.66666666666666</ele><time>2026-05-01T11:31:36.057Z</time></trkpt><trkpt lat="41.7697408" lon="12.9582872"><ele>224.33333333333331</ele><time>2026-05-01T11:31:37.057Z</time></trkpt><trkpt lat="41.7697705" lon="12.9580785"><ele>225.0</ele><time>2026-05-01T11:31:38.057Z</time></trkpt><trkpt lat="41.7697817" lon="12.9578493"><ele>225.0</ele><time>2026-05-01T11:31:39.057Z</time></trkpt><trkpt lat="41.7697899" lon="12.9576033"><ele>225.0</ele><time>2026-05-01T11:31:40.057Z</time></trkpt><trkpt lat="41.7698052" lon="12.957349"><ele>225.0</ele><time>2026-05-01T11:31:41.057Z</time></trkpt><trkpt lat="41.7698154" lon="12.9570826"><ele>226.0</ele><time>2026-05-01T11:31:42.057Z</time></trkpt><trkpt lat="41.7698197" lon="12.9568061"><ele>227.0</ele><time>2026-05-01T11:31:43.056Z</time></trkpt><trkpt lat="41.76983" lon="12.9565239"><ele>228.0</ele><time>2026-05-01T11:31:44.056Z</time></trkpt><trkpt lat="41.7698411" lon="12.9562397"><ele>228.0</ele><time>2026-05-01T11:31:45.057Z</time></trkpt><trkpt lat="41.7698499" lon="12.9559655"><ele>228.0</ele><time>2026-05-01T11:31:46.057Z</time></trkpt><trkpt lat="41.7698588" lon="12.9556891"><ele>228.0</ele><time>2026-05-01T11:31:47.057Z</time></trkpt><trkpt lat="41.7698681" lon="12.9554135"><ele>228.0</ele><time>2026-05-01T11:31:48.057Z</time></trkpt><trkpt lat="41.7698755" lon="12.9551348"><ele>228.0</ele><time>2026-05-01T11:31:49.057Z</time></trkpt><trkpt lat="41.7698837" lon="12.9548535"><ele>228.0</ele><time>2026-05-01T11:31:50.057Z</time></trkpt><trkpt lat="41.7698918" lon="12.9545716"><ele>227.66666666666669</ele><time>2026-05-01T11:31:51.057Z</time></trkpt><trkpt lat="41.7699001" lon="12.9542876"><ele>227.33333333333334</ele><time>2026-05-01T11:31:52.057Z</time></trkpt><trkpt lat="41.7699066" lon="12.954001"><ele>227.0</ele><time>2026-05-01T11:31:53.057Z</time></trkpt><trkpt lat="41.7699134" lon="12.9537127"><ele>227.0</ele><time>2026-05-01T11:31:54.057Z</time></trkpt><trkpt lat="41.7699198" lon="12.953421"><ele>227.0</ele><time>2026-05-01T11:31:55.057Z</time></trkpt><trkpt lat="41.769927" lon="12.9531288"><ele>227.0</ele><time>2026-05-01T11:31:56.056Z</time></trkpt><trkpt lat="41.7699345" lon="12.9528337"><ele>228.33333333333334</ele><time>2026-05-01T11:31:57.057Z</time></trkpt><trkpt lat="41.7699412" lon="12.9525375"><ele>229.66666666666669</ele><time>2026-05-01T11:31:58.057Z</time></trkpt><trkpt lat="41.7699495" lon="12.9522391"><ele>231.0</ele><time>2026-05-01T11:31:59.057Z</time></trkpt><trkpt lat="41.7699599" lon="12.9519421"><ele>231.0</ele><time>2026-05-01T11:32:00.057Z</time></trkpt><trkpt lat="41.7699753" lon="12.9516464"><ele>231.0</ele><time>2026-05-01T11:32:01.057Z</time></trkpt><trkpt lat="41.7699961" lon="12.9513514"><ele>231.0</ele><time>2026-05-01T11:32:02.057Z</time></trkpt><trkpt lat="41.7700242" lon="12.9510574"><ele>230.33333333333331</ele><time>2026-05-01T11:32:03.057Z</time></trkpt><trkpt lat="41.7700561" lon="12.9507652"><ele>229.66666666666666</ele><time>2026-05-01T11:32:04.057Z</time></trkpt><trkpt lat="41.7700909" lon="12.9504735"><ele>229.0</ele><time>2026-05-01T11:32:05.057Z</time></trkpt><trkpt lat="41.7701282" lon="12.9501832"><ele>230.0</ele><time>2026-05-01T11:32:06.056Z</time></trkpt><trkpt lat="41.7701689" lon="12.9498938"><ele>231.0</ele><time>2026-05-01T11:32:07.056Z</time></trkpt><trkpt lat="41.7702117" lon="12.9496052"><ele>232.0</ele><time>2026-05-01T11:32:08.057Z</time></trkpt><trkpt lat="41.7702568" lon="12.9493188"><ele>232.0</ele><time>2026-05-01T11:32:09.057Z</time></trkpt><trkpt lat="41.7703034" lon="12.9490314"><ele>232.0</ele><time>2026-05-01T11:32:10.057Z</time></trkpt><trkpt lat="41.7703476" lon="12.9487433"><ele>232.0</ele><time>2026-05-01T11:32:11.057Z</time></trkpt><trkpt lat="41.770391" lon="12.9484544"><ele>232.66666666666666</ele><time>2026-05-01T11:32:12.057Z</time></trkpt><trkpt lat="41.7704332" lon="12.9481647"><ele>233.33333333333331</ele><time>2026-05-01T11:32:13.057Z</time></trkpt><trkpt lat="41.7704717" lon="12.9478758"><ele>234.0</ele><time>2026-05-01T11:32:14.056Z</time></trkpt><trkpt lat="41.7704956" lon="12.9475856"><ele>234.33333333333331</ele><time>2026-05-01T11:32:15.057Z</time></trkpt><trkpt lat="41.7705066" lon="12.9472948"><ele>234.66666666666666</ele><time>2026-05-01T11:32:16.057Z</time></trkpt><trkpt lat="41.7705186" lon="12.9470048"><ele>235.0</ele><time>2026-05-01T11:32:17.056Z</time></trkpt><trkpt lat="41.770533" lon="12.9467172"><ele>235.0</ele><time>2026-05-01T11:32:18.056Z</time></trkpt><trkpt lat="41.7705561" lon="12.9464298"><ele>235.0</ele><time>2026-05-01T11:32:19.056Z</time></trkpt><trkpt lat="41.7705871" lon="12.9461437"><ele>235.0</ele><time>2026-05-01T11:32:20.057Z</time></trkpt><trkpt lat="41.7706226" lon="12.9458587"><ele>234.66666666666666</ele><time>2026-05-01T11:32:21.057Z</time></trkpt><trkpt lat="41.7706599" lon="12.9455732"><ele>234.33333333333331</ele><time>2026-05-01T11:32:22.057Z</time></trkpt><trkpt lat="41.770697" lon="12.9452855"><ele>234.0</ele><time>2026-05-01T11:32:23.057Z</time></trkpt><trkpt lat="41.7707349" lon="12.9449972"><ele>233.66666666666669</ele><time>2026-05-01T11:32:24.057Z</time></trkpt><trkpt lat="41.7707734" lon="12.9447087"><ele>233.33333333333334</ele><time>2026-05-01T11:32:25.057Z</time></trkpt><trkpt lat="41.7708122" lon="12.9444207"><ele>233.0</ele><time>2026-05-01T11:32:26.057Z</time></trkpt><trkpt lat="41.7708501" lon="12.9441314"><ele>233.66666666666669</ele><time>2026-05-01T11:32:27.057Z</time></trkpt><trkpt lat="41.7708878" lon="12.9438417"><ele>234.33333333333331</ele><time>2026-05-01T11:32:28.056Z</time></trkpt><trkpt lat="41.7709258" lon="12.9435503"><ele>235.0</ele><time>2026-05-01T11:32:29.057Z</time></trkpt><trkpt lat="41.7709639" lon="12.9432582"><ele>235.66666666666666</ele><time>2026-05-01T11:32:30.057Z</time></trkpt><trkpt lat="41.7710024" lon="12.9429666"><ele>236.33333333333331</ele><time>2026-05-01T11:32:31.057Z</time></trkpt><trkpt lat="41.7710407" lon="12.942672"><ele>237.0</ele><time>2026-05-01T11:32:32.057Z</time></trkpt><trkpt lat="41.7710779" lon="12.9423766"><ele>238.0</ele><time>2026-05-01T11:32:33.057Z</time></trkpt><trkpt lat="41.771116" lon="12.9420795"><ele>239.0</ele><time>2026-05-01T11:32:34.057Z</time></trkpt><trkpt lat="41.771156" lon="12.9417816"><ele>240.5</ele><time>2026-05-01T11:32:35.057Z</time></trkpt><trkpt lat="41.7711956" lon="12.9414824"><ele>242.0</ele><time>2026-05-01T11:32:36.057Z</time></trkpt><trkpt lat="41.771236" lon="12.9411819"><ele>242.5</ele><time>2026-05-01T11:32:37.057Z</time></trkpt><trkpt lat="41.7712735" lon="12.9408808"><ele>243.0</ele><time>2026-05-01T11:32:38.057Z</time></trkpt><trkpt lat="41.771311" lon="12.9405777"><ele>243.0</ele><time>2026-05-01T11:32:39.056Z</time></trkpt><trkpt lat="41.771347" lon="12.9402742"><ele>243.0</ele><time>2026-05-01T11:32:40.057Z</time></trkpt><trkpt lat="41.7713861" lon="12.9399695"><ele>242.0</ele><time>2026-05-01T11:32:41.057Z</time></trkpt><trkpt lat="41.771424" lon="12.9396651"><ele>241.0</ele><time>2026-05-01T11:32:42.057Z</time></trkpt><trkpt lat="41.7714621" lon="12.9393635"><ele>240.66666666666666</ele><time>2026-05-01T11:32:43.057Z</time></trkpt><trkpt lat="41.7714995" lon="12.9390654"><ele>240.33333333333331</ele><time>2026-05-01T11:32:44.057Z</time></trkpt><trkpt lat="41.7715416" lon="12.9387713"><ele>240.0</ele><time>2026-05-01T11:32:45.057Z</time></trkpt><trkpt lat="41.7715911" lon="12.9384814"><ele>239.66666666666669</ele><time>2026-05-01T11:32:46.057Z</time></trkpt><trkpt lat="41.7716499" lon="12.9381962"><ele>239.33333333333334</ele><time>2026-05-01T11:32:47.056Z</time></trkpt><trkpt lat="41.7717169" lon="12.9379132"><ele>239.0</ele><time>2026-05-01T11:32:48.057Z</time></trkpt><trkpt lat="41.7717925" lon="12.9376347"><ele>241.33333333333334</ele><time>2026-05-01T11:32:49.056Z</time></trkpt><trkpt lat="41.7718759" lon="12.9373607"><ele>243.66666666666669</ele><time>2026-05-01T11:32:50.056Z</time></trkpt><trkpt lat="41.771961" lon="12.9370873"><ele>246.0</ele><time>2026-05-01T11:32:51.057Z</time></trkpt><trkpt lat="41.7720451" lon="12.9368141"><ele>244.66666666666669</ele><time>2026-05-01T11:32:52.057Z</time></trkpt><trkpt lat="41.7721279" lon="12.9365404"><ele>243.33333333333334</ele><time>2026-05-01T11:32:53.056Z</time></trkpt><trkpt lat="41.7722113" lon="12.9362669"><ele>242.0</ele><time>2026-05-01T11:32:54.057Z</time></trkpt><trkpt lat="41.7722954" lon="12.9359921"><ele>242.0</ele><time>2026-05-01T11:32:55.057Z</time></trkpt><trkpt lat="41.7723815" lon="12.9357168"><ele>242.0</ele><time>2026-05-01T11:32:56.057Z</time></trkpt><trkpt lat="41.7724686" lon="12.9354417"><ele>242.0</ele><time>2026-05-01T11:32:57.057Z</time></trkpt><trkpt lat="41.7725586" lon="12.9351661"><ele>243.0</ele><time>2026-05-01T11:32:58.057Z</time></trkpt><trkpt lat="41.7726529" lon="12.9348936"><ele>244.0</ele><time>2026-05-01T11:32:59.057Z</time></trkpt><trkpt lat="41.7727606" lon="12.9346298"><ele>245.0</ele><time>2026-05-01T11:33:00.057Z</time></trkpt><trkpt lat="41.7728815" lon="12.9343773"><ele>245.33333333333334</ele><time>2026-05-01T11:33:01.057Z</time></trkpt><trkpt lat="41.7730082" lon="12.9341303"><ele>245.66666666666669</ele><time>2026-05-01T11:33:02.057Z</time></trkpt><trkpt lat="41.773137" lon="12.9338852"><ele>246.0</ele><time>2026-05-01T11:33:03.057Z</time></trkpt><trkpt lat="41.7732651" lon="12.9336412"><ele>246.0</ele><time>2026-05-01T11:33:04.057Z</time></trkpt><trkpt lat="41.7733921" lon="12.9333968"><ele>246.0</ele><time>2026-05-01T11:33:05.057Z</time></trkpt><trkpt lat="41.7736476" lon="12.9329134"><ele>246.0</ele><time>2026-05-01T11:33:07.057Z</time></trkpt><trkpt lat="41.7737763" lon="12.9326743"><ele>246.0</ele><time>2026-05-01T11:33:08.056Z</time></trkpt><trkpt lat="41.773905" lon="12.9324352"><ele>246.0</ele><time>2026-05-01T11:33:09.057Z</time></trkpt><trkpt lat="41.7740332" lon="12.9322001"><ele>246.0</ele><time>2026-05-01T11:33:10.057Z</time></trkpt><trkpt lat="41.7741567" lon="12.9319709"><ele>246.0</ele><time>2026-05-01T11:33:11.056Z</time></trkpt><trkpt lat="41.7742776" lon="12.9317423"><ele>246.0</ele><time>2026-05-01T11:33:12.057Z</time></trkpt><trkpt lat="41.7743966" lon="12.9315113"><ele>246.66666666666669</ele><time>2026-05-01T11:33:13.057Z</time></trkpt><trkpt lat="41.7745138" lon="12.9312825"><ele>247.33333333333334</ele><time>2026-05-01T11:33:14.057Z</time></trkpt><trkpt lat="41.7746263" lon="12.9310647"><ele>248.0</ele><time>2026-05-01T11:33:15.057Z</time></trkpt><trkpt lat="41.7747222" lon="12.930881"><ele>248.2</ele><time>2026-05-01T11:33:16.057Z</time></trkpt><trkpt lat="41.7748047" lon="12.9307314"><ele>248.4</ele><time>2026-05-01T11:33:17.057Z</time></trkpt><trkpt lat="41.7748849" lon="12.9306164"><ele>248.59999999999997</ele><time>2026-05-01T11:33:18.056Z</time></trkpt><trkpt lat="41.7749608" lon="12.9305383"><ele>248.79999999999998</ele><time>2026-05-01T11:33:19.057Z</time></trkpt><trkpt lat="41.7750464" lon="12.9304861"><ele>249.0</ele><time>2026-05-01T11:33:20.057Z</time></trkpt><trkpt lat="41.7751124" lon="12.9304448"><ele>249.0</ele><time>2026-05-01T11:33:21.057Z</time></trkpt><trkpt lat="41.7751603" lon="12.9302931"><ele>248.99999999999997</ele><time>2026-05-01T11:33:23.056Z</time></trkpt><trkpt lat="41.7751476" lon="12.9301943"><ele>248.99999999999997</ele><time>2026-05-01T11:33:24.057Z</time></trkpt><trkpt lat="41.7751563" lon="12.9300757"><ele>249.0</ele><time>2026-05-01T11:33:25.057Z</time></trkpt><trkpt lat="41.7751929" lon="12.9299524"><ele>249.0</ele><time>2026-05-01T11:33:26.057Z</time></trkpt><trkpt lat="41.7752472" lon="12.9298228"><ele>249.25</ele><time>2026-05-01T11:33:27.057Z</time></trkpt><trkpt lat="41.7753062" lon="12.9296777"><ele>249.5</ele><time>2026-05-01T11:33:28.057Z</time></trkpt><trkpt lat="41.7753606" lon="12.9295186"><ele>249.75</ele><time>2026-05-01T11:33:29.057Z</time></trkpt><trkpt lat="41.7754133" lon="12.9293527"><ele>250.0</ele><time>2026-05-01T11:33:30.057Z</time></trkpt><trkpt lat="41.7754687" lon="12.9291776"><ele>250.0</ele><time>2026-05-01T11:33:31.057Z</time></trkpt><trkpt lat="41.7755241" lon="12.9289918"><ele>250.0</ele><time>2026-05-01T11:33:32.057Z</time></trkpt><trkpt lat="41.7755724" lon="12.9287935"><ele>250.0</ele><time>2026-05-01T11:33:33.056Z</time></trkpt><trkpt lat="41.7756131" lon="12.9285875"><ele>250.0</ele><time>2026-05-01T11:33:34.057Z</time></trkpt><trkpt lat="41.7756399" lon="12.9283744"><ele>250.0</ele><time>2026-05-01T11:33:35.057Z</time></trkpt><trkpt lat="41.7756522" lon="12.9281562"><ele>250.0</ele><time>2026-05-01T11:33:36.057Z</time></trkpt><trkpt lat="41.7756507" lon="12.9279346"><ele>250.0</ele><time>2026-05-01T11:33:37.056Z</time></trkpt><trkpt lat="41.7756413" lon="12.9277256"><ele>250.0</ele><time>2026-05-01T11:33:38.056Z</time></trkpt><trkpt lat="41.7756331" lon="12.9275257"><ele>250.0</ele><time>2026-05-01T11:33:39.056Z</time></trkpt><trkpt lat="41.7756267" lon="12.9273371"><ele>250.0</ele><time>2026-05-01T11:33:40.056Z</time></trkpt><trkpt lat="41.7756184" lon="12.9271621"><ele>250.2</ele><time>2026-05-01T11:33:41.057Z</time></trkpt><trkpt lat="41.7756079" lon="12.9270071"><ele>250.4</ele><time>2026-05-01T11:33:42.057Z</time></trkpt><trkpt lat="41.7756022" lon="12.9268725"><ele>250.60000000000002</ele><time>2026-05-01T11:33:43.057Z</time></trkpt><trkpt lat="41.7756158" lon="12.9267565"><ele>250.8</ele><time>2026-05-01T11:33:44.057Z</time></trkpt><trkpt lat="41.7756429" lon="12.9266422"><ele>251.0</ele><time>2026-05-01T11:33:45.056Z</time></trkpt><trkpt lat="41.775695" lon="12.9265699"><ele>251.66666666666669</ele><time>2026-05-01T11:33:46.057Z</time></trkpt><trkpt lat="41.7757201" lon="12.9264797"><ele>252.33333333333334</ele><time>2026-05-01T11:33:47.057Z</time></trkpt><trkpt lat="41.775725" lon="12.9263857"><ele>253.0</ele><time>2026-05-01T11:33:48.057Z</time></trkpt><trkpt lat="41.7757063" lon="12.9262856"><ele>253.66666666666669</ele><time>2026-05-01T11:33:49.057Z</time></trkpt><trkpt lat="41.7756727" lon="12.9261776"><ele>254.33333333333334</ele><time>2026-05-01T11:33:50.057Z</time></trkpt><trkpt lat="41.7756354" lon="12.9260573"><ele>255.0</ele><time>2026-05-01T11:33:51.057Z</time></trkpt><trkpt lat="41.7755976" lon="12.9259259"><ele>257.0</ele><time>2026-05-01T11:33:52.057Z</time></trkpt><trkpt lat="41.7755603" lon="12.9257843"><ele>259.0</ele><time>2026-05-01T11:33:53.057Z</time></trkpt><trkpt lat="41.7755286" lon="12.9256457"><ele>261.0</ele><time>2026-05-01T11:33:54.057Z</time></trkpt><trkpt lat="41.7755046" lon="12.9254961"><ele>263.0</ele><time>2026-05-01T11:33:55.057Z</time></trkpt><trkpt lat="41.7754922" lon="12.925337"><ele>263.0</ele><time>2026-05-01T11:33:56.056Z</time></trkpt><trkpt lat="41.7754813" lon="12.9251682"><ele>263.0</ele><time>2026-05-01T11:33:57.057Z</time></trkpt><trkpt lat="41.7754689" lon="12.9249891"><ele>263.0</ele><time>2026-05-01T11:33:58.057Z</time></trkpt><trkpt lat="41.7754582" lon="12.9248043"><ele>263.0</ele><time>2026-05-01T11:33:59.057Z</time></trkpt><trkpt lat="41.7754484" lon="12.9246285"><ele>264.5</ele><time>2026-05-01T11:34:00.056Z</time></trkpt><trkpt lat="41.7754383" lon="12.9244582"><ele>266.0</ele><time>2026-05-01T11:34:01.056Z</time></trkpt><trkpt lat="41.775431" lon="12.924294"><ele>267.5</ele><time>2026-05-01T11:34:02.057Z</time></trkpt><trkpt lat="41.7754244" lon="12.9241363"><ele>269.0</ele><time>2026-05-01T11:34:03.057Z</time></trkpt><trkpt lat="41.7754183" lon="12.9239813"><ele>269.5</ele><time>2026-05-01T11:34:04.057Z</time></trkpt><trkpt lat="41.7754115" lon="12.9238302"><ele>270.0</ele><time>2026-05-01T11:34:05.057Z</time></trkpt><trkpt lat="41.775404" lon="12.9236684"><ele>270.5</ele><time>2026-05-01T11:34:06.056Z</time></trkpt><trkpt lat="41.7753959" lon="12.923509"><ele>271.0</ele><time>2026-05-01T11:34:07.057Z</time></trkpt><trkpt lat="41.7753876" lon="12.9233545"><ele>268.75</ele><time>2026-05-01T11:34:08.056Z</time></trkpt><trkpt lat="41.7753736" lon="12.9232043"><ele>266.5</ele><time>2026-05-01T11:34:09.057Z</time></trkpt><trkpt lat="41.775346" lon="12.9230505"><ele>264.25</ele><time>2026-05-01T11:34:10.057Z</time></trkpt><trkpt lat="41.7753092" lon="12.9228929"><ele>262.0</ele><time>2026-05-01T11:34:11.057Z</time></trkpt><trkpt lat="41.7752688" lon="12.9227419"><ele>262.0</ele><time>2026-05-01T11:34:12.056Z</time></trkpt><trkpt lat="41.7752257" lon="12.9225957"><ele>262.0</ele><time>2026-05-01T11:34:13.057Z</time></trkpt><trkpt lat="41.7751794" lon="12.9224584"><ele>262.0</ele><time>2026-05-01T11:34:14.057Z</time></trkpt><trkpt lat="41.7751351" lon="12.922324"><ele>262.0</ele><time>2026-05-01T11:34:15.057Z</time></trkpt><trkpt lat="41.7750887" lon="12.9221828"><ele>262.0</ele><time>2026-05-01T11:34:16.056Z</time></trkpt><trkpt lat="41.7750387" lon="12.9220345"><ele>262.0</ele><time>2026-05-01T11:34:17.057Z</time></trkpt><trkpt lat="41.7749836" lon="12.9218826"><ele>262.0</ele><time>2026-05-01T11:34:18.057Z</time></trkpt><trkpt lat="41.7749263" lon="12.9217289"><ele>262.0</ele><time>2026-05-01T11:34:19.057Z</time></trkpt><trkpt lat="41.7748676" lon="12.9215732"><ele>262.0</ele><time>2026-05-01T11:34:20.056Z</time></trkpt><trkpt lat="41.7748082" lon="12.921427"><ele>262.0</ele><time>2026-05-01T11:34:21.057Z</time></trkpt><trkpt lat="41.7747459" lon="12.9212932"><ele>262.0</ele><time>2026-05-01T11:34:22.057Z</time></trkpt><trkpt lat="41.7746802" lon="12.9211705"><ele>262.0</ele><time>2026-05-01T11:34:23.057Z</time></trkpt><trkpt lat="41.7746127" lon="12.9210617"><ele>262.0</ele><time>2026-05-01T11:34:24.057Z</time></trkpt><trkpt lat="41.7745499" lon="12.9209562"><ele>262.0</ele><time>2026-05-01T11:34:25.057Z</time></trkpt><trkpt lat="41.7745009" lon="12.9208455"><ele>262.0</ele><time>2026-05-01T11:34:26.057Z</time></trkpt><trkpt lat="41.7744677" lon="12.9207272"><ele>262.0</ele><time>2026-05-01T11:34:27.057Z</time></trkpt><trkpt lat="41.7744469" lon="12.9205939"><ele>262.0</ele><time>2026-05-01T11:34:28.056Z</time></trkpt><trkpt lat="41.7744334" lon="12.920451"><ele>265.75</ele><time>2026-05-01T11:34:29.057Z</time></trkpt><trkpt lat="41.7744293" lon="12.9202962"><ele>269.5</ele><time>2026-05-01T11:34:30.057Z</time></trkpt><trkpt lat="41.774435" lon="12.9201287"><ele>273.25</ele><time>2026-05-01T11:34:31.056Z</time></trkpt><trkpt lat="41.774446" lon="12.9199686"><ele>277.0</ele><time>2026-05-01T11:34:32.057Z</time></trkpt><trkpt lat="41.7744574" lon="12.919815"><ele>277.6</ele><time>2026-05-01T11:34:33.057Z</time></trkpt><trkpt lat="41.7744684" lon="12.9196696"><ele>278.2</ele><time>2026-05-01T11:34:34.057Z</time></trkpt><trkpt lat="41.774479" lon="12.9195293"><ele>278.8</ele><time>2026-05-01T11:34:35.057Z</time></trkpt><trkpt lat="41.7744912" lon="12.9193912"><ele>279.4</ele><time>2026-05-01T11:34:36.057Z</time></trkpt><trkpt lat="41.7745046" lon="12.9192506"><ele>280.0</ele><time>2026-05-01T11:34:37.056Z</time></trkpt><trkpt lat="41.7745191" lon="12.9191082"><ele>280.0</ele><time>2026-05-01T11:34:38.057Z</time></trkpt><trkpt lat="41.7745309" lon="12.9189529"><ele>280.0</ele><time>2026-05-01T11:34:39.057Z</time></trkpt><trkpt lat="41.7745372" lon="12.9187743"><ele>280.0</ele><time>2026-05-01T11:34:40.057Z</time></trkpt><trkpt lat="41.7745589" lon="12.9185788"><ele>280.0</ele><time>2026-05-01T11:34:41.057Z</time></trkpt><trkpt lat="41.7745982" lon="12.9183691"><ele>278.3333333333333</ele><time>2026-05-01T11:34:42.057Z</time></trkpt><trkpt lat="41.7746343" lon="12.9181559"><ele>276.6666666666667</ele><time>2026-05-01T11:34:43.057Z</time></trkpt><trkpt lat="41.7746704" lon="12.9179434"><ele>275.0</ele><time>2026-05-01T11:34:44.057Z</time></trkpt><trkpt lat="41.7747065" lon="12.9177182"><ele>272.0</ele><time>2026-05-01T11:34:45.057Z</time></trkpt><trkpt lat="41.7747406" lon="12.9174849"><ele>269.0</ele><time>2026-05-01T11:34:46.057Z</time></trkpt><trkpt lat="41.7747767" lon="12.9172502"><ele>266.0</ele><time>2026-05-01T11:34:47.057Z</time></trkpt><trkpt lat="41.7748131" lon="12.9170301"><ele>266.0</ele><time>2026-05-01T11:34:48.057Z</time></trkpt><trkpt lat="41.7748568" lon="12.9168206"><ele>266.0</ele><time>2026-05-01T11:34:49.057Z</time></trkpt><trkpt lat="41.7749193" lon="12.9166286"><ele>266.0</ele><time>2026-05-01T11:34:50.057Z</time></trkpt><trkpt lat="41.7750058" lon="12.9164496"><ele>266.0</ele><time>2026-05-01T11:34:51.057Z</time></trkpt><trkpt lat="41.775105" lon="12.9162772"><ele>266.0</ele><time>2026-05-01T11:34:52.056Z</time></trkpt><trkpt lat="41.7752155" lon="12.9161061"><ele>266.0</ele><time>2026-05-01T11:34:53.057Z</time></trkpt><trkpt lat="41.7753306" lon="12.9159354"><ele>264.0</ele><time>2026-05-01T11:34:54.056Z</time></trkpt><trkpt lat="41.7754426" lon="12.9157697"><ele>262.0</ele><time>2026-05-01T11:34:55.057Z</time></trkpt><trkpt lat="41.7755498" lon="12.9156145"><ele>260.0</ele><time>2026-05-01T11:34:56.057Z</time></trkpt><trkpt lat="41.775653" lon="12.9154679"><ele>260.0</ele><time>2026-05-01T11:34:57.056Z</time></trkpt><trkpt lat="41.7757457" lon="12.9153219"><ele>260.0</ele><time>2026-05-01T11:34:58.057Z</time></trkpt><trkpt lat="41.7758213" lon="12.9151637"><ele>260.0</ele><time>2026-05-01T11:34:59.057Z</time></trkpt><trkpt lat="41.7758739" lon="12.9149929"><ele>260.0</ele><time>2026-05-01T11:35:00.057Z</time></trkpt><trkpt lat="41.7759042" lon="12.9148071"><ele>260.25</ele><time>2026-05-01T11:35:01.057Z</time></trkpt><trkpt lat="41.775913" lon="12.9146113"><ele>260.5</ele><time>2026-05-01T11:35:02.057Z</time></trkpt><trkpt lat="41.7759059" lon="12.9144178"><ele>260.75</ele><time>2026-05-01T11:35:03.057Z</time></trkpt><trkpt lat="41.7759012" lon="12.9142311"><ele>261.0</ele><time>2026-05-01T11:35:04.057Z</time></trkpt><trkpt lat="41.7758972" lon="12.9140502"><ele>261.3333333333333</ele><time>2026-05-01T11:35:05.057Z</time></trkpt><trkpt lat="41.7758893" lon="12.9138572"><ele>261.66666666666663</ele><time>2026-05-01T11:35:06.056Z</time></trkpt><trkpt lat="41.7758729" lon="12.9136455"><ele>262.0</ele><time>2026-05-01T11:35:07.057Z</time></trkpt><trkpt lat="41.7758651" lon="12.9134178"><ele>262.3333333333333</ele><time>2026-05-01T11:35:08.057Z</time></trkpt><trkpt lat="41.7758687" lon="12.9131768"><ele>262.6666666666667</ele><time>2026-05-01T11:35:09.057Z</time></trkpt><trkpt lat="41.7758695" lon="12.912925"><ele>263.0</ele><time>2026-05-01T11:35:10.057Z</time></trkpt><trkpt lat="41.7758669" lon="12.912662"><ele>264.33333333333337</ele><time>2026-05-01T11:35:11.057Z</time></trkpt><trkpt lat="41.7758636" lon="12.912401"><ele>265.6666666666667</ele><time>2026-05-01T11:35:12.057Z</time></trkpt><trkpt lat="41.7758621" lon="12.9121414"><ele>267.0</ele><time>2026-05-01T11:35:13.057Z</time></trkpt><trkpt lat="41.7758602" lon="12.911882"><ele>269.0</ele><time>2026-05-01T11:35:14.056Z</time></trkpt><trkpt lat="41.775869" lon="12.9116224"><ele>271.0</ele><time>2026-05-01T11:35:15.057Z</time></trkpt><trkpt lat="41.77589" lon="12.9113777"><ele>273.0</ele><time>2026-05-01T11:35:16.057Z</time></trkpt><trkpt lat="41.7759208" lon="12.9111503"><ele>273.0</ele><time>2026-05-01T11:35:17.057Z</time></trkpt><trkpt lat="41.7759598" lon="12.9109376"><ele>273.0</ele><time>2026-05-01T11:35:18.057Z</time></trkpt><trkpt lat="41.7760057" lon="12.9107288"><ele>273.0</ele><time>2026-05-01T11:35:19.057Z</time></trkpt><trkpt lat="41.7760563" lon="12.9105238"><ele>277.0</ele><time>2026-05-01T11:35:20.057Z</time></trkpt><trkpt lat="41.776116" lon="12.9103216"><ele>281.0</ele><time>2026-05-01T11:35:21.056Z</time></trkpt><trkpt lat="41.7761858" lon="12.9101247"><ele>285.0</ele><time>2026-05-01T11:35:22.056Z</time></trkpt><trkpt lat="41.7762612" lon="12.9099272"><ele>285.0</ele><time>2026-05-01T11:35:23.057Z</time></trkpt><trkpt lat="41.7763402" lon="12.9097295"><ele>285.0</ele><time>2026-05-01T11:35:24.057Z</time></trkpt><trkpt lat="41.7764241" lon="12.9095319"><ele>285.0</ele><time>2026-05-01T11:35:25.057Z</time></trkpt><trkpt lat="41.776513" lon="12.9093345"><ele>282.6666666666667</ele><time>2026-05-01T11:35:26.057Z</time></trkpt><trkpt lat="41.7766086" lon="12.9091394"><ele>280.33333333333337</ele><time>2026-05-01T11:35:27.057Z</time></trkpt><trkpt lat="41.7767083" lon="12.9089599"><ele>278.0</ele><time>2026-05-01T11:35:28.057Z</time></trkpt><trkpt lat="41.7768249" lon="12.9087905"><ele>281.0</ele><time>2026-05-01T11:35:29.057Z</time></trkpt><trkpt lat="41.7769506" lon="12.9086282"><ele>284.0</ele><time>2026-05-01T11:35:30.057Z</time></trkpt><trkpt lat="41.7770821" lon="12.9084681"><ele>287.0</ele><time>2026-05-01T11:35:31.057Z</time></trkpt><trkpt lat="41.7772192" lon="12.908311"><ele>287.0</ele><time>2026-05-01T11:35:32.057Z</time></trkpt><trkpt lat="41.7773588" lon="12.9081475"><ele>287.0</ele><time>2026-05-01T11:35:33.057Z</time></trkpt><trkpt lat="41.7774996" lon="12.9079805"><ele>287.0</ele><time>2026-05-01T11:35:34.056Z</time></trkpt><trkpt lat="41.7776408" lon="12.9078072"><ele>285.0</ele><time>2026-05-01T11:35:35.057Z</time></trkpt><trkpt lat="41.7777835" lon="12.9076318"><ele>283.0</ele><time>2026-05-01T11:35:36.057Z</time></trkpt><trkpt lat="41.7779301" lon="12.907459"><ele>281.0</ele><time>2026-05-01T11:35:37.057Z</time></trkpt><trkpt lat="41.7780746" lon="12.9072922"><ele>281.0</ele><time>2026-05-01T11:35:38.057Z</time></trkpt><trkpt lat="41.7782147" lon="12.9071275"><ele>281.0</ele><time>2026-05-01T11:35:39.057Z</time></trkpt><trkpt lat="41.7783557" lon="12.9069591"><ele>281.0</ele><time>2026-05-01T11:35:40.057Z</time></trkpt><trkpt lat="41.7784968" lon="12.9067883"><ele>279.0</ele><time>2026-05-01T11:35:41.057Z</time></trkpt><trkpt lat="41.7786385" lon="12.9066167"><ele>277.0</ele><time>2026-05-01T11:35:42.057Z</time></trkpt><trkpt lat="41.7787818" lon="12.9064467"><ele>275.0</ele><time>2026-05-01T11:35:43.057Z</time></trkpt><trkpt lat="41.7789249" lon="12.9062755"><ele>275.0</ele><time>2026-05-01T11:35:44.057Z</time></trkpt><trkpt lat="41.7790672" lon="12.9061033"><ele>275.0</ele><time>2026-05-01T11:35:45.057Z</time></trkpt><trkpt lat="41.7792091" lon="12.9059259"><ele>275.0</ele><time>2026-05-01T11:35:46.057Z</time></trkpt><trkpt lat="41.7793502" lon="12.9057469"><ele>281.33333333333337</ele><time>2026-05-01T11:35:47.057Z</time></trkpt><trkpt lat="41.7794862" lon="12.9055613"><ele>287.6666666666667</ele><time>2026-05-01T11:35:48.057Z</time></trkpt><trkpt lat="41.7796144" lon="12.905366"><ele>294.0</ele><time>2026-05-01T11:35:49.057Z</time></trkpt><trkpt lat="41.7797344" lon="12.9051603"><ele>291.6666666666667</ele><time>2026-05-01T11:35:50.057Z</time></trkpt><trkpt lat="41.7798474" lon="12.9049474"><ele>289.33333333333337</ele><time>2026-05-01T11:35:51.057Z</time></trkpt><trkpt lat="41.7799563" lon="12.9047315"><ele>287.0</ele><time>2026-05-01T11:35:52.057Z</time></trkpt><trkpt lat="41.7800611" lon="12.9045153"><ele>287.0</ele><time>2026-05-01T11:35:53.057Z</time></trkpt><trkpt lat="41.7801631" lon="12.9043036"><ele>287.0</ele><time>2026-05-01T11:35:54.057Z</time></trkpt><trkpt lat="41.7802658" lon="12.9040969"><ele>287.0</ele><time>2026-05-01T11:35:55.056Z</time></trkpt><trkpt lat="41.7803688" lon="12.9038928"><ele>285.6666666666667</ele><time>2026-05-01T11:35:56.057Z</time></trkpt><trkpt lat="41.7804737" lon="12.9036935"><ele>284.3333333333333</ele><time>2026-05-01T11:35:57.056Z</time></trkpt><trkpt lat="41.7805837" lon="12.9035005"><ele>283.0</ele><time>2026-05-01T11:35:58.057Z</time></trkpt><trkpt lat="41.7806997" lon="12.903316"><ele>283.0</ele><time>2026-05-01T11:35:59.057Z</time></trkpt><trkpt lat="41.7808194" lon="12.9031426"><ele>283.0</ele><time>2026-05-01T11:36:00.056Z</time></trkpt><trkpt lat="41.7809399" lon="12.9029903"><ele>283.0</ele><time>2026-05-01T11:36:01.057Z</time></trkpt><trkpt lat="41.7810593" lon="12.9028457"><ele>283.3333333333333</ele><time>2026-05-01T11:36:02.057Z</time></trkpt><trkpt lat="41.7811754" lon="12.9026962"><ele>283.6666666666667</ele><time>2026-05-01T11:36:03.057Z</time></trkpt><trkpt lat="41.7812894" lon="12.9025446"><ele>284.0</ele><time>2026-05-01T11:36:04.057Z</time></trkpt><trkpt lat="41.7813984" lon="12.9023845"><ele>284.0</ele><time>2026-05-01T11:36:05.056Z</time></trkpt><trkpt lat="41.7815011" lon="12.9022144"><ele>284.0</ele><time>2026-05-01T11:36:06.057Z</time></trkpt><trkpt lat="41.7815981" lon="12.9020368"><ele>284.0</ele><time>2026-05-01T11:36:07.057Z</time></trkpt><trkpt lat="41.7816919" lon="12.9018326"><ele>283.0</ele><time>2026-05-01T11:36:08.057Z</time></trkpt><trkpt lat="41.7817812" lon="12.9016037"><ele>282.0</ele><time>2026-05-01T11:36:09.057Z</time></trkpt><trkpt lat="41.7818718" lon="12.9013551"><ele>281.0</ele><time>2026-05-01T11:36:10.057Z</time></trkpt><trkpt lat="41.781959" lon="12.901088"><ele>290.0</ele><time>2026-05-01T11:36:11.057Z</time></trkpt><trkpt lat="41.7820259" lon="12.9007908"><ele>299.0</ele><time>2026-05-01T11:36:12.056Z</time></trkpt><trkpt lat="41.782075" lon="12.9004757"><ele>299.0</ele><time>2026-05-01T11:36:13.056Z</time></trkpt><trkpt lat="41.7821045" lon="12.9001415"><ele>299.0</ele><time>2026-05-01T11:36:14.057Z</time></trkpt><trkpt lat="41.782121" lon="12.8997914"><ele>299.0</ele><time>2026-05-01T11:36:15.057Z</time></trkpt><trkpt lat="41.7821318" lon="12.8994447"><ele>299.0</ele><time>2026-05-01T11:36:16.056Z</time></trkpt><trkpt lat="41.7821448" lon="12.8990941"><ele>299.5</ele><time>2026-05-01T11:36:17.057Z</time></trkpt><trkpt lat="41.7821613" lon="12.8987415"><ele>300.0</ele><time>2026-05-01T11:36:18.057Z</time></trkpt><trkpt lat="41.7821795" lon="12.8983894"><ele>299.0</ele><time>2026-05-01T11:36:19.057Z</time></trkpt><trkpt lat="41.7821977" lon="12.8980355"><ele>298.0</ele><time>2026-05-01T11:36:20.057Z</time></trkpt><trkpt lat="41.7822186" lon="12.8976855"><ele>296.5</ele><time>2026-05-01T11:36:21.056Z</time></trkpt><trkpt lat="41.782243" lon="12.8973365"><ele>295.0</ele><time>2026-05-01T11:36:22.057Z</time></trkpt><trkpt lat="41.7822692" lon="12.8969888"><ele>295.0</ele><time>2026-05-01T11:36:23.057Z</time></trkpt><trkpt lat="41.7822964" lon="12.8966432"><ele>295.0</ele><time>2026-05-01T11:36:24.057Z</time></trkpt><trkpt lat="41.7823264" lon="12.8962983"><ele>295.0</ele><time>2026-05-01T11:36:25.056Z</time></trkpt><trkpt lat="41.7823618" lon="12.8959571"><ele>295.0</ele><time>2026-05-01T11:36:26.057Z</time></trkpt><trkpt lat="41.7823996" lon="12.8956172"><ele>295.0</ele><time>2026-05-01T11:36:27.057Z</time></trkpt><trkpt lat="41.7824399" lon="12.8952794"><ele>295.0</ele><time>2026-05-01T11:36:28.057Z</time></trkpt><trkpt lat="41.7824807" lon="12.8949423"><ele>292.5</ele><time>2026-05-01T11:36:29.056Z</time></trkpt><trkpt lat="41.7825213" lon="12.8946062"><ele>290.0</ele><time>2026-05-01T11:36:30.057Z</time></trkpt><trkpt lat="41.7825612" lon="12.8942709"><ele>289.5</ele><time>2026-05-01T11:36:31.057Z</time></trkpt><trkpt lat="41.7826019" lon="12.8939349"><ele>289.0</ele><time>2026-05-01T11:36:32.056Z</time></trkpt><trkpt lat="41.7826453" lon="12.8936018"><ele>301.5</ele><time>2026-05-01T11:36:33.057Z</time></trkpt><trkpt lat="41.7826895" lon="12.8932711"><ele>314.0</ele><time>2026-05-01T11:36:34.057Z</time></trkpt><trkpt lat="41.7827323" lon="12.8929432"><ele>314.0</ele><time>2026-05-01T11:36:35.057Z</time></trkpt><trkpt lat="41.7827725" lon="12.8926317"><ele>314.0</ele><time>2026-05-01T11:36:36.057Z</time></trkpt><trkpt lat="41.7828136" lon="12.8923362"><ele>310.33333333333337</ele><time>2026-05-01T11:36:37.057Z</time></trkpt><trkpt lat="41.782852" lon="12.8920573"><ele>306.6666666666667</ele><time>2026-05-01T11:36:38.057Z</time></trkpt><trkpt lat="41.7828847" lon="12.8917901"><ele>303.0</ele><time>2026-05-01T11:36:39.057Z</time></trkpt><trkpt lat="41.7829156" lon="12.8915344"><ele>300.0</ele><time>2026-05-01T11:36:40.057Z</time></trkpt><trkpt lat="41.782943" lon="12.8912927"><ele>297.0</ele><time>2026-05-01T11:36:41.057Z</time></trkpt><trkpt lat="41.7829746" lon="12.8910574"><ele>294.0</ele><time>2026-05-01T11:36:42.057Z</time></trkpt><trkpt lat="41.7830093" lon="12.8908318"><ele>294.0</ele><time>2026-05-01T11:36:43.057Z</time></trkpt><trkpt lat="41.7830497" lon="12.8906262"><ele>294.0</ele><time>2026-05-01T11:36:44.057Z</time></trkpt><trkpt lat="41.7830996" lon="12.8904346"><ele>294.0</ele><time>2026-05-01T11:36:45.057Z</time></trkpt><trkpt lat="41.7831575" lon="12.8902741"><ele>294.0</ele><time>2026-05-01T11:36:46.057Z</time></trkpt><trkpt lat="41.7832213" lon="12.8901483"><ele>294.2</ele><time>2026-05-01T11:36:47.057Z</time></trkpt><trkpt lat="41.7832901" lon="12.8900594"><ele>294.4</ele><time>2026-05-01T11:36:48.057Z</time></trkpt><trkpt lat="41.7833655" lon="12.8899927"><ele>294.6</ele><time>2026-05-01T11:36:49.057Z</time></trkpt><trkpt lat="41.7834154" lon="12.8899024"><ele>294.8</ele><time>2026-05-01T11:36:50.057Z</time></trkpt><trkpt lat="41.7834373" lon="12.8897813"><ele>295.0</ele><time>2026-05-01T11:36:51.057Z</time></trkpt><trkpt lat="41.7834617" lon="12.8896421"><ele>297.25</ele><time>2026-05-01T11:36:52.057Z</time></trkpt><trkpt lat="41.7835189" lon="12.8895031"><ele>299.5</ele><time>2026-05-01T11:36:53.057Z</time></trkpt><trkpt lat="41.7835956" lon="12.8893443"><ele>301.75</ele><time>2026-05-01T11:36:54.056Z</time></trkpt><trkpt lat="41.7836824" lon="12.8891714"><ele>304.0</ele><time>2026-05-01T11:36:55.057Z</time></trkpt><trkpt lat="41.7837764" lon="12.8889802"><ele>304.0</ele><time>2026-05-01T11:36:56.056Z</time></trkpt><trkpt lat="41.7838761" lon="12.8887935"><ele>304.0</ele><time>2026-05-01T11:36:57.057Z</time></trkpt><trkpt lat="41.7839848" lon="12.8886064"><ele>304.0</ele><time>2026-05-01T11:36:58.057Z</time></trkpt><trkpt lat="41.7841004" lon="12.8884222"><ele>301.3333333333333</ele><time>2026-05-01T11:36:59.057Z</time></trkpt><trkpt lat="41.7842228" lon="12.888235"><ele>298.6666666666667</ele><time>2026-05-01T11:37:00.057Z</time></trkpt><trkpt lat="41.7843464" lon="12.8880467"><ele>296.0</ele><time>2026-05-01T11:37:01.056Z</time></trkpt><trkpt lat="41.7844707" lon="12.8878587"><ele>301.0</ele><time>2026-05-01T11:37:02.057Z</time></trkpt><trkpt lat="41.7845918" lon="12.887672"><ele>306.0</ele><time>2026-05-01T11:37:03.057Z</time></trkpt><trkpt lat="41.7847129" lon="12.8874943"><ele>311.0</ele><time>2026-05-01T11:37:04.057Z</time></trkpt><trkpt lat="41.7848389" lon="12.8873298"><ele>311.0</ele><time>2026-05-01T11:37:05.056Z</time></trkpt><trkpt lat="41.7849723" lon="12.8871876"><ele>311.0</ele><time>2026-05-01T11:37:06.056Z</time></trkpt><trkpt lat="41.7851127" lon="12.887062"><ele>311.0</ele><time>2026-05-01T11:37:07.057Z</time></trkpt><trkpt lat="41.7852588" lon="12.8869441"><ele>314.33333333333337</ele><time>2026-05-01T11:37:08.056Z</time></trkpt><trkpt lat="41.7854048" lon="12.8868258"><ele>317.6666666666667</ele><time>2026-05-01T11:37:09.056Z</time></trkpt><trkpt lat="41.7855527" lon="12.8867076"><ele>321.0</ele><time>2026-05-01T11:37:10.056Z</time></trkpt><trkpt lat="41.7857011" lon="12.8865908"><ele>321.0</ele><time>2026-05-01T11:37:11.057Z</time></trkpt><trkpt lat="41.785847" lon="12.8864715"><ele>321.0</ele><time>2026-05-01T11:37:12.057Z</time></trkpt><trkpt lat="41.7859845" lon="12.8863444"><ele>321.0</ele><time>2026-05-01T11:37:13.057Z</time></trkpt><trkpt lat="41.7861016" lon="12.8862125"><ele>322.25</ele><time>2026-05-01T11:37:14.056Z</time></trkpt><trkpt lat="41.786205" lon="12.8860816"><ele>323.5</ele><time>2026-05-01T11:37:15.056Z</time></trkpt><trkpt lat="41.7862903" lon="12.8859454"><ele>324.75</ele><time>2026-05-01T11:37:16.057Z</time></trkpt><trkpt lat="41.7863606" lon="12.8858108"><ele>326.0</ele><time>2026-05-01T11:37:17.057Z</time></trkpt><trkpt lat="41.7864233" lon="12.8856756"><ele>326.0</ele><time>2026-05-01T11:37:18.057Z</time></trkpt><trkpt lat="41.786491" lon="12.8855343"><ele>326.0</ele><time>2026-05-01T11:37:19.057Z</time></trkpt><trkpt lat="41.7865667" lon="12.8853841"><ele>326.0</ele><time>2026-05-01T11:37:20.057Z</time></trkpt><trkpt lat="41.7866519" lon="12.8852255"><ele>326.0</ele><time>2026-05-01T11:37:21.057Z</time></trkpt><trkpt lat="41.7867409" lon="12.8850575"><ele>327.0</ele><time>2026-05-01T11:37:22.056Z</time></trkpt><trkpt lat="41.786838" lon="12.8848836"><ele>328.0</ele><time>2026-05-01T11:37:23.056Z</time></trkpt><trkpt lat="41.7869327" lon="12.8846996"><ele>329.0</ele><time>2026-05-01T11:37:24.056Z</time></trkpt><trkpt lat="41.7870268" lon="12.8845129"><ele>329.0</ele><time>2026-05-01T11:37:25.057Z</time></trkpt><trkpt lat="41.7871196" lon="12.8843195"><ele>329.0</ele><time>2026-05-01T11:37:26.057Z</time></trkpt><trkpt lat="41.7872141" lon="12.8841293"><ele>329.0</ele><time>2026-05-01T11:37:27.057Z</time></trkpt><trkpt lat="41.7873109" lon="12.8839399"><ele>329.0</ele><time>2026-05-01T11:37:28.056Z</time></trkpt><trkpt lat="41.7874079" lon="12.8837514"><ele>329.0</ele><time>2026-05-01T11:37:29.057Z</time></trkpt><trkpt lat="41.7875041" lon="12.8835662"><ele>329.0</ele><time>2026-05-01T11:37:30.057Z</time></trkpt><trkpt lat="41.7875982" lon="12.8833823"><ele>330.0</ele><time>2026-05-01T11:37:31.057Z</time></trkpt><trkpt lat="41.7876855" lon="12.8832021"><ele>331.0</ele><time>2026-05-01T11:37:32.057Z</time></trkpt><trkpt lat="41.7877678" lon="12.8830342"><ele>332.0</ele><time>2026-05-01T11:37:33.057Z</time></trkpt><trkpt lat="41.7878492" lon="12.8828724"><ele>332.0</ele><time>2026-05-01T11:37:34.057Z</time></trkpt><trkpt lat="41.7879285" lon="12.8827114"><ele>332.0</ele><time>2026-05-01T11:37:35.056Z</time></trkpt><trkpt lat="41.7880053" lon="12.8825462"><ele>332.0</ele><time>2026-05-01T11:37:36.057Z</time></trkpt><trkpt lat="41.78808" lon="12.8823665"><ele>332.0</ele><time>2026-05-01T11:37:37.056Z</time></trkpt><trkpt lat="41.7881555" lon="12.8821752"><ele>332.6666666666667</ele><time>2026-05-01T11:37:38.057Z</time></trkpt><trkpt lat="41.78824" lon="12.8819841"><ele>333.3333333333333</ele><time>2026-05-01T11:37:39.057Z</time></trkpt><trkpt lat="41.7883136" lon="12.8817779"><ele>334.0</ele><time>2026-05-01T11:37:40.057Z</time></trkpt><trkpt lat="41.7883808" lon="12.8815602"><ele>335.3333333333333</ele><time>2026-05-01T11:37:41.057Z</time></trkpt><trkpt lat="41.7884376" lon="12.8813359"><ele>336.6666666666667</ele><time>2026-05-01T11:37:42.057Z</time></trkpt><trkpt lat="41.788477" lon="12.8811139"><ele>338.0</ele><time>2026-05-01T11:37:43.057Z</time></trkpt><trkpt lat="41.7885022" lon="12.8809039"><ele>338.5</ele><time>2026-05-01T11:37:44.056Z</time></trkpt><trkpt lat="41.7885213" lon="12.8807006"><ele>339.0</ele><time>2026-05-01T11:37:45.057Z</time></trkpt><trkpt lat="41.7885327" lon="12.8805283"><ele>339.5</ele><time>2026-05-01T11:37:46.057Z</time></trkpt><trkpt lat="41.7885406" lon="12.8803786"><ele>340.0</ele><time>2026-05-01T11:37:47.056Z</time></trkpt><trkpt lat="41.7885429" lon="12.8802385"><ele>340.25</ele><time>2026-05-01T11:37:48.057Z</time></trkpt><trkpt lat="41.7885464" lon="12.8800691"><ele>340.5</ele><time>2026-05-01T11:37:49.057Z</time></trkpt><trkpt lat="41.7885633" lon="12.8798811"><ele>340.75</ele><time>2026-05-01T11:37:50.057Z</time></trkpt><trkpt lat="41.7885953" lon="12.8796892"><ele>341.0</ele><time>2026-05-01T11:37:51.057Z</time></trkpt><trkpt lat="41.7886301" lon="12.8794935"><ele>341.0</ele><time>2026-05-01T11:37:52.057Z</time></trkpt><trkpt lat="41.7886791" lon="12.8792864"><ele>341.0</ele><time>2026-05-01T11:37:53.057Z</time></trkpt><trkpt lat="41.7887462" lon="12.8790764"><ele>341.0</ele><time>2026-05-01T11:37:54.056Z</time></trkpt><trkpt lat="41.7888262" lon="12.8788642"><ele>341.0</ele><time>2026-05-01T11:37:55.057Z</time></trkpt><trkpt lat="41.7889219" lon="12.8786447"><ele>341.0</ele><time>2026-05-01T11:37:56.057Z</time></trkpt><trkpt lat="41.7890308" lon="12.8784086"><ele>341.0</ele><time>2026-05-01T11:37:57.056Z</time></trkpt><trkpt lat="41.7891481" lon="12.8781547"><ele>342.5</ele><time>2026-05-01T11:37:58.057Z</time></trkpt><trkpt lat="41.7892735" lon="12.8778826"><ele>344.0</ele><time>2026-05-01T11:37:59.057Z</time></trkpt><trkpt lat="41.7894019" lon="12.8776105"><ele>343.0</ele><time>2026-05-01T11:38:00.056Z</time></trkpt><trkpt lat="41.7895375" lon="12.8773311"><ele>342.0</ele><time>2026-05-01T11:38:01.057Z</time></trkpt><trkpt lat="41.7896776" lon="12.8770389"><ele>342.0</ele><time>2026-05-01T11:38:02.057Z</time></trkpt><trkpt lat="41.7898211" lon="12.8767338"><ele>342.0</ele><time>2026-05-01T11:38:03.057Z</time></trkpt><trkpt lat="41.7899602" lon="12.8764329"><ele>342.0</ele><time>2026-05-01T11:38:04.056Z</time></trkpt><trkpt lat="41.7901005" lon="12.8761214"><ele>342.0</ele><time>2026-05-01T11:38:05.057Z</time></trkpt><trkpt lat="41.7902418" lon="12.8758065"><ele>343.0</ele><time>2026-05-01T11:38:06.057Z</time></trkpt><trkpt lat="41.7903839" lon="12.8754924"><ele>344.0</ele><time>2026-05-01T11:38:07.057Z</time></trkpt><trkpt lat="41.7905262" lon="12.8751798"><ele>345.0</ele><time>2026-05-01T11:38:08.056Z</time></trkpt><trkpt lat="41.7906689" lon="12.8748685"><ele>346.0</ele><time>2026-05-01T11:38:09.057Z</time></trkpt><trkpt lat="41.7908114" lon="12.8745622"><ele>347.5</ele><time>2026-05-01T11:38:10.057Z</time></trkpt><trkpt lat="41.7909548" lon="12.8742584"><ele>349.0</ele><time>2026-05-01T11:38:11.057Z</time></trkpt><trkpt lat="41.7910947" lon="12.8739559"><ele>351.0</ele><time>2026-05-01T11:38:12.057Z</time></trkpt><trkpt lat="41.7912351" lon="12.8736638"><ele>353.0</ele><time>2026-05-01T11:38:13.057Z</time></trkpt><trkpt lat="41.7913724" lon="12.873372"><ele>353.5</ele><time>2026-05-01T11:38:14.057Z</time></trkpt><trkpt lat="41.7915093" lon="12.873085"><ele>354.0</ele><time>2026-05-01T11:38:15.057Z</time></trkpt><trkpt lat="41.7916447" lon="12.8728001"><ele>354.0</ele><time>2026-05-01T11:38:16.057Z</time></trkpt><trkpt lat="41.7917775" lon="12.8725158"><ele>354.0</ele><time>2026-05-01T11:38:17.056Z</time></trkpt><trkpt lat="41.7919107" lon="12.8722371"><ele>356.0</ele><time>2026-05-01T11:38:18.057Z</time></trkpt><trkpt lat="41.7920415" lon="12.8719609"><ele>358.0</ele><time>2026-05-01T11:38:19.057Z</time></trkpt><trkpt lat="41.7921721" lon="12.8716893"><ele>358.0</ele><time>2026-05-01T11:38:20.057Z</time></trkpt><trkpt lat="41.7923026" lon="12.8714157"><ele>358.0</ele><time>2026-05-01T11:38:21.057Z</time></trkpt><trkpt lat="41.7924336" lon="12.87114"><ele>358.0</ele><time>2026-05-01T11:38:22.057Z</time></trkpt><trkpt lat="41.7925635" lon="12.8708567"><ele>358.0</ele><time>2026-05-01T11:38:23.057Z</time></trkpt><trkpt lat="41.7926958" lon="12.8705764"><ele>358.0</ele><time>2026-05-01T11:38:24.057Z</time></trkpt><trkpt lat="41.7928311" lon="12.8702951"><ele>358.0</ele><time>2026-05-01T11:38:25.056Z</time></trkpt><trkpt lat="41.7929623" lon="12.8700091"><ele>358.5</ele><time>2026-05-01T11:38:26.057Z</time></trkpt><trkpt lat="41.793094" lon="12.8697264"><ele>359.0</ele><time>2026-05-01T11:38:27.057Z</time></trkpt><trkpt lat="41.7932259" lon="12.8694466"><ele>360.0</ele><time>2026-05-01T11:38:28.056Z</time></trkpt><trkpt lat="41.793358" lon="12.8691671"><ele>361.0</ele><time>2026-05-01T11:38:29.057Z</time></trkpt><trkpt lat="41.7934905" lon="12.8688907"><ele>361.0</ele><time>2026-05-01T11:38:30.057Z</time></trkpt><trkpt lat="41.7936193" lon="12.868614"><ele>361.0</ele><time>2026-05-01T11:38:31.057Z</time></trkpt><trkpt lat="41.7937408" lon="12.8683469"><ele>361.3333333333333</ele><time>2026-05-01T11:38:32.057Z</time></trkpt><trkpt lat="41.7938573" lon="12.8680929"><ele>361.6666666666667</ele><time>2026-05-01T11:38:33.057Z</time></trkpt><trkpt lat="41.7939728" lon="12.8678415"><ele>362.0</ele><time>2026-05-01T11:38:34.057Z</time></trkpt><trkpt lat="41.7940897" lon="12.8675914"><ele>362.33333333333337</ele><time>2026-05-01T11:38:35.057Z</time></trkpt><trkpt lat="41.7942026" lon="12.8673481"><ele>362.6666666666667</ele><time>2026-05-01T11:38:36.056Z</time></trkpt><trkpt lat="41.7943102" lon="12.8671181"><ele>363.0</ele><time>2026-05-01T11:38:37.056Z</time></trkpt><trkpt lat="41.7944131" lon="12.8668931"><ele>363.3333333333333</ele><time>2026-05-01T11:38:38.057Z</time></trkpt><trkpt lat="41.7945209" lon="12.8666606"><ele>363.66666666666663</ele><time>2026-05-01T11:38:39.056Z</time></trkpt><trkpt lat="41.7946299" lon="12.8664174"><ele>364.0</ele><time>2026-05-01T11:38:40.057Z</time></trkpt><trkpt lat="41.7947412" lon="12.8661569"><ele>364.5</ele><time>2026-05-01T11:38:41.057Z</time></trkpt><trkpt lat="41.7948618" lon="12.8658856"><ele>365.0</ele><time>2026-05-01T11:38:42.057Z</time></trkpt><trkpt lat="41.7949968" lon="12.8656129"><ele>365.0</ele><time>2026-05-01T11:38:43.056Z</time></trkpt><trkpt lat="41.7951354" lon="12.8653308"><ele>365.0</ele><time>2026-05-01T11:38:44.057Z</time></trkpt><trkpt lat="41.7952684" lon="12.8650463"><ele>366.5</ele><time>2026-05-01T11:38:45.057Z</time></trkpt><trkpt lat="41.7953998" lon="12.8647655"><ele>368.0</ele><time>2026-05-01T11:38:46.057Z</time></trkpt><trkpt lat="41.7955289" lon="12.8644856"><ele>368.0</ele><time>2026-05-01T11:38:47.056Z</time></trkpt><trkpt lat="41.7956584" lon="12.864207"><ele>368.0</ele><time>2026-05-01T11:38:48.057Z</time></trkpt><trkpt lat="41.7957898" lon="12.8639287"><ele>368.0</ele><time>2026-05-01T11:38:49.056Z</time></trkpt><trkpt lat="41.7959219" lon="12.8636483"><ele>368.0</ele><time>2026-05-01T11:38:50.056Z</time></trkpt><trkpt lat="41.7960539" lon="12.863365"><ele>368.0</ele><time>2026-05-01T11:38:51.057Z</time></trkpt><trkpt lat="41.7961875" lon="12.8630817"><ele>368.0</ele><time>2026-05-01T11:38:52.056Z</time></trkpt><trkpt lat="41.7963214" lon="12.862799"><ele>368.5</ele><time>2026-05-01T11:38:53.057Z</time></trkpt><trkpt lat="41.7964544" lon="12.8625154"><ele>369.0</ele><time>2026-05-01T11:38:54.056Z</time></trkpt><trkpt lat="41.7965852" lon="12.8622341"><ele>369.0</ele><time>2026-05-01T11:38:55.057Z</time></trkpt><trkpt lat="41.7967165" lon="12.8619542"><ele>369.0</ele><time>2026-05-01T11:38:56.057Z</time></trkpt><trkpt lat="41.7968482" lon="12.8616753"><ele>369.0</ele><time>2026-05-01T11:38:57.057Z</time></trkpt><trkpt lat="41.7969794" lon="12.8613951"><ele>369.0</ele><time>2026-05-01T11:38:58.057Z</time></trkpt><trkpt lat="41.7971096" lon="12.8611129"><ele>369.0</ele><time>2026-05-01T11:38:59.057Z</time></trkpt><trkpt lat="41.7972396" lon="12.8608296"><ele>369.0</ele><time>2026-05-01T11:39:00.057Z</time></trkpt><trkpt lat="41.7973715" lon="12.8605428"><ele>369.0</ele><time>2026-05-01T11:39:01.057Z</time></trkpt><trkpt lat="41.797505" lon="12.8602539"><ele>369.0</ele><time>2026-05-01T11:39:02.056Z</time></trkpt><trkpt lat="41.7976413" lon="12.8599649"><ele>368.5</ele><time>2026-05-01T11:39:03.057Z</time></trkpt><trkpt lat="41.7977785" lon="12.8596741"><ele>368.0</ele><time>2026-05-01T11:39:04.056Z</time></trkpt><trkpt lat="41.7979151" lon="12.8593806"><ele>369.5</ele><time>2026-05-01T11:39:05.057Z</time></trkpt><trkpt lat="41.7980513" lon="12.8590853"><ele>371.0</ele><time>2026-05-01T11:39:06.057Z</time></trkpt><trkpt lat="41.7981878" lon="12.85879"><ele>371.0</ele><time>2026-05-01T11:39:07.057Z</time></trkpt><trkpt lat="41.7983265" lon="12.8584953"><ele>371.0</ele><time>2026-05-01T11:39:08.057Z</time></trkpt><trkpt lat="41.7984641" lon="12.8582"><ele>372.5</ele><time>2026-05-01T11:39:09.056Z</time></trkpt><trkpt lat="41.7985995" lon="12.8579061"><ele>374.0</ele><time>2026-05-01T11:39:10.057Z</time></trkpt><trkpt lat="41.7987307" lon="12.8576247"><ele>374.5</ele><time>2026-05-01T11:39:11.056Z</time></trkpt><trkpt lat="41.7988544" lon="12.8573605"><ele>375.0</ele><time>2026-05-01T11:39:12.057Z</time></trkpt><trkpt lat="41.7989725" lon="12.8571091"><ele>375.0</ele><time>2026-05-01T11:39:13.056Z</time></trkpt><trkpt lat="41.7990857" lon="12.8568622"><ele>375.0</ele><time>2026-05-01T11:39:14.057Z</time></trkpt><trkpt lat="41.7991904" lon="12.8566213"><ele>375.0</ele><time>2026-05-01T11:39:15.057Z</time></trkpt><trkpt lat="41.7992735" lon="12.8563675"><ele>374.3333333333333</ele><time>2026-05-01T11:39:16.056Z</time></trkpt><trkpt lat="41.7993308" lon="12.8560994"><ele>373.66666666666663</ele><time>2026-05-01T11:39:17.057Z</time></trkpt><trkpt lat="41.7993687" lon="12.8558183"><ele>373.0</ele><time>2026-05-01T11:39:18.057Z</time></trkpt><trkpt lat="41.7993996" lon="12.8555368"><ele>373.0</ele><time>2026-05-01T11:39:19.057Z</time></trkpt><trkpt lat="41.7994246" lon="12.8552691"><ele>373.0</ele><time>2026-05-01T11:39:20.057Z</time></trkpt><trkpt lat="41.7994486" lon="12.8550094"><ele>373.0</ele><time>2026-05-01T11:39:21.056Z</time></trkpt><trkpt lat="41.7994717" lon="12.8547543"><ele>372.66666666666663</ele><time>2026-05-01T11:39:22.057Z</time></trkpt><trkpt lat="41.7994949" lon="12.854496"><ele>372.3333333333333</ele><time>2026-05-01T11:39:23.057Z</time></trkpt><trkpt lat="41.799516" lon="12.8542402"><ele>372.0</ele><time>2026-05-01T11:39:24.057Z</time></trkpt><trkpt lat="41.7995353" lon="12.8539845"><ele>371.3333333333333</ele><time>2026-05-01T11:39:25.056Z</time></trkpt><trkpt lat="41.7995541" lon="12.8537285"><ele>370.66666666666663</ele><time>2026-05-01T11:39:26.057Z</time></trkpt><trkpt lat="41.7995764" lon="12.8534738"><ele>370.0</ele><time>2026-05-01T11:39:27.057Z</time></trkpt><trkpt lat="41.7995988" lon="12.8532189"><ele>370.0</ele><time>2026-05-01T11:39:28.057Z</time></trkpt><trkpt lat="41.7996218" lon="12.8529742"><ele>370.0</ele><time>2026-05-01T11:39:29.057Z</time></trkpt><trkpt lat="41.7996416" lon="12.85274"><ele>370.0</ele><time>2026-05-01T11:39:30.057Z</time></trkpt><trkpt lat="41.7996612" lon="12.8525197"><ele>370.0</ele><time>2026-05-01T11:39:31.057Z</time></trkpt><trkpt lat="41.799681" lon="12.8523112"><ele>370.0</ele><time>2026-05-01T11:39:32.057Z</time></trkpt><trkpt lat="41.7997" lon="12.8521084"><ele>370.0</ele><time>2026-05-01T11:39:33.056Z</time></trkpt><trkpt lat="41.7997214" lon="12.8519132"><ele>369.66666666666663</ele><time>2026-05-01T11:39:34.057Z</time></trkpt><trkpt lat="41.7997496" lon="12.8516997"><ele>369.3333333333333</ele><time>2026-05-01T11:39:35.057Z</time></trkpt><trkpt lat="41.7997674" lon="12.8514673"><ele>369.0</ele><time>2026-05-01T11:39:36.057Z</time></trkpt><trkpt lat="41.7997766" lon="12.8512183"><ele>369.0</ele><time>2026-05-01T11:39:37.057Z</time></trkpt><trkpt lat="41.7997953" lon="12.8509544"><ele>369.0</ele><time>2026-05-01T11:39:38.057Z</time></trkpt><trkpt lat="41.7998201" lon="12.8506873"><ele>369.0</ele><time>2026-05-01T11:39:39.057Z</time></trkpt><trkpt lat="41.7998471" lon="12.8504156"><ele>369.0</ele><time>2026-05-01T11:39:40.057Z</time></trkpt><trkpt lat="41.7998851" lon="12.8501439"><ele>369.0</ele><time>2026-05-01T11:39:41.057Z</time></trkpt><trkpt lat="41.7999412" lon="12.8498759"><ele>369.0</ele><time>2026-05-01T11:39:42.057Z</time></trkpt><trkpt lat="41.8000082" lon="12.8496078"><ele>369.3333333333333</ele><time>2026-05-01T11:39:43.057Z</time></trkpt><trkpt lat="41.8000791" lon="12.8493472"><ele>369.66666666666663</ele><time>2026-05-01T11:39:44.056Z</time></trkpt><trkpt lat="41.8001477" lon="12.8490929"><ele>370.0</ele><time>2026-05-01T11:39:45.057Z</time></trkpt><trkpt lat="41.8002147" lon="12.8488406"><ele>370.3333333333333</ele><time>2026-05-01T11:39:46.057Z</time></trkpt><trkpt lat="41.8002869" lon="12.8485853"><ele>370.6666666666667</ele><time>2026-05-01T11:39:47.057Z</time></trkpt><trkpt lat="41.8003653" lon="12.8483234"><ele>371.0</ele><time>2026-05-01T11:39:48.056Z</time></trkpt><trkpt lat="41.8004506" lon="12.84803"><ele>367.0</ele><time>2026-05-01T11:39:49.057Z</time></trkpt><trkpt lat="41.8005485" lon="12.8477213"><ele>363.0</ele><time>2026-05-01T11:39:50.057Z</time></trkpt><trkpt lat="41.8006739" lon="12.8474014"><ele>359.5</ele><time>2026-05-01T11:39:51.057Z</time></trkpt><trkpt lat="41.8008143" lon="12.8470771"><ele>356.0</ele><time>2026-05-01T11:39:52.056Z</time></trkpt><trkpt lat="41.8009449" lon="12.846764"><ele>354.0</ele><time>2026-05-01T11:39:53.056Z</time></trkpt><trkpt lat="41.8010652" lon="12.8464568"><ele>352.0</ele><time>2026-05-01T11:39:54.057Z</time></trkpt><trkpt lat="41.8011783" lon="12.8461621"><ele>351.66666666666663</ele><time>2026-05-01T11:39:55.056Z</time></trkpt><trkpt lat="41.8012808" lon="12.8459062"><ele>351.3333333333333</ele><time>2026-05-01T11:39:56.056Z</time></trkpt><trkpt lat="41.801387" lon="12.8456832"><ele>351.0</ele><time>2026-05-01T11:39:57.057Z</time></trkpt><trkpt lat="41.8015111" lon="12.8455145"><ele>351.0</ele><time>2026-05-01T11:39:58.057Z</time></trkpt><trkpt lat="41.8016553" lon="12.8454006"><ele>351.0</ele><time>2026-05-01T11:39:59.057Z</time></trkpt><trkpt lat="41.8018315" lon="12.8453429"><ele>351.0</ele><time>2026-05-01T11:40:00.056Z</time></trkpt><trkpt lat="41.8020249" lon="12.8452988"><ele>350.3333333333333</ele><time>2026-05-01T11:40:01.057Z</time></trkpt><trkpt lat="41.8022363" lon="12.8452458"><ele>349.66666666666663</ele><time>2026-05-01T11:40:02.057Z</time></trkpt><trkpt lat="41.8024631" lon="12.8451801"><ele>349.0</ele><time>2026-05-01T11:40:03.057Z</time></trkpt><trkpt lat="41.8027021" lon="12.8450916"><ele>347.5</ele><time>2026-05-01T11:40:04.057Z</time></trkpt><trkpt lat="41.8029469" lon="12.8449756"><ele>346.0</ele><time>2026-05-01T11:40:05.057Z</time></trkpt><trkpt lat="41.8031915" lon="12.844835"><ele>346.0</ele><time>2026-05-01T11:40:06.057Z</time></trkpt><trkpt lat="41.8034185" lon="12.8446869"><ele>346.0</ele><time>2026-05-01T11:40:07.057Z</time></trkpt><trkpt lat="41.803628" lon="12.8445323"><ele>345.5</ele><time>2026-05-01T11:40:08.057Z</time></trkpt><trkpt lat="41.8038175" lon="12.8443638"><ele>345.0</ele><time>2026-05-01T11:40:09.057Z</time></trkpt><trkpt lat="41.8039932" lon="12.8441598"><ele>344.5</ele><time>2026-05-01T11:40:10.056Z</time></trkpt><trkpt lat="41.8041638" lon="12.8439147"><ele>344.0</ele><time>2026-05-01T11:40:11.057Z</time></trkpt><trkpt lat="41.8043314" lon="12.8436392"><ele>342.5</ele><time>2026-05-01T11:40:12.057Z</time></trkpt><trkpt lat="41.8045065" lon="12.8433492"><ele>341.0</ele><time>2026-05-01T11:40:13.057Z</time></trkpt><trkpt lat="41.8046785" lon="12.8430668"><ele>341.0</ele><time>2026-05-01T11:40:14.056Z</time></trkpt><trkpt lat="41.8048513" lon="12.8427864"><ele>341.0</ele><time>2026-05-01T11:40:15.057Z</time></trkpt><trkpt lat="41.8050235" lon="12.8425076"><ele>341.0</ele><time>2026-05-01T11:40:16.057Z</time></trkpt><trkpt lat="41.805194" lon="12.8422308"><ele>341.0</ele><time>2026-05-01T11:40:17.057Z</time></trkpt><trkpt lat="41.8053597" lon="12.8419612"><ele>338.0</ele><time>2026-05-01T11:40:18.057Z</time></trkpt><trkpt lat="41.8055205" lon="12.8416962"><ele>335.0</ele><time>2026-05-01T11:40:19.057Z</time></trkpt><trkpt lat="41.8056761" lon="12.8414383"><ele>335.0</ele><time>2026-05-01T11:40:20.056Z</time></trkpt><trkpt lat="41.8058296" lon="12.8411839"><ele>335.0</ele><time>2026-05-01T11:40:21.056Z</time></trkpt><trkpt lat="41.8059803" lon="12.8409334"><ele>335.0</ele><time>2026-05-01T11:40:22.056Z</time></trkpt><trkpt lat="41.8061264" lon="12.8406954"><ele>335.0</ele><time>2026-05-01T11:40:23.057Z</time></trkpt><trkpt lat="41.8062653" lon="12.8404664"><ele>335.0</ele><time>2026-05-01T11:40:24.056Z</time></trkpt><trkpt lat="41.806404" lon="12.8402358"><ele>335.0</ele><time>2026-05-01T11:40:25.056Z</time></trkpt><trkpt lat="41.8065431" lon="12.8400019"><ele>335.0</ele><time>2026-05-01T11:40:26.057Z</time></trkpt><trkpt lat="41.8066833" lon="12.8397676"><ele>336.0</ele><time>2026-05-01T11:40:27.057Z</time></trkpt><trkpt lat="41.8068262" lon="12.8395324"><ele>337.0</ele><time>2026-05-01T11:40:28.057Z</time></trkpt><trkpt lat="41.8069683" lon="12.8392951"><ele>337.5</ele><time>2026-05-01T11:40:29.057Z</time></trkpt><trkpt lat="41.8071114" lon="12.8390567"><ele>338.0</ele><time>2026-05-01T11:40:30.057Z</time></trkpt><trkpt lat="41.8072553" lon="12.8388167"><ele>338.0</ele><time>2026-05-01T11:40:31.057Z</time></trkpt><trkpt lat="41.8073994" lon="12.8385769"><ele>338.0</ele><time>2026-05-01T11:40:32.056Z</time></trkpt><trkpt lat="41.8075422" lon="12.838341"><ele>339.6666666666667</ele><time>2026-05-01T11:40:33.057Z</time></trkpt><trkpt lat="41.8076784" lon="12.8381192"><ele>341.3333333333333</ele><time>2026-05-01T11:40:34.056Z</time></trkpt><trkpt lat="41.8078111" lon="12.8379042"><ele>343.0</ele><time>2026-05-01T11:40:35.057Z</time></trkpt><trkpt lat="41.8079411" lon="12.8377011"><ele>343.0</ele><time>2026-05-01T11:40:36.057Z</time></trkpt><trkpt lat="41.808069" lon="12.8375167"><ele>343.0</ele><time>2026-05-01T11:40:37.057Z</time></trkpt><trkpt lat="41.8081965" lon="12.8373524"><ele>343.0</ele><time>2026-05-01T11:40:38.057Z</time></trkpt><trkpt lat="41.8083207" lon="12.83721"><ele>343.0</ele><time>2026-05-01T11:40:39.056Z</time></trkpt><trkpt lat="41.8084371" lon="12.8370869"><ele>343.0</ele><time>2026-05-01T11:40:40.057Z</time></trkpt><trkpt lat="41.808545" lon="12.8369742"><ele>343.0</ele><time>2026-05-01T11:40:41.056Z</time></trkpt><trkpt lat="41.8086421" lon="12.8368704"><ele>343.0</ele><time>2026-05-01T11:40:42.056Z</time></trkpt><trkpt lat="41.8087329" lon="12.8367735"><ele>343.75</ele><time>2026-05-01T11:40:43.057Z</time></trkpt><trkpt lat="41.8088221" lon="12.8366742"><ele>344.5</ele><time>2026-05-01T11:40:44.057Z</time></trkpt><trkpt lat="41.8089053" lon="12.8365852"><ele>345.25</ele><time>2026-05-01T11:40:45.056Z</time></trkpt><trkpt lat="41.8089892" lon="12.8364932"><ele>346.0</ele><time>2026-05-01T11:40:46.057Z</time></trkpt><trkpt lat="41.8090773" lon="12.8363848"><ele>346.0</ele><time>2026-05-01T11:40:47.056Z</time></trkpt><trkpt lat="41.8091696" lon="12.836256"><ele>346.0</ele><time>2026-05-01T11:40:48.057Z</time></trkpt><trkpt lat="41.8092688" lon="12.8361133"><ele>346.0</ele><time>2026-05-01T11:40:49.057Z</time></trkpt><trkpt lat="41.8093748" lon="12.8359618"><ele>346.0</ele><time>2026-05-01T11:40:50.057Z</time></trkpt><trkpt lat="41.8094859" lon="12.835804"><ele>345.3333333333333</ele><time>2026-05-01T11:40:51.057Z</time></trkpt><trkpt lat="41.8095923" lon="12.835651"><ele>344.6666666666667</ele><time>2026-05-01T11:40:52.057Z</time></trkpt><trkpt lat="41.8097185" lon="12.8354723"><ele>344.0</ele><time>2026-05-01T11:40:53.057Z</time></trkpt><trkpt lat="41.8098614" lon="12.8352776"><ele>343.6666666666667</ele><time>2026-05-01T11:40:54.057Z</time></trkpt><trkpt lat="41.8100112" lon="12.835064"><ele>343.3333333333333</ele><time>2026-05-01T11:40:55.057Z</time></trkpt><trkpt lat="41.810159" lon="12.8348471"><ele>343.0</ele><time>2026-05-01T11:40:56.057Z</time></trkpt><trkpt lat="41.8103109" lon="12.8346216"><ele>340.5</ele><time>2026-05-01T11:40:57.057Z</time></trkpt><trkpt lat="41.8104619" lon="12.8343957"><ele>338.0</ele><time>2026-05-01T11:40:58.057Z</time></trkpt><trkpt lat="41.8106149" lon="12.8341695"><ele>338.0</ele><time>2026-05-01T11:40:59.056Z</time></trkpt><trkpt lat="41.810774" lon="12.8339446"><ele>338.0</ele><time>2026-05-01T11:41:00.057Z</time></trkpt><trkpt lat="41.8109328" lon="12.8337239"><ele>337.5</ele><time>2026-05-01T11:41:01.057Z</time></trkpt><trkpt lat="41.8110912" lon="12.8334975"><ele>337.0</ele><time>2026-05-01T11:41:02.057Z</time></trkpt><trkpt lat="41.8112482" lon="12.8332677"><ele>335.5</ele><time>2026-05-01T11:41:03.057Z</time></trkpt><trkpt lat="41.8114038" lon="12.8330366"><ele>334.0</ele><time>2026-05-01T11:41:04.056Z</time></trkpt><trkpt lat="41.8115595" lon="12.8328026"><ele>334.0</ele><time>2026-05-01T11:41:05.057Z</time></trkpt><trkpt lat="41.8117146" lon="12.8325691"><ele>334.0</ele><time>2026-05-01T11:41:06.057Z</time></trkpt><trkpt lat="41.8118667" lon="12.8323343"><ele>334.0</ele><time>2026-05-01T11:41:07.057Z</time></trkpt><trkpt lat="41.8120135" lon="12.8320952"><ele>334.0</ele><time>2026-05-01T11:41:08.057Z</time></trkpt><trkpt lat="41.8121558" lon="12.8318571"><ele>333.66666666666663</ele><time>2026-05-01T11:41:09.057Z</time></trkpt><trkpt lat="41.812295" lon="12.831624"><ele>333.3333333333333</ele><time>2026-05-01T11:41:10.056Z</time></trkpt><trkpt lat="41.8124326" lon="12.8313985"><ele>333.0</ele><time>2026-05-01T11:41:11.057Z</time></trkpt><trkpt lat="41.8125667" lon="12.8311766"><ele>332.6666666666667</ele><time>2026-05-01T11:41:12.057Z</time></trkpt><trkpt lat="41.8126963" lon="12.8309527"><ele>332.33333333333337</ele><time>2026-05-01T11:41:13.057Z</time></trkpt><trkpt lat="41.8128162" lon="12.8307185"><ele>332.0</ele><time>2026-05-01T11:41:14.057Z</time></trkpt><trkpt lat="41.8129231" lon="12.8304703"><ele>332.0</ele><time>2026-05-01T11:41:15.057Z</time></trkpt><trkpt lat="41.8130175" lon="12.8302093"><ele>332.0</ele><time>2026-05-01T11:41:16.056Z</time></trkpt><trkpt lat="41.8130991" lon="12.8299384"><ele>332.0</ele><time>2026-05-01T11:41:17.057Z</time></trkpt><trkpt lat="41.8131686" lon="12.8296562"><ele>331.33333333333337</ele><time>2026-05-01T11:41:18.057Z</time></trkpt><trkpt lat="41.8132252" lon="12.829368"><ele>330.6666666666667</ele><time>2026-05-01T11:41:19.057Z</time></trkpt><trkpt lat="41.8132667" lon="12.8290732"><ele>330.0</ele><time>2026-05-01T11:41:20.057Z</time></trkpt><trkpt lat="41.8132983" lon="12.8287749"><ele>331.0</ele><time>2026-05-01T11:41:21.056Z</time></trkpt><trkpt lat="41.8133213" lon="12.8284747"><ele>332.0</ele><time>2026-05-01T11:41:22.057Z</time></trkpt><trkpt lat="41.8133371" lon="12.828175"><ele>333.0</ele><time>2026-05-01T11:41:23.056Z</time></trkpt><trkpt lat="41.8133389" lon="12.8278751"><ele>330.5</ele><time>2026-05-01T11:41:24.057Z</time></trkpt><trkpt lat="41.8133146" lon="12.8275743"><ele>328.0</ele><time>2026-05-01T11:41:25.057Z</time></trkpt><trkpt lat="41.8132679" lon="12.8272771"><ele>328.0</ele><time>2026-05-01T11:41:26.057Z</time></trkpt><trkpt lat="41.8132035" lon="12.826982"><ele>328.0</ele><time>2026-05-01T11:41:27.057Z</time></trkpt><trkpt lat="41.8131304" lon="12.8266889"><ele>326.66666666666663</ele><time>2026-05-01T11:41:28.057Z</time></trkpt><trkpt lat="41.8130559" lon="12.8264001"><ele>325.3333333333333</ele><time>2026-05-01T11:41:29.057Z</time></trkpt><trkpt lat="41.8129881" lon="12.8261175"><ele>324.0</ele><time>2026-05-01T11:41:30.057Z</time></trkpt><trkpt lat="41.8129388" lon="12.8258453"><ele>323.6666666666667</ele><time>2026-05-01T11:41:31.057Z</time></trkpt><trkpt lat="41.8129112" lon="12.825567"><ele>323.33333333333337</ele><time>2026-05-01T11:41:32.057Z</time></trkpt><trkpt lat="41.8129115" lon="12.8252829"><ele>323.0</ele><time>2026-05-01T11:41:33.057Z</time></trkpt><trkpt lat="41.8129392" lon="12.8249945"><ele>323.6666666666667</ele><time>2026-05-01T11:41:34.057Z</time></trkpt><trkpt lat="41.8129941" lon="12.8247058"><ele>324.3333333333333</ele><time>2026-05-01T11:41:35.056Z</time></trkpt><trkpt lat="41.8130611" lon="12.8244151"><ele>325.0</ele><time>2026-05-01T11:41:36.057Z</time></trkpt><trkpt lat="41.8131358" lon="12.8241199"><ele>325.5</ele><time>2026-05-01T11:41:37.057Z</time></trkpt><trkpt lat="41.8132168" lon="12.8238245"><ele>326.0</ele><time>2026-05-01T11:41:38.057Z</time></trkpt><trkpt lat="41.8133057" lon="12.8235295"><ele>326.5</ele><time>2026-05-01T11:41:39.057Z</time></trkpt><trkpt lat="41.813404" lon="12.8232385"><ele>327.0</ele><time>2026-05-01T11:41:40.056Z</time></trkpt><trkpt lat="41.8135116" lon="12.8229541"><ele>329.5</ele><time>2026-05-01T11:41:41.056Z</time></trkpt><trkpt lat="41.8136297" lon="12.8226792"><ele>332.0</ele><time>2026-05-01T11:41:42.057Z</time></trkpt><trkpt lat="41.8137634" lon="12.8224201"><ele>332.5</ele><time>2026-05-01T11:41:43.057Z</time></trkpt><trkpt lat="41.8139145" lon="12.8221796"><ele>333.0</ele><time>2026-05-01T11:41:44.057Z</time></trkpt><trkpt lat="41.8140749" lon="12.8219457"><ele>332.5</ele><time>2026-05-01T11:41:45.056Z</time></trkpt><trkpt lat="41.8142375" lon="12.8217111"><ele>332.0</ele><time>2026-05-01T11:41:46.057Z</time></trkpt><trkpt lat="41.8143984" lon="12.8214737"><ele>334.5</ele><time>2026-05-01T11:41:47.056Z</time></trkpt><trkpt lat="41.814563" lon="12.8212387"><ele>337.0</ele><time>2026-05-01T11:41:48.057Z</time></trkpt><trkpt lat="41.8147303" lon="12.8210085"><ele>337.3333333333333</ele><time>2026-05-01T11:41:49.057Z</time></trkpt><trkpt lat="41.8148907" lon="12.820783"><ele>337.6666666666667</ele><time>2026-05-01T11:41:50.056Z</time></trkpt><trkpt lat="41.8150367" lon="12.8205682"><ele>338.0</ele><time>2026-05-01T11:41:51.056Z</time></trkpt><trkpt lat="41.8151674" lon="12.8203546"><ele>337.6666666666667</ele><time>2026-05-01T11:41:52.056Z</time></trkpt><trkpt lat="41.815286" lon="12.8201268"><ele>337.3333333333333</ele><time>2026-05-01T11:41:53.056Z</time></trkpt><trkpt lat="41.8153962" lon="12.8198828"><ele>337.0</ele><time>2026-05-01T11:41:54.056Z</time></trkpt><trkpt lat="41.8155" lon="12.8196253"><ele>337.0</ele><time>2026-05-01T11:41:55.057Z</time></trkpt><trkpt lat="41.8156002" lon="12.8193566"><ele>337.0</ele><time>2026-05-01T11:41:56.057Z</time></trkpt><trkpt lat="41.8157025" lon="12.8190803"><ele>335.0</ele><time>2026-05-01T11:41:57.057Z</time></trkpt><trkpt lat="41.8158072" lon="12.8188007"><ele>333.0</ele><time>2026-05-01T11:41:58.056Z</time></trkpt><trkpt lat="41.8159115" lon="12.8185267"><ele>332.6666666666667</ele><time>2026-05-01T11:41:59.057Z</time></trkpt><trkpt lat="41.816012" lon="12.8182624"><ele>332.33333333333337</ele><time>2026-05-01T11:42:00.057Z</time></trkpt><trkpt lat="41.81611" lon="12.8180059"><ele>332.0</ele><time>2026-05-01T11:42:01.057Z</time></trkpt><trkpt lat="41.8162056" lon="12.8177567"><ele>331.33333333333337</ele><time>2026-05-01T11:42:02.056Z</time></trkpt><trkpt lat="41.8162962" lon="12.8175148"><ele>330.6666666666667</ele><time>2026-05-01T11:42:03.057Z</time></trkpt><trkpt lat="41.81638" lon="12.817277"><ele>330.0</ele><time>2026-05-01T11:42:04.056Z</time></trkpt><trkpt lat="41.8164664" lon="12.8170331"><ele>327.3333333333333</ele><time>2026-05-01T11:42:05.057Z</time></trkpt><trkpt lat="41.8165537" lon="12.8167902"><ele>324.66666666666663</ele><time>2026-05-01T11:42:06.057Z</time></trkpt><trkpt lat="41.8166415" lon="12.8165486"><ele>322.0</ele><time>2026-05-01T11:42:07.057Z</time></trkpt><trkpt lat="41.8167298" lon="12.8163159"><ele>322.0</ele><time>2026-05-01T11:42:08.057Z</time></trkpt><trkpt lat="41.8168159" lon="12.8160912"><ele>322.0</ele><time>2026-05-01T11:42:09.057Z</time></trkpt><trkpt lat="41.8168984" lon="12.8158717"><ele>322.0</ele><time>2026-05-01T11:42:10.057Z</time></trkpt><trkpt lat="41.816983" lon="12.815662"><ele>320.66666666666663</ele><time>2026-05-01T11:42:11.057Z</time></trkpt><trkpt lat="41.8170693" lon="12.8154598"><ele>319.3333333333333</ele><time>2026-05-01T11:42:12.057Z</time></trkpt><trkpt lat="41.8171701" lon="12.8152708"><ele>318.0</ele><time>2026-05-01T11:42:13.057Z</time></trkpt><trkpt lat="41.8172925" lon="12.8151148"><ele>318.0</ele><time>2026-05-01T11:42:14.057Z</time></trkpt><trkpt lat="41.8174353" lon="12.8149827"><ele>318.0</ele><time>2026-05-01T11:42:15.057Z</time></trkpt><trkpt lat="41.8175977" lon="12.8148795"><ele>318.0</ele><time>2026-05-01T11:42:16.056Z</time></trkpt><trkpt lat="41.8177716" lon="12.8148007"><ele>318.0</ele><time>2026-05-01T11:42:17.056Z</time></trkpt><trkpt lat="41.817956" lon="12.8147395"><ele>318.0</ele><time>2026-05-01T11:42:18.057Z</time></trkpt><trkpt lat="41.8181447" lon="12.8146814"><ele>318.0</ele><time>2026-05-01T11:42:19.057Z</time></trkpt><trkpt lat="41.8183332" lon="12.8146172"><ele>317.0</ele><time>2026-05-01T11:42:20.057Z</time></trkpt><trkpt lat="41.8185234" lon="12.8145496"><ele>316.0</ele><time>2026-05-01T11:42:21.057Z</time></trkpt><trkpt lat="41.818718" lon="12.8144836"><ele>315.0</ele><time>2026-05-01T11:42:22.056Z</time></trkpt><trkpt lat="41.8189141" lon="12.814414"><ele>315.0</ele><time>2026-05-01T11:42:23.057Z</time></trkpt><trkpt lat="41.8191132" lon="12.8143449"><ele>315.0</ele><time>2026-05-01T11:42:24.057Z</time></trkpt><trkpt lat="41.8193148" lon="12.814276"><ele>315.0</ele><time>2026-05-01T11:42:25.057Z</time></trkpt><trkpt lat="41.8195064" lon="12.8142063"><ele>313.0</ele><time>2026-05-01T11:42:26.057Z</time></trkpt><trkpt lat="41.8196908" lon="12.814134"><ele>311.0</ele><time>2026-05-01T11:42:27.057Z</time></trkpt><trkpt lat="41.8198681" lon="12.8140569"><ele>309.0</ele><time>2026-05-01T11:42:28.056Z</time></trkpt><trkpt lat="41.8200374" lon="12.8139716"><ele>308.3333333333333</ele><time>2026-05-01T11:42:29.057Z</time></trkpt><trkpt lat="41.8202024" lon="12.813869"><ele>307.66666666666663</ele><time>2026-05-01T11:42:30.057Z</time></trkpt><trkpt lat="41.820374" lon="12.8137429"><ele>307.0</ele><time>2026-05-01T11:42:31.057Z</time></trkpt><trkpt lat="41.8205564" lon="12.8136006"><ele>306.5</ele><time>2026-05-01T11:42:32.056Z</time></trkpt><trkpt lat="41.8207516" lon="12.8134476"><ele>306.0</ele><time>2026-05-01T11:42:33.057Z</time></trkpt><trkpt lat="41.8209404" lon="12.8132856"><ele>305.3333333333333</ele><time>2026-05-01T11:42:34.056Z</time></trkpt><trkpt lat="41.8211186" lon="12.8131239"><ele>304.66666666666663</ele><time>2026-05-01T11:42:35.056Z</time></trkpt><trkpt lat="41.8212943" lon="12.8129466"><ele>304.0</ele><time>2026-05-01T11:42:36.056Z</time></trkpt><trkpt lat="41.8214597" lon="12.8127463"><ele>303.5</ele><time>2026-05-01T11:42:37.056Z</time></trkpt><trkpt lat="41.8216135" lon="12.8125211"><ele>303.0</ele><time>2026-05-01T11:42:38.057Z</time></trkpt><trkpt lat="41.8217565" lon="12.8122783"><ele>306.0</ele><time>2026-05-01T11:42:39.057Z</time></trkpt><trkpt lat="41.8218989" lon="12.812028"><ele>309.0</ele><time>2026-05-01T11:42:40.056Z</time></trkpt><trkpt lat="41.8220404" lon="12.8117747"><ele>310.0</ele><time>2026-05-01T11:42:41.056Z</time></trkpt><trkpt lat="41.8221799" lon="12.8115169"><ele>311.0</ele><time>2026-05-01T11:42:42.057Z</time></trkpt><trkpt lat="41.8223135" lon="12.8112525"><ele>308.0</ele><time>2026-05-01T11:42:43.057Z</time></trkpt><trkpt lat="41.8224384" lon="12.8109815"><ele>305.0</ele><time>2026-05-01T11:42:44.057Z</time></trkpt><trkpt lat="41.8225599" lon="12.8107063"><ele>303.5</ele><time>2026-05-01T11:42:45.057Z</time></trkpt><trkpt lat="41.8226793" lon="12.8104264"><ele>302.0</ele><time>2026-05-01T11:42:46.057Z</time></trkpt><trkpt lat="41.8227998" lon="12.8101459"><ele>302.0</ele><time>2026-05-01T11:42:47.057Z</time></trkpt><trkpt lat="41.8229189" lon="12.8098656"><ele>302.0</ele><time>2026-05-01T11:42:48.057Z</time></trkpt><trkpt lat="41.8230368" lon="12.8095863"><ele>298.5</ele><time>2026-05-01T11:42:49.057Z</time></trkpt><trkpt lat="41.8231537" lon="12.8093121"><ele>295.0</ele><time>2026-05-01T11:42:50.057Z</time></trkpt><trkpt lat="41.8232683" lon="12.8090462"><ele>295.0</ele><time>2026-05-01T11:42:51.057Z</time></trkpt><trkpt lat="41.8233845" lon="12.8087901"><ele>295.0</ele><time>2026-05-01T11:42:52.057Z</time></trkpt><trkpt lat="41.8235035" lon="12.8085484"><ele>295.0</ele><time>2026-05-01T11:42:53.057Z</time></trkpt><trkpt lat="41.8236174" lon="12.8083283"><ele>293.3333333333333</ele><time>2026-05-01T11:42:54.056Z</time></trkpt><trkpt lat="41.8237254" lon="12.8081441"><ele>291.6666666666667</ele><time>2026-05-01T11:42:55.057Z</time></trkpt><trkpt lat="41.8238366" lon="12.807973"><ele>290.0</ele><time>2026-05-01T11:42:56.057Z</time></trkpt><trkpt lat="41.8239498" lon="12.8077933"><ele>289.0</ele><time>2026-05-01T11:42:57.056Z</time></trkpt><trkpt lat="41.8240635" lon="12.8075921"><ele>288.0</ele><time>2026-05-01T11:42:58.057Z</time></trkpt><trkpt lat="41.8241748" lon="12.8073784"><ele>287.0</ele><time>2026-05-01T11:42:59.057Z</time></trkpt><trkpt lat="41.8242666" lon="12.8071437"><ele>290.33333333333337</ele><time>2026-05-01T11:43:00.056Z</time></trkpt><trkpt lat="41.8243343" lon="12.8068908"><ele>293.6666666666667</ele><time>2026-05-01T11:43:01.057Z</time></trkpt><trkpt lat="41.8243703" lon="12.8066196"><ele>297.0</ele><time>2026-05-01T11:43:02.057Z</time></trkpt><trkpt lat="41.8243813" lon="12.8063389"><ele>297.0</ele><time>2026-05-01T11:43:03.057Z</time></trkpt><trkpt lat="41.8243747" lon="12.8060548"><ele>297.0</ele><time>2026-05-01T11:43:04.056Z</time></trkpt><trkpt lat="41.8243445" lon="12.8057752"><ele>297.0</ele><time>2026-05-01T11:43:05.057Z</time></trkpt><trkpt lat="41.8242822" lon="12.8055044"><ele>293.3333333333333</ele><time>2026-05-01T11:43:06.057Z</time></trkpt><trkpt lat="41.8242019" lon="12.8052375"><ele>289.66666666666663</ele><time>2026-05-01T11:43:07.057Z</time></trkpt><trkpt lat="41.8241129" lon="12.8049721"><ele>286.0</ele><time>2026-05-01T11:43:08.057Z</time></trkpt><trkpt lat="41.8240169" lon="12.8047129"><ele>286.0</ele><time>2026-05-01T11:43:09.056Z</time></trkpt><trkpt lat="41.8239213" lon="12.8044522"><ele>286.0</ele><time>2026-05-01T11:43:10.057Z</time></trkpt><trkpt lat="41.8238327" lon="12.8042046"><ele>286.0</ele><time>2026-05-01T11:43:11.057Z</time></trkpt><trkpt lat="41.8237511" lon="12.8039769"><ele>285.0</ele><time>2026-05-01T11:43:12.057Z</time></trkpt><trkpt lat="41.8236737" lon="12.8037633"><ele>284.0</ele><time>2026-05-01T11:43:13.057Z</time></trkpt><trkpt lat="41.8236008" lon="12.8035647"><ele>283.0</ele><time>2026-05-01T11:43:14.057Z</time></trkpt><trkpt lat="41.8235351" lon="12.8033787"><ele>281.66666666666663</ele><time>2026-05-01T11:43:15.057Z</time></trkpt><trkpt lat="41.8234869" lon="12.8031999"><ele>280.3333333333333</ele><time>2026-05-01T11:43:16.057Z</time></trkpt><trkpt lat="41.823407" lon="12.8028736"><ele>279.0</ele><time>2026-05-01T11:43:18.056Z</time></trkpt><trkpt lat="41.8233254" lon="12.8027286"><ele>282.3333333333333</ele><time>2026-05-01T11:43:19.056Z</time></trkpt><trkpt lat="41.8232448" lon="12.8025628"><ele>285.66666666666663</ele><time>2026-05-01T11:43:20.056Z</time></trkpt><trkpt lat="41.8231741" lon="12.8023781"><ele>289.0</ele><time>2026-05-01T11:43:21.057Z</time></trkpt><trkpt lat="41.8230985" lon="12.8021842"><ele>289.0</ele><time>2026-05-01T11:43:22.057Z</time></trkpt><trkpt lat="41.8230148" lon="12.8019849"><ele>289.0</ele><time>2026-05-01T11:43:23.057Z</time></trkpt><trkpt lat="41.8229391" lon="12.801773"><ele>289.0</ele><time>2026-05-01T11:43:24.057Z</time></trkpt><trkpt lat="41.8228595" lon="12.8015599"><ele>293.3333333333333</ele><time>2026-05-01T11:43:25.057Z</time></trkpt><trkpt lat="41.822778" lon="12.8013467"><ele>297.6666666666667</ele><time>2026-05-01T11:43:26.057Z</time></trkpt><trkpt lat="41.8227015" lon="12.8011323"><ele>302.0</ele><time>2026-05-01T11:43:27.057Z</time></trkpt><trkpt lat="41.8226288" lon="12.8009174"><ele>304.0</ele><time>2026-05-01T11:43:28.057Z</time></trkpt><trkpt lat="41.8225637" lon="12.8007075"><ele>306.0</ele><time>2026-05-01T11:43:29.057Z</time></trkpt><trkpt lat="41.822511" lon="12.8005014"><ele>308.0</ele><time>2026-05-01T11:43:30.057Z</time></trkpt><trkpt lat="41.8224717" lon="12.8003043"><ele>309.0</ele><time>2026-05-01T11:43:31.057Z</time></trkpt><trkpt lat="41.8224425" lon="12.8001181"><ele>310.0</ele><time>2026-05-01T11:43:32.057Z</time></trkpt><trkpt lat="41.8224237" lon="12.7999451"><ele>311.0</ele><time>2026-05-01T11:43:33.057Z</time></trkpt><trkpt lat="41.8224185" lon="12.7997848"><ele>312.0</ele><time>2026-05-01T11:43:34.057Z</time></trkpt><trkpt lat="41.8224275" lon="12.7996431"><ele>312.0</ele><time>2026-05-01T11:43:35.056Z</time></trkpt><trkpt lat="41.8224428" lon="12.799523"><ele>312.0</ele><time>2026-05-01T11:43:36.057Z</time></trkpt><trkpt lat="41.822461" lon="12.7994128"><ele>312.0</ele><time>2026-05-01T11:43:37.057Z</time></trkpt><trkpt lat="41.8224829" lon="12.7993246"><ele>312.0</ele><time>2026-05-01T11:43:38.057Z</time></trkpt><trkpt lat="41.8225417" lon="12.799187"><ele>312.0</ele><time>2026-05-01T11:43:40.056Z</time></trkpt><trkpt lat="41.8225497" lon="12.799032"><ele>312.3333333333333</ele><time>2026-05-01T11:43:42.057Z</time></trkpt><trkpt lat="41.8225555" lon="12.7989379"><ele>312.6666666666667</ele><time>2026-05-01T11:43:43.057Z</time></trkpt><trkpt lat="41.8225689" lon="12.7988325"><ele>313.0</ele><time>2026-05-01T11:43:44.057Z</time></trkpt><trkpt lat="41.822598" lon="12.7987202"><ele>313.33333333333337</ele><time>2026-05-01T11:43:45.057Z</time></trkpt><trkpt lat="41.8226368" lon="12.7985983"><ele>313.6666666666667</ele><time>2026-05-01T11:43:46.057Z</time></trkpt><trkpt lat="41.8226822" lon="12.7984686"><ele>314.0</ele><time>2026-05-01T11:43:47.057Z</time></trkpt><trkpt lat="41.8227324" lon="12.7983304"><ele>312.0</ele><time>2026-05-01T11:43:48.057Z</time></trkpt><trkpt lat="41.8227859" lon="12.7981942"><ele>310.0</ele><time>2026-05-01T11:43:49.056Z</time></trkpt><trkpt lat="41.8228405" lon="12.7980621"><ele>308.0</ele><time>2026-05-01T11:43:50.056Z</time></trkpt><trkpt lat="41.8228987" lon="12.7979134"><ele>306.0</ele><time>2026-05-01T11:43:51.057Z</time></trkpt><trkpt lat="41.8229664" lon="12.7977507"><ele>305.75</ele><time>2026-05-01T11:43:52.057Z</time></trkpt><trkpt lat="41.8230426" lon="12.7975827"><ele>305.5</ele><time>2026-05-01T11:43:53.057Z</time></trkpt><trkpt lat="41.8231189" lon="12.7974235"><ele>305.25</ele><time>2026-05-01T11:43:54.056Z</time></trkpt><trkpt lat="41.8232" lon="12.7972574"><ele>305.0</ele><time>2026-05-01T11:43:55.056Z</time></trkpt><trkpt lat="41.8232858" lon="12.7970915"><ele>305.0</ele><time>2026-05-01T11:43:56.057Z</time></trkpt><trkpt lat="41.8233773" lon="12.7969297"><ele>305.0</ele><time>2026-05-01T11:43:57.057Z</time></trkpt><trkpt lat="41.8234705" lon="12.7967753"><ele>305.0</ele><time>2026-05-01T11:43:58.056Z</time></trkpt><trkpt lat="41.8235644" lon="12.7966202"><ele>305.0</ele><time>2026-05-01T11:43:59.057Z</time></trkpt><trkpt lat="41.8236575" lon="12.7964626"><ele>304.25</ele><time>2026-05-01T11:44:00.057Z</time></trkpt><trkpt lat="41.8237452" lon="12.7963171"><ele>303.5</ele><time>2026-05-01T11:44:01.057Z</time></trkpt><trkpt lat="41.8238335" lon="12.7961735"><ele>302.75</ele><time>2026-05-01T11:44:02.056Z</time></trkpt><trkpt lat="41.8239156" lon="12.7960352"><ele>302.0</ele><time>2026-05-01T11:44:03.056Z</time></trkpt><trkpt lat="41.8239939" lon="12.7958837"><ele>302.0</ele><time>2026-05-01T11:44:04.057Z</time></trkpt><trkpt lat="41.8240786" lon="12.7957129"><ele>302.0</ele><time>2026-05-01T11:44:05.057Z</time></trkpt><trkpt lat="41.8241625" lon="12.7955395"><ele>302.0</ele><time>2026-05-01T11:44:06.057Z</time></trkpt><trkpt lat="41.8242367" lon="12.7953731"><ele>302.0</ele><time>2026-05-01T11:44:07.057Z</time></trkpt><trkpt lat="41.8243032" lon="12.7952039"><ele>302.0</ele><time>2026-05-01T11:44:08.056Z</time></trkpt><trkpt lat="41.8243625" lon="12.7950346"><ele>302.0</ele><time>2026-05-01T11:44:09.057Z</time></trkpt><trkpt lat="41.8244181" lon="12.794868"><ele>302.0</ele><time>2026-05-01T11:44:10.056Z</time></trkpt><trkpt lat="41.8244723" lon="12.7947067"><ele>301.75</ele><time>2026-05-01T11:44:11.057Z</time></trkpt><trkpt lat="41.8245222" lon="12.7945572"><ele>301.5</ele><time>2026-05-01T11:44:12.057Z</time></trkpt><trkpt lat="41.8245681" lon="12.7944088"><ele>301.25</ele><time>2026-05-01T11:44:13.057Z</time></trkpt><trkpt lat="41.8246129" lon="12.7942627"><ele>301.0</ele><time>2026-05-01T11:44:14.056Z</time></trkpt><trkpt lat="41.8246552" lon="12.7941143"><ele>301.0</ele><time>2026-05-01T11:44:15.056Z</time></trkpt><trkpt lat="41.8246957" lon="12.7939615"><ele>301.0</ele><time>2026-05-01T11:44:16.057Z</time></trkpt><trkpt lat="41.8247368" lon="12.7938153"><ele>301.0</ele><time>2026-05-01T11:44:17.057Z</time></trkpt><trkpt lat="41.8247802" lon="12.7936745"><ele>301.0</ele><time>2026-05-01T11:44:18.057Z</time></trkpt><trkpt lat="41.8248251" lon="12.7935348"><ele>301.0</ele><time>2026-05-01T11:44:19.057Z</time></trkpt><trkpt lat="41.8248707" lon="12.7933965"><ele>301.0</ele><time>2026-05-01T11:44:20.056Z</time></trkpt><trkpt lat="41.8249177" lon="12.7932604"><ele>301.0</ele><time>2026-05-01T11:44:21.057Z</time></trkpt><trkpt lat="41.8249652" lon="12.7931351"><ele>301.0</ele><time>2026-05-01T11:44:22.057Z</time></trkpt><trkpt lat="41.8250113" lon="12.7930392"><ele>301.0</ele><time>2026-05-01T11:44:23.057Z</time></trkpt><trkpt lat="41.8250486" lon="12.7929686"><ele>301.0</ele><time>2026-05-01T11:44:24.057Z</time></trkpt><trkpt lat="41.8250967" lon="12.7928859"><ele>301.0</ele><time>2026-05-01T11:44:26.057Z</time></trkpt><trkpt lat="41.8251562" lon="12.7927715"><ele>301.0</ele><time>2026-05-01T11:44:28.057Z</time></trkpt><trkpt lat="41.8252018" lon="12.7926778"><ele>301.0</ele><time>2026-05-01T11:44:29.057Z</time></trkpt><trkpt lat="41.8252616" lon="12.7925541"><ele>301.0</ele><time>2026-05-01T11:44:30.057Z</time></trkpt><trkpt lat="41.8253354" lon="12.7924137"><ele>299.66666666666663</ele><time>2026-05-01T11:44:31.057Z</time></trkpt><trkpt lat="41.82542" lon="12.7922463"><ele>298.3333333333333</ele><time>2026-05-01T11:44:32.057Z</time></trkpt><trkpt lat="41.8255107" lon="12.7920651"><ele>297.0</ele><time>2026-05-01T11:44:33.057Z</time></trkpt><trkpt lat="41.8256091" lon="12.7918721"><ele>296.6666666666667</ele><time>2026-05-01T11:44:34.057Z</time></trkpt><trkpt lat="41.8257145" lon="12.7916635"><ele>296.33333333333337</ele><time>2026-05-01T11:44:35.057Z</time></trkpt><trkpt lat="41.8258256" lon="12.7914482"><ele>296.0</ele><time>2026-05-01T11:44:36.057Z</time></trkpt><trkpt lat="41.8259372" lon="12.7912309"><ele>293.33333333333337</ele><time>2026-05-01T11:44:37.057Z</time></trkpt><trkpt lat="41.8260509" lon="12.7910051"><ele>290.6666666666667</ele><time>2026-05-01T11:44:38.057Z</time></trkpt><trkpt lat="41.8261727" lon="12.7907733"><ele>288.0</ele><time>2026-05-01T11:44:39.057Z</time></trkpt><trkpt lat="41.8262977" lon="12.7905364"><ele>288.0</ele><time>2026-05-01T11:44:40.057Z</time></trkpt><trkpt lat="41.8264234" lon="12.7902989"><ele>288.0</ele><time>2026-05-01T11:44:41.056Z</time></trkpt><trkpt lat="41.826552" lon="12.7900551"><ele>288.0</ele><time>2026-05-01T11:44:42.057Z</time></trkpt><trkpt lat="41.8266816" lon="12.7898058"><ele>285.5</ele><time>2026-05-01T11:44:43.056Z</time></trkpt><trkpt lat="41.8268132" lon="12.7895531"><ele>283.0</ele><time>2026-05-01T11:44:44.057Z</time></trkpt><trkpt lat="41.826944" lon="12.7892987"><ele>282.5</ele><time>2026-05-01T11:44:45.056Z</time></trkpt><trkpt lat="41.8270774" lon="12.789042"><ele>282.0</ele><time>2026-05-01T11:44:46.057Z</time></trkpt><trkpt lat="41.8272084" lon="12.7887874"><ele>282.0</ele><time>2026-05-01T11:44:47.057Z</time></trkpt><trkpt lat="41.8273384" lon="12.7885353"><ele>282.0</ele><time>2026-05-01T11:44:48.057Z</time></trkpt><trkpt lat="41.8274664" lon="12.7882931"><ele>282.3333333333333</ele><time>2026-05-01T11:44:49.057Z</time></trkpt><trkpt lat="41.82759" lon="12.7880607"><ele>282.66666666666663</ele><time>2026-05-01T11:44:50.057Z</time></trkpt><trkpt lat="41.8277036" lon="12.7878326"><ele>283.0</ele><time>2026-05-01T11:44:51.057Z</time></trkpt><trkpt lat="41.8277977" lon="12.7876082"><ele>284.3333333333333</ele><time>2026-05-01T11:44:52.057Z</time></trkpt><trkpt lat="41.8278704" lon="12.7873866"><ele>285.6666666666667</ele><time>2026-05-01T11:44:53.056Z</time></trkpt><trkpt lat="41.8279245" lon="12.7871715"><ele>287.0</ele><time>2026-05-01T11:44:54.057Z</time></trkpt><trkpt lat="41.8279639" lon="12.7869764"><ele>286.75</ele><time>2026-05-01T11:44:55.057Z</time></trkpt><trkpt lat="41.827993" lon="12.7867997"><ele>286.5</ele><time>2026-05-01T11:44:56.057Z</time></trkpt><trkpt lat="41.8280207" lon="12.7866299"><ele>286.25</ele><time>2026-05-01T11:44:57.057Z</time></trkpt><trkpt lat="41.828044" lon="12.7864726"><ele>286.0</ele><time>2026-05-01T11:44:58.056Z</time></trkpt><trkpt lat="41.8280692" lon="12.7863232"><ele>286.0</ele><time>2026-05-01T11:44:59.057Z</time></trkpt><trkpt lat="41.8280958" lon="12.7861796"><ele>286.0</ele><time>2026-05-01T11:45:00.057Z</time></trkpt><trkpt lat="41.8281227" lon="12.7860355"><ele>286.0</ele><time>2026-05-01T11:45:01.057Z</time></trkpt><trkpt lat="41.8281507" lon="12.7858809"><ele>286.0</ele><time>2026-05-01T11:45:02.057Z</time></trkpt><trkpt lat="41.8281795" lon="12.7857108"><ele>286.0</ele><time>2026-05-01T11:45:03.056Z</time></trkpt><trkpt lat="41.8282096" lon="12.7855189"><ele>286.0</ele><time>2026-05-01T11:45:04.057Z</time></trkpt><trkpt lat="41.8282441" lon="12.7853051"><ele>286.0</ele><time>2026-05-01T11:45:05.057Z</time></trkpt><trkpt lat="41.8282834" lon="12.7850739"><ele>286.0</ele><time>2026-05-01T11:45:06.057Z</time></trkpt><trkpt lat="41.8283242" lon="12.7848251"><ele>286.0</ele><time>2026-05-01T11:45:07.056Z</time></trkpt><trkpt lat="41.8283675" lon="12.7845588"><ele>286.0</ele><time>2026-05-01T11:45:08.056Z</time></trkpt><trkpt lat="41.8284174" lon="12.7842866"><ele>285.3333333333333</ele><time>2026-05-01T11:45:09.057Z</time></trkpt><trkpt lat="41.8284715" lon="12.7840117"><ele>284.6666666666667</ele><time>2026-05-01T11:45:10.057Z</time></trkpt><trkpt lat="41.8285258" lon="12.7837358"><ele>284.0</ele><time>2026-05-01T11:45:11.057Z</time></trkpt><trkpt lat="41.8285758" lon="12.7834694"><ele>282.33333333333337</ele><time>2026-05-01T11:45:12.057Z</time></trkpt><trkpt lat="41.8286227" lon="12.7832137"><ele>280.6666666666667</ele><time>2026-05-01T11:45:13.056Z</time></trkpt><trkpt lat="41.8286663" lon="12.7829791"><ele>279.0</ele><time>2026-05-01T11:45:14.057Z</time></trkpt><trkpt lat="41.8287141" lon="12.7827628"><ele>278.6666666666667</ele><time>2026-05-01T11:45:15.056Z</time></trkpt><trkpt lat="41.8287721" lon="12.7825618"><ele>278.33333333333337</ele><time>2026-05-01T11:45:16.057Z</time></trkpt><trkpt lat="41.828845" lon="12.7823729"><ele>278.0</ele><time>2026-05-01T11:45:17.056Z</time></trkpt><trkpt lat="41.8289349" lon="12.7821733"><ele>278.0</ele><time>2026-05-01T11:45:18.056Z</time></trkpt><trkpt lat="41.8290431" lon="12.7819639"><ele>278.0</ele><time>2026-05-01T11:45:19.057Z</time></trkpt><trkpt lat="41.8291711" lon="12.7817532"><ele>278.0</ele><time>2026-05-01T11:45:20.057Z</time></trkpt><trkpt lat="41.829313" lon="12.7815358"><ele>277.0</ele><time>2026-05-01T11:45:21.057Z</time></trkpt><trkpt lat="41.8294526" lon="12.781311"><ele>276.0</ele><time>2026-05-01T11:45:22.057Z</time></trkpt><trkpt lat="41.8295892" lon="12.781076"><ele>275.0</ele><time>2026-05-01T11:45:23.056Z</time></trkpt><trkpt lat="41.8297272" lon="12.7808359"><ele>275.0</ele><time>2026-05-01T11:45:24.056Z</time></trkpt><trkpt lat="41.8298674" lon="12.780594"><ele>275.0</ele><time>2026-05-01T11:45:25.057Z</time></trkpt><trkpt lat="41.8300026" lon="12.7803433"><ele>276.0</ele><time>2026-05-01T11:45:26.056Z</time></trkpt><trkpt lat="41.8301311" lon="12.7800827"><ele>277.0</ele><time>2026-05-01T11:45:27.057Z</time></trkpt><trkpt lat="41.8302552" lon="12.779816"><ele>276.0</ele><time>2026-05-01T11:45:28.057Z</time></trkpt><trkpt lat="41.8303769" lon="12.779543"><ele>275.0</ele><time>2026-05-01T11:45:29.056Z</time></trkpt><trkpt lat="41.830496" lon="12.7792647"><ele>275.0</ele><time>2026-05-01T11:45:30.057Z</time></trkpt><trkpt lat="41.8306111" lon="12.7789794"><ele>275.0</ele><time>2026-05-01T11:45:31.057Z</time></trkpt><trkpt lat="41.8307208" lon="12.7786857"><ele>275.5</ele><time>2026-05-01T11:45:32.057Z</time></trkpt><trkpt lat="41.8308233" lon="12.7783841"><ele>276.0</ele><time>2026-05-01T11:45:33.057Z</time></trkpt><trkpt lat="41.8309143" lon="12.7780743"><ele>274.5</ele><time>2026-05-01T11:45:34.057Z</time></trkpt><trkpt lat="41.8309943" lon="12.777758"><ele>273.0</ele><time>2026-05-01T11:45:35.057Z</time></trkpt><trkpt lat="41.831065" lon="12.7774406"><ele>273.0</ele><time>2026-05-01T11:45:36.057Z</time></trkpt><trkpt lat="41.8311262" lon="12.7771263"><ele>273.0</ele><time>2026-05-01T11:45:37.057Z</time></trkpt><trkpt lat="41.8311827" lon="12.7768209"><ele>274.0</ele><time>2026-05-01T11:45:38.057Z</time></trkpt><trkpt lat="41.8312349" lon="12.7765252"><ele>275.0</ele><time>2026-05-01T11:45:39.057Z</time></trkpt><trkpt lat="41.8312771" lon="12.7762401"><ele>276.0</ele><time>2026-05-01T11:45:40.057Z</time></trkpt><trkpt lat="41.8313095" lon="12.7759678"><ele>276.0</ele><time>2026-05-01T11:45:41.056Z</time></trkpt><trkpt lat="41.8313356" lon="12.7757053"><ele>276.0</ele><time>2026-05-01T11:45:42.057Z</time></trkpt><trkpt lat="41.8313668" lon="12.7754456"><ele>276.0</ele><time>2026-05-01T11:45:43.057Z</time></trkpt><trkpt lat="41.8314121" lon="12.7751995"><ele>277.3333333333333</ele><time>2026-05-01T11:45:44.056Z</time></trkpt><trkpt lat="41.8314793" lon="12.7749636"><ele>278.66666666666663</ele><time>2026-05-01T11:45:45.057Z</time></trkpt><trkpt lat="41.8315846" lon="12.7747468"><ele>280.0</ele><time>2026-05-01T11:45:46.057Z</time></trkpt><trkpt lat="41.831706" lon="12.7745382"><ele>281.0</ele><time>2026-05-01T11:45:47.057Z</time></trkpt><trkpt lat="41.8318342" lon="12.7743279"><ele>282.0</ele><time>2026-05-01T11:45:48.057Z</time></trkpt><trkpt lat="41.8319636" lon="12.7741163"><ele>283.0</ele><time>2026-05-01T11:45:49.057Z</time></trkpt><trkpt lat="41.8320955" lon="12.7739018"><ele>283.0</ele><time>2026-05-01T11:45:50.057Z</time></trkpt><trkpt lat="41.83223" lon="12.7736833"><ele>283.0</ele><time>2026-05-01T11:45:51.057Z</time></trkpt><trkpt lat="41.8323711" lon="12.7734653"><ele>283.0</ele><time>2026-05-01T11:45:52.057Z</time></trkpt><trkpt lat="41.8325187" lon="12.7732425"><ele>281.5</ele><time>2026-05-01T11:45:53.057Z</time></trkpt><trkpt lat="41.8326673" lon="12.7730158"><ele>280.0</ele><time>2026-05-01T11:45:54.057Z</time></trkpt><trkpt lat="41.8328162" lon="12.7727828"><ele>280.5</ele><time>2026-05-01T11:45:55.057Z</time></trkpt><trkpt lat="41.8329678" lon="12.7725498"><ele>281.0</ele><time>2026-05-01T11:45:56.056Z</time></trkpt><trkpt lat="41.8331214" lon="12.7723169"><ele>281.0</ele><time>2026-05-01T11:45:57.057Z</time></trkpt><trkpt lat="41.8332717" lon="12.7720885"><ele>281.0</ele><time>2026-05-01T11:45:58.056Z</time></trkpt><trkpt lat="41.833419" lon="12.7718616"><ele>279.6666666666667</ele><time>2026-05-01T11:45:59.057Z</time></trkpt><trkpt lat="41.8335655" lon="12.7716365"><ele>278.3333333333333</ele><time>2026-05-01T11:46:00.057Z</time></trkpt><trkpt lat="41.8337093" lon="12.7714152"><ele>277.0</ele><time>2026-05-01T11:46:01.057Z</time></trkpt><trkpt lat="41.8338542" lon="12.7711953"><ele>275.66666666666663</ele><time>2026-05-01T11:46:02.057Z</time></trkpt><trkpt lat="41.8339968" lon="12.7709791"><ele>274.3333333333333</ele><time>2026-05-01T11:46:03.057Z</time></trkpt><trkpt lat="41.8341359" lon="12.7707625"><ele>273.0</ele><time>2026-05-01T11:46:04.057Z</time></trkpt><trkpt lat="41.8342731" lon="12.7705489"><ele>272.3333333333333</ele><time>2026-05-01T11:46:05.057Z</time></trkpt><trkpt lat="41.8344093" lon="12.7703365"><ele>271.66666666666663</ele><time>2026-05-01T11:46:06.057Z</time></trkpt><trkpt lat="41.8345453" lon="12.7701252"><ele>271.0</ele><time>2026-05-01T11:46:07.057Z</time></trkpt><trkpt lat="41.8346804" lon="12.7699145"><ele>270.66666666666663</ele><time>2026-05-01T11:46:08.056Z</time></trkpt><trkpt lat="41.8348127" lon="12.7697088"><ele>270.3333333333333</ele><time>2026-05-01T11:46:09.056Z</time></trkpt><trkpt lat="41.8349459" lon="12.7695044"><ele>270.0</ele><time>2026-05-01T11:46:10.057Z</time></trkpt><trkpt lat="41.835078" lon="12.7693026"><ele>268.3333333333333</ele><time>2026-05-01T11:46:11.056Z</time></trkpt><trkpt lat="41.8352092" lon="12.7690982"><ele>266.66666666666663</ele><time>2026-05-01T11:46:12.056Z</time></trkpt><trkpt lat="41.8353401" lon="12.7688947"><ele>265.0</ele><time>2026-05-01T11:46:13.057Z</time></trkpt><trkpt lat="41.8354709" lon="12.7686929"><ele>265.3333333333333</ele><time>2026-05-01T11:46:14.056Z</time></trkpt><trkpt lat="41.8356035" lon="12.7684932"><ele>265.6666666666667</ele><time>2026-05-01T11:46:15.056Z</time></trkpt><trkpt lat="41.8357411" lon="12.7683001"><ele>266.0</ele><time>2026-05-01T11:46:16.057Z</time></trkpt><trkpt lat="41.835883" lon="12.7681154"><ele>266.0</ele><time>2026-05-01T11:46:17.056Z</time></trkpt><trkpt lat="41.8360273" lon="12.7679321"><ele>266.0</ele><time>2026-05-01T11:46:18.057Z</time></trkpt><trkpt lat="41.8361727" lon="12.7677472"><ele>266.0</ele><time>2026-05-01T11:46:19.057Z</time></trkpt><trkpt lat="41.8363193" lon="12.7675591"><ele>266.0</ele><time>2026-05-01T11:46:20.057Z</time></trkpt><trkpt lat="41.8364668" lon="12.7673687"><ele>266.0</ele><time>2026-05-01T11:46:21.057Z</time></trkpt><trkpt lat="41.8366144" lon="12.7671772"><ele>266.0</ele><time>2026-05-01T11:46:22.057Z</time></trkpt><trkpt lat="41.8367668" lon="12.7669859"><ele>264.6666666666667</ele><time>2026-05-01T11:46:23.057Z</time></trkpt><trkpt lat="41.8369192" lon="12.7667939"><ele>263.3333333333333</ele><time>2026-05-01T11:46:24.057Z</time></trkpt><trkpt lat="41.8370692" lon="12.7666022"><ele>262.0</ele><time>2026-05-01T11:46:25.057Z</time></trkpt><trkpt lat="41.8372078" lon="12.7664099"><ele>262.0</ele><time>2026-05-01T11:46:26.057Z</time></trkpt><trkpt lat="41.8373273" lon="12.7662021"><ele>262.0</ele><time>2026-05-01T11:46:27.056Z</time></trkpt><trkpt lat="41.8374247" lon="12.7659823"><ele>262.0</ele><time>2026-05-01T11:46:28.057Z</time></trkpt><trkpt lat="41.8375014" lon="12.765758"><ele>261.3333333333333</ele><time>2026-05-01T11:46:29.056Z</time></trkpt><trkpt lat="41.8375682" lon="12.7655368"><ele>260.6666666666667</ele><time>2026-05-01T11:46:30.057Z</time></trkpt><trkpt lat="41.8376288" lon="12.7653206"><ele>260.0</ele><time>2026-05-01T11:46:31.057Z</time></trkpt><trkpt lat="41.837685" lon="12.7651108"><ele>259.6666666666667</ele><time>2026-05-01T11:46:32.057Z</time></trkpt><trkpt lat="41.8377351" lon="12.7649083"><ele>259.3333333333333</ele><time>2026-05-01T11:46:33.056Z</time></trkpt><trkpt lat="41.8377784" lon="12.764694"><ele>259.0</ele><time>2026-05-01T11:46:34.057Z</time></trkpt><trkpt lat="41.8378213" lon="12.7644606"><ele>258.3333333333333</ele><time>2026-05-01T11:46:35.057Z</time></trkpt><trkpt lat="41.8378789" lon="12.7642201"><ele>257.6666666666667</ele><time>2026-05-01T11:46:36.057Z</time></trkpt><trkpt lat="41.8379449" lon="12.7639704"><ele>257.0</ele><time>2026-05-01T11:46:37.057Z</time></trkpt><trkpt lat="41.8380152" lon="12.763711"><ele>255.0</ele><time>2026-05-01T11:46:38.057Z</time></trkpt><trkpt lat="41.8380861" lon="12.7634476"><ele>253.0</ele><time>2026-05-01T11:46:39.057Z</time></trkpt><trkpt lat="41.8381534" lon="12.7631892"><ele>251.0</ele><time>2026-05-01T11:46:40.057Z</time></trkpt><trkpt lat="41.8382211" lon="12.7629341"><ele>250.0</ele><time>2026-05-01T11:46:41.057Z</time></trkpt><trkpt lat="41.8382877" lon="12.7626817"><ele>249.0</ele><time>2026-05-01T11:46:42.056Z</time></trkpt><trkpt lat="41.8383519" lon="12.7624309"><ele>248.0</ele><time>2026-05-01T11:46:43.057Z</time></trkpt><trkpt lat="41.8384136" lon="12.7621808"><ele>248.66666666666669</ele><time>2026-05-01T11:46:44.057Z</time></trkpt><trkpt lat="41.8384728" lon="12.7619334"><ele>249.33333333333331</ele><time>2026-05-01T11:46:45.057Z</time></trkpt><trkpt lat="41.8385318" lon="12.7616957"><ele>250.0</ele><time>2026-05-01T11:46:46.057Z</time></trkpt><trkpt lat="41.8385915" lon="12.7614628"><ele>248.0</ele><time>2026-05-01T11:46:47.057Z</time></trkpt><trkpt lat="41.8386483" lon="12.7612361"><ele>246.0</ele><time>2026-05-01T11:46:48.056Z</time></trkpt><trkpt lat="41.8387014" lon="12.7610141"><ele>244.0</ele><time>2026-05-01T11:46:49.057Z</time></trkpt><trkpt lat="41.838744" lon="12.7607859"><ele>243.33333333333331</ele><time>2026-05-01T11:46:50.056Z</time></trkpt><trkpt lat="41.8387678" lon="12.7605403"><ele>242.66666666666669</ele><time>2026-05-01T11:46:51.057Z</time></trkpt><trkpt lat="41.8387758" lon="12.7602838"><ele>242.0</ele><time>2026-05-01T11:46:52.057Z</time></trkpt><trkpt lat="41.8387648" lon="12.7600189"><ele>241.33333333333334</ele><time>2026-05-01T11:46:53.057Z</time></trkpt><trkpt lat="41.8387379" lon="12.7597481"><ele>240.66666666666669</ele><time>2026-05-01T11:46:54.056Z</time></trkpt><trkpt lat="41.8387138" lon="12.759484"><ele>240.0</ele><time>2026-05-01T11:46:55.057Z</time></trkpt><trkpt lat="41.8387053" lon="12.7592272"><ele>238.33333333333331</ele><time>2026-05-01T11:46:56.057Z</time></trkpt><trkpt lat="41.8387201" lon="12.7589839"><ele>236.66666666666666</ele><time>2026-05-01T11:46:57.056Z</time></trkpt><trkpt lat="41.8387687" lon="12.7587612"><ele>235.0</ele><time>2026-05-01T11:46:58.057Z</time></trkpt><trkpt lat="41.838852" lon="12.7585494"><ele>234.66666666666666</ele><time>2026-05-01T11:46:59.056Z</time></trkpt><trkpt lat="41.8389617" lon="12.7583481"><ele>234.33333333333331</ele><time>2026-05-01T11:47:00.057Z</time></trkpt><trkpt lat="41.8390938" lon="12.7581562"><ele>234.0</ele><time>2026-05-01T11:47:01.057Z</time></trkpt><trkpt lat="41.8392452" lon="12.7579758"><ele>232.33333333333331</ele><time>2026-05-01T11:47:02.057Z</time></trkpt><trkpt lat="41.839412" lon="12.7578101"><ele>230.66666666666666</ele><time>2026-05-01T11:47:03.057Z</time></trkpt><trkpt lat="41.8395917" lon="12.7576564"><ele>229.0</ele><time>2026-05-01T11:47:04.057Z</time></trkpt><trkpt lat="41.8397768" lon="12.7575045"><ele>229.0</ele><time>2026-05-01T11:47:05.057Z</time></trkpt><trkpt lat="41.8399651" lon="12.75735"><ele>229.0</ele><time>2026-05-01T11:47:06.057Z</time></trkpt><trkpt lat="41.840159" lon="12.757196"><ele>229.0</ele><time>2026-05-01T11:47:07.057Z</time></trkpt><trkpt lat="41.8403549" lon="12.7570375"><ele>228.0</ele><time>2026-05-01T11:47:08.056Z</time></trkpt><trkpt lat="41.8405516" lon="12.756873"><ele>227.0</ele><time>2026-05-01T11:47:09.057Z</time></trkpt><trkpt lat="41.8407478" lon="12.7567035"><ele>227.0</ele><time>2026-05-01T11:47:10.057Z</time></trkpt><trkpt lat="41.8409415" lon="12.756529"><ele>227.0</ele><time>2026-05-01T11:47:11.057Z</time></trkpt><trkpt lat="41.8411319" lon="12.7563515"><ele>225.0</ele><time>2026-05-01T11:47:12.057Z</time></trkpt><trkpt lat="41.8413146" lon="12.7561722"><ele>223.0</ele><time>2026-05-01T11:47:13.057Z</time></trkpt><trkpt lat="41.8414922" lon="12.7559856"><ele>223.0</ele><time>2026-05-01T11:47:14.057Z</time></trkpt><trkpt lat="41.8416598" lon="12.7557793"><ele>223.0</ele><time>2026-05-01T11:47:15.057Z</time></trkpt><trkpt lat="41.84181" lon="12.7555496"><ele>220.5</ele><time>2026-05-01T11:47:16.057Z</time></trkpt><trkpt lat="41.8419453" lon="12.7553001"><ele>218.0</ele><time>2026-05-01T11:47:17.057Z</time></trkpt><trkpt lat="41.8420705" lon="12.7550397"><ele>217.5</ele><time>2026-05-01T11:47:18.057Z</time></trkpt><trkpt lat="41.8421986" lon="12.7547789"><ele>217.0</ele><time>2026-05-01T11:47:19.056Z</time></trkpt><trkpt lat="41.8423354" lon="12.7545233"><ele>217.5</ele><time>2026-05-01T11:47:20.057Z</time></trkpt><trkpt lat="41.8424773" lon="12.7542718"><ele>218.0</ele><time>2026-05-01T11:47:21.057Z</time></trkpt><trkpt lat="41.8426221" lon="12.7540233"><ele>215.0</ele><time>2026-05-01T11:47:22.057Z</time></trkpt><trkpt lat="41.8427667" lon="12.7537756"><ele>212.0</ele><time>2026-05-01T11:47:23.057Z</time></trkpt><trkpt lat="41.8429101" lon="12.7535263"><ele>212.0</ele><time>2026-05-01T11:47:24.057Z</time></trkpt><trkpt lat="41.8430532" lon="12.7532751"><ele>212.0</ele><time>2026-05-01T11:47:25.057Z</time></trkpt><trkpt lat="41.8431939" lon="12.7530211"><ele>212.0</ele><time>2026-05-01T11:47:26.057Z</time></trkpt><trkpt lat="41.8433348" lon="12.7527692"><ele>212.0</ele><time>2026-05-01T11:47:27.056Z</time></trkpt><trkpt lat="41.8434788" lon="12.7525202"><ele>209.5</ele><time>2026-05-01T11:47:28.057Z</time></trkpt><trkpt lat="41.8436241" lon="12.7522712"><ele>207.0</ele><time>2026-05-01T11:47:29.057Z</time></trkpt><trkpt lat="41.8437686" lon="12.7520238"><ele>207.0</ele><time>2026-05-01T11:47:30.056Z</time></trkpt><trkpt lat="41.8439109" lon="12.7517781"><ele>207.0</ele><time>2026-05-01T11:47:31.056Z</time></trkpt><trkpt lat="41.844051" lon="12.7515348"><ele>207.0</ele><time>2026-05-01T11:47:32.057Z</time></trkpt><trkpt lat="41.8441878" lon="12.7512948"><ele>207.0</ele><time>2026-05-01T11:47:33.056Z</time></trkpt><trkpt lat="41.8443238" lon="12.7510583"><ele>207.0</ele><time>2026-05-01T11:47:34.057Z</time></trkpt><trkpt lat="41.8444559" lon="12.7508261"><ele>205.66666666666669</ele><time>2026-05-01T11:47:35.057Z</time></trkpt><trkpt lat="41.8445869" lon="12.7505975"><ele>204.33333333333334</ele><time>2026-05-01T11:47:36.057Z</time></trkpt><trkpt lat="41.8447172" lon="12.7503693"><ele>203.0</ele><time>2026-05-01T11:47:37.057Z</time></trkpt><trkpt lat="41.8448478" lon="12.7501401"><ele>202.66666666666669</ele><time>2026-05-01T11:47:38.057Z</time></trkpt><trkpt lat="41.844979" lon="12.7499091"><ele>202.33333333333331</ele><time>2026-05-01T11:47:39.057Z</time></trkpt><trkpt lat="41.8451103" lon="12.7496782"><ele>202.0</ele><time>2026-05-01T11:47:40.057Z</time></trkpt><trkpt lat="41.8452436" lon="12.7494429"><ele>199.0</ele><time>2026-05-01T11:47:41.057Z</time></trkpt><trkpt lat="41.8453787" lon="12.7492038"><ele>196.0</ele><time>2026-05-01T11:47:42.057Z</time></trkpt><trkpt lat="41.8455172" lon="12.7489613"><ele>196.0</ele><time>2026-05-01T11:47:43.057Z</time></trkpt><trkpt lat="41.845669" lon="12.7487068"><ele>196.0</ele><time>2026-05-01T11:47:44.057Z</time></trkpt><trkpt lat="41.8458344" lon="12.7484457"><ele>194.0</ele><time>2026-05-01T11:47:45.057Z</time></trkpt><trkpt lat="41.8460103" lon="12.7481778"><ele>192.0</ele><time>2026-05-01T11:47:46.056Z</time></trkpt><trkpt lat="41.8461968" lon="12.7479046"><ele>190.5</ele><time>2026-05-01T11:47:47.057Z</time></trkpt><trkpt lat="41.8463918" lon="12.7476301"><ele>189.0</ele><time>2026-05-01T11:47:48.057Z</time></trkpt><trkpt lat="41.8465916" lon="12.7473535"><ele>189.0</ele><time>2026-05-01T11:47:49.057Z</time></trkpt><trkpt lat="41.8467868" lon="12.7470796"><ele>189.0</ele><time>2026-05-01T11:47:50.057Z</time></trkpt><trkpt lat="41.846972" lon="12.7468149"><ele>185.5</ele><time>2026-05-01T11:47:51.056Z</time></trkpt><trkpt lat="41.8471511" lon="12.7465601"><ele>182.0</ele><time>2026-05-01T11:47:52.057Z</time></trkpt><trkpt lat="41.8473257" lon="12.7463146"><ele>182.0</ele><time>2026-05-01T11:47:53.057Z</time></trkpt><trkpt lat="41.847493" lon="12.7460773"><ele>182.0</ele><time>2026-05-01T11:47:54.056Z</time></trkpt><trkpt lat="41.8476563" lon="12.7458452"><ele>178.0</ele><time>2026-05-01T11:47:55.056Z</time></trkpt><trkpt lat="41.8478153" lon="12.7456186"><ele>174.0</ele><time>2026-05-01T11:47:56.057Z</time></trkpt><trkpt lat="41.8479721" lon="12.7453973"><ele>173.5</ele><time>2026-05-01T11:47:57.057Z</time></trkpt><trkpt lat="41.8481249" lon="12.7451743"><ele>173.0</ele><time>2026-05-01T11:47:58.057Z</time></trkpt><trkpt lat="41.8482663" lon="12.7449368"><ele>173.0</ele><time>2026-05-01T11:47:59.057Z</time></trkpt><trkpt lat="41.848389" lon="12.7446813"><ele>173.0</ele><time>2026-05-01T11:48:00.057Z</time></trkpt><trkpt lat="41.8484975" lon="12.7444132"><ele>171.0</ele><time>2026-05-01T11:48:01.057Z</time></trkpt><trkpt lat="41.8485955" lon="12.7441461"><ele>169.0</ele><time>2026-05-01T11:48:02.057Z</time></trkpt><trkpt lat="41.8486884" lon="12.7438797"><ele>167.0</ele><time>2026-05-01T11:48:03.056Z</time></trkpt><trkpt lat="41.848772" lon="12.7436113"><ele>166.33333333333331</ele><time>2026-05-01T11:48:04.056Z</time></trkpt><trkpt lat="41.8488432" lon="12.7433405"><ele>165.66666666666666</ele><time>2026-05-01T11:48:05.057Z</time></trkpt><trkpt lat="41.8488985" lon="12.7430678"><ele>165.0</ele><time>2026-05-01T11:48:06.057Z</time></trkpt><trkpt lat="41.8489308" lon="12.742791"><ele>164.66666666666666</ele><time>2026-05-01T11:48:07.057Z</time></trkpt><trkpt lat="41.8489426" lon="12.7425037"><ele>164.33333333333331</ele><time>2026-05-01T11:48:08.057Z</time></trkpt><trkpt lat="41.848938" lon="12.7422123"><ele>164.0</ele><time>2026-05-01T11:48:09.057Z</time></trkpt><trkpt lat="41.8489263" lon="12.7419173"><ele>163.0</ele><time>2026-05-01T11:48:10.057Z</time></trkpt><trkpt lat="41.8489079" lon="12.7416196"><ele>162.0</ele><time>2026-05-01T11:48:11.057Z</time></trkpt><trkpt lat="41.8488864" lon="12.7413178"><ele>161.0</ele><time>2026-05-01T11:48:12.057Z</time></trkpt><trkpt lat="41.8488724" lon="12.7410184"><ele>159.66666666666666</ele><time>2026-05-01T11:48:13.057Z</time></trkpt><trkpt lat="41.8488643" lon="12.7407217"><ele>158.33333333333334</ele><time>2026-05-01T11:48:14.056Z</time></trkpt><trkpt lat="41.8488628" lon="12.7404273"><ele>157.0</ele><time>2026-05-01T11:48:15.057Z</time></trkpt><trkpt lat="41.8488686" lon="12.7401353"><ele>156.66666666666669</ele><time>2026-05-01T11:48:16.056Z</time></trkpt><trkpt lat="41.8488784" lon="12.739847"><ele>156.33333333333334</ele><time>2026-05-01T11:48:17.057Z</time></trkpt><trkpt lat="41.8488877" lon="12.7395647"><ele>156.0</ele><time>2026-05-01T11:48:18.057Z</time></trkpt><trkpt lat="41.8488971" lon="12.7392855"><ele>155.66666666666666</ele><time>2026-05-01T11:48:19.057Z</time></trkpt><trkpt lat="41.8489052" lon="12.7390049"><ele>155.33333333333331</ele><time>2026-05-01T11:48:20.057Z</time></trkpt><trkpt lat="41.8489159" lon="12.7387232"><ele>155.0</ele><time>2026-05-01T11:48:21.057Z</time></trkpt><trkpt lat="41.8489293" lon="12.7384416"><ele>155.0</ele><time>2026-05-01T11:48:22.057Z</time></trkpt><trkpt lat="41.8489625" lon="12.7378956"><ele>155.0</ele><time>2026-05-01T11:48:24.057Z</time></trkpt><trkpt lat="41.8489839" lon="12.737633"><ele>154.33333333333331</ele><time>2026-05-01T11:48:25.057Z</time></trkpt><trkpt lat="41.8490093" lon="12.7373659"><ele>153.66666666666666</ele><time>2026-05-01T11:48:26.057Z</time></trkpt><trkpt lat="41.8490385" lon="12.737091"><ele>153.0</ele><time>2026-05-01T11:48:27.057Z</time></trkpt><trkpt lat="41.8490716" lon="12.7368214"><ele>152.66666666666666</ele><time>2026-05-01T11:48:28.057Z</time></trkpt><trkpt lat="41.8491045" lon="12.7365573"><ele>152.33333333333331</ele><time>2026-05-01T11:48:29.056Z</time></trkpt><trkpt lat="41.8491355" lon="12.7362976"><ele>152.0</ele><time>2026-05-01T11:48:30.057Z</time></trkpt><trkpt lat="41.8491649" lon="12.7360409"><ele>152.0</ele><time>2026-05-01T11:48:31.057Z</time></trkpt><trkpt lat="41.8491932" lon="12.7357883"><ele>152.0</ele><time>2026-05-01T11:48:32.057Z</time></trkpt><trkpt lat="41.8492211" lon="12.7355412"><ele>152.0</ele><time>2026-05-01T11:48:33.057Z</time></trkpt><trkpt lat="41.849251" lon="12.7352981"><ele>151.33333333333331</ele><time>2026-05-01T11:48:34.057Z</time></trkpt><trkpt lat="41.8492822" lon="12.7350649"><ele>150.66666666666666</ele><time>2026-05-01T11:48:35.057Z</time></trkpt><trkpt lat="41.8493127" lon="12.7348394"><ele>150.0</ele><time>2026-05-01T11:48:36.056Z</time></trkpt><trkpt lat="41.8493471" lon="12.7346275"><ele>150.0</ele><time>2026-05-01T11:48:37.057Z</time></trkpt><trkpt lat="41.8493839" lon="12.7344262"><ele>150.0</ele><time>2026-05-01T11:48:38.057Z</time></trkpt><trkpt lat="41.8494219" lon="12.7342403"><ele>150.0</ele><time>2026-05-01T11:48:39.057Z</time></trkpt><trkpt lat="41.8494631" lon="12.7340681"><ele>150.0</ele><time>2026-05-01T11:48:40.057Z</time></trkpt><trkpt lat="41.849514" lon="12.7339061"><ele>148.0</ele><time>2026-05-01T11:48:41.057Z</time></trkpt><trkpt lat="41.8495757" lon="12.7337497"><ele>146.0</ele><time>2026-05-01T11:48:42.057Z</time></trkpt><trkpt lat="41.8496486" lon="12.7336053"><ele>144.0</ele><time>2026-05-01T11:48:43.057Z</time></trkpt><trkpt lat="41.8497199" lon="12.7334774"><ele>142.0</ele><time>2026-05-01T11:48:44.057Z</time></trkpt><trkpt lat="41.8497934" lon="12.7333498"><ele>141.5</ele><time>2026-05-01T11:48:45.057Z</time></trkpt><trkpt lat="41.8498653" lon="12.7332268"><ele>141.0</ele><time>2026-05-01T11:48:46.056Z</time></trkpt><trkpt lat="41.8499365" lon="12.7331088"><ele>140.5</ele><time>2026-05-01T11:48:47.057Z</time></trkpt><trkpt lat="41.8500093" lon="12.732988"><ele>140.0</ele><time>2026-05-01T11:48:48.057Z</time></trkpt><trkpt lat="41.8500845" lon="12.732872"><ele>139.6</ele><time>2026-05-01T11:48:49.057Z</time></trkpt><trkpt lat="41.8501588" lon="12.7327638"><ele>139.2</ele><time>2026-05-01T11:48:50.057Z</time></trkpt><trkpt lat="41.850234" lon="12.7326627"><ele>138.8</ele><time>2026-05-01T11:48:51.057Z</time></trkpt><trkpt lat="41.8503084" lon="12.7325671"><ele>138.4</ele><time>2026-05-01T11:48:52.056Z</time></trkpt><trkpt lat="41.8503808" lon="12.7324811"><ele>138.0</ele><time>2026-05-01T11:48:53.056Z</time></trkpt><trkpt lat="41.8504353" lon="12.7324057"><ele>137.20000000000002</ele><time>2026-05-01T11:48:54.057Z</time></trkpt><trkpt lat="41.8504634" lon="12.7323263"><ele>136.4</ele><time>2026-05-01T11:48:55.057Z</time></trkpt><trkpt lat="41.8504729" lon="12.7321752"><ele>135.60000000000002</ele><time>2026-05-01T11:48:57.057Z</time></trkpt><trkpt lat="41.8505499" lon="12.7320419"><ele>134.8</ele><time>2026-05-01T11:48:59.056Z</time></trkpt><trkpt lat="41.8506043" lon="12.7319864"><ele>134.0</ele><time>2026-05-01T11:49:00.056Z</time></trkpt><trkpt lat="41.8506139" lon="12.7318448"><ele>133.0</ele><time>2026-05-01T11:49:02.057Z</time></trkpt><trkpt lat="41.850531" lon="12.7318025"><ele>133.0</ele><time>2026-05-01T11:49:04.057Z</time></trkpt><trkpt lat="41.8504646" lon="12.731863"><ele>133.0</ele><time>2026-05-01T11:49:06.057Z</time></trkpt></trkseg></trk></gpx>